     2.11           OBSERVATION DATA    G (GPS)             RINEX VERSION / TYPE
teqc 2010Oct21 OPUS Account 20111025 17:38:22UTC            PGM / RUN BY / DATE
F 1525                                                      MARKER NAME
1125                                                        MARKER NUMBER
CSMIDDLETON NGS                                             OBSERVER / AGENCY
4624K01584 TRIMBLE NETR5 4.41                               REC # / TYPE / VERS
60177755 TRM41249.00 NONE                                   ANT # / TYPE
  -740605.2087 -5465471.4165  3192741.0255                  APPROX POSITION XYZ
        2.0000        0.0000        0.0000                  ANTENNA: DELTA H/E/N
     1     1                                                WAVELENGTH FACT L1/2
     5    L1    L2    C1    P1    P2                        # / TYPES OF OBSERV
    15                                                      LEAP SECONDS
  2011     7    25     0     0    0.0000000     GPS         TIME OF FIRST OBS
                                                            END OF HEADER
 11  7 25  0  0  0.0000000  0  8G04G20G27G09G02G28G17G10
 105253738.116 8  82016064.33446  20029121.445                    20029129.594
 126467064.116 7  98545671.87543  24065845.516                    24065854.813
 118206682.708 7  92109182.96145  22493988.375                    22493997.203
 117416309.084 7  91493273.09845  22343578.398                    22343587.516
 119529249.321 7  93139749.90545  22745653.844                    22745662.441
 113519239.478 8  88456601.09645  21601981.664                    21601989.836
 111550542.147 8  86922573.929 7  21227356.555
 126313327.179 6  98425878.64843  24036591.008                    24036601.523
 11  7 25  0  0 30.0000000  0  8G04G20G27G09G02G28G17G10
 105223946.006 8  81992849.70546  20023452.227                    20023460.320
 126488491.412 6  98562368.45843  24069923.375                    24069932.672
 118183987.012 8  92091497.98945  22489669.648                    22489677.871
 117373091.952 7  91459597.42844  22335354.344                    22335363.254
 119442349.098 7  93072035.53845  22729117.508                    22729125.309
 113560872.051 8  88489042.04345  21609904.570                    21609911.930
 111579213.071 8  86944914.889 7  21232812.906
 126219228.065 6  98352554.87643  24018683.820                    24018695.660
 11  7 25  0  1  0.0000000  0  8G04G20G27G09G02G28G17G10
 105194725.868 8  81970080.77946  20017891.703                    20017900.270
 126510423.351 7  98579458.25843  24074097.281                    24074105.516
 118161778.540 7  92074192.68845  22485443.313                    22485451.961
 117330484.668 7  91426396.95345  22327246.555                    22327255.762
 119355700.814 7  93004517.45845  22712628.828                    22712636.152
 113602870.419 8  88521768.01645  21617896.297                    21617904.367
 111607992.474 7  86967340.395 7  21238289.195
 126125093.531 6  98279203.47043  24000771.133                    24000783.082
 11  7 25  0  1 30.0000000  0  8G04G20G27G09G02G28G17G10
 105166077.824 8  81947757.63946  20012440.414                    20012448.695
 126532859.804 6  98596941.27243  24078366.063                    24078374.770
 118140057.524 7  92057267.21345  22481310.367                    22481318.730
 117288488.852 7  91393672.96245  22319254.672                    22319264.227
 119269306.051 7  92937196.94545  22696189.203                    22696196.422
 113645234.940 8  88554779.29745  21625957.953                    21625966.012
 111636879.722 7  86989849.932 7  21243786.211
 126030926.272 6  98205826.61043  23982850.781                    23982862.840
 11  7 25  0  2  0.0000000  0  8G04G20G27G09G02G28G17G10
 105138002.486 8  81925880.76746  20007097.609                    20007106.012
 126555800.629 6  98614817.24743  24082731.781                    24082740.910
 118118824.724 7  92040722.17345  22477269.453                    22477278.742
 117247105.563 7  91361426.25844  22311379.516                    22311388.457
 119183166.714 7  92870075.45545  22679796.500                    22679804.004
 113687966.342 8  88588076.47045  21634089.953                    21634097.617
 111665874.485 8  87012443.239 7  21249303.883
 125936729.727 6  98132426.93843  23964925.617                    23964937.531
 11  7 25  0  2 30.0000000  0  8G04G20G27G09G02G28G17G10
 105110499.622 8  81904449.98246  20001864.305                    20001872.328
 126579245.312 6  98633085.86543  24087193.844                    24087202.504
 118098080.048 7  92024557.51845  22473321.953                    22473330.645
 117206335.957 7  91329657.75944  22303621.414                    22303630.203
 119097283.826 7  92803153.81645  22663453.383                    22663461.738
 113731064.260 8  88621659.22245  21642291.133                    21642298.914
 111694975.495 8  87035119.351 7  21254841.398
 125842506.099 6  98059006.11743  23946995.313                    23947007.500
 11  7 25  0  3  0.0000000  0  8G04G20G27G09G02G28G17G10
 105083569.653 8  81883465.60746  19996739.156                    19996747.840
 126603194.137 6  98651747.33843  24091749.953                    24091758.984
 118077823.973 8  92008773.56845  22469467.359                    22469476.184
 117166181.343 7  91298368.48244  22295980.789                    22295988.836
 119011658.943 7  92736433.20645  22647159.375                    22647167.305
 113774529.472 8  88655528.19945  21650562.578                    21650570.480
 111724182.213 8  87057877.838 7  21260399.422
 125748258.433 6  97985566.54343  23929060.398                    23929072.387
 11  7 25  0  3 30.0000000  0  8G04G20G27G09G02G28G17G10
 105057213.224 8  81862928.14446  19991724.086                    19991732.211
 126627646.789 6  98670801.36043  24096404.023                    24096412.480
 118058057.102 8  91993370.83345  22465705.453                    22465714.887
 117126643.058 7  91267559.46545  22288456.875                    22288466.102
 118926293.922 7  92669915.10745  22630914.805                    22630922.840
 113818362.031 7  88689683.41345  21658903.016                    21658910.777
 111753494.626 8  87080718.674 7  21265977.398
 125653990.020 6  97912110.85543  23911121.563                    23911133.316
 11  7 25  0  4  0.0000000  0  8G04G20G27G09G02G28G17G10
 105031430.068 8  81842837.39646  19986817.477                    19986826.125
 126652603.226 6  98690247.92542  24101153.023                    24101162.328
 118038779.936 8  91978349.69145  22462037.672                    22462046.395
 117087722.230 7  91237231.55245  22281050.188                    22281059.141
 118841190.233 7  92603600.60345  22614720.195                    22614727.633
 113862562.353 8  88724125.21145  21667314.891                    21667322.223
 111782912.035 8  87103641.346 7  21271575.125
 125559703.641 6  97838641.13943  23893179.289                    23893191.117
 11  7 25  0  4 30.0000000  0  8G04G20G27G09G02G28G17G10
 105006220.589 8  81823193.67046  19982020.273                    19982028.621
 126678063.297 6  98710086.96443  24105996.711                    24106007.078
 118019992.783 8  91963710.37945  22458462.281                    22458471.215
 117049419.938 7  91207385.65645  22273761.367                    22273770.613
 118756349.434 7  92537490.94645  22598575.070                    22598582.750
 113907130.722 7  88758853.78845  21675795.281                    21675803.105
 111812434.020 8  87126645.488 7  21277193.219
 125465402.495 6  97765159.88143  23875234.461                    23875245.852
 11  7 25  0  5  0.0000000  0  8G04G20G27G09G02G28G17G10
 104981585.194 8  81803997.28146  19977332.656                    19977340.828
 126704026.718 5  98730318.19743  24110938.133                    24110947.898
 118001695.892 7  91949453.10245  22454980.703                    22454990.094
 117011737.640 7  91178022.87444  22266590.953                    22266599.934
 118671773.038 7  92471587.33445  22582480.891                    22582488.641
 113952067.706 7  88793869.57745  21684346.906                    21684354.859
 111842060.112 8  87149730.767 7  21282830.203
 125371089.648 6  97691669.56843  23857287.094                    23857298.145
 11  7 25  0  5 30.0000000  0  8G04G20G27G09G02G28G17G10
 104957523.826 8  81785248.18446  19972753.602                    19972762.191
 126730493.300 6  98750941.55443  24115974.430                    24115983.391
 117983889.610 7  91935578.09945  22451591.945                    22451601.102
 116974676.309 7  91149143.95244  22259538.063                    22259546.391
 118587462.575 8  92405890.91945  22566437.414                    22566444.742
 113997373.107 7  88829172.48645  21692968.211                    21692976.324
 111871789.771 8  87172896.718 7  21288488.031
 125276767.860 6  97618172.25943  23839338.289                    23839349.516
 11  7 25  0  6  0.0000000  0  8G04G20G27G09G02G28G17G10
 104934037.036 8  81766946.81646  19968283.992                    19968292.164
 126757462.745 6  98771956.74743  24121105.828                    24121116.070
 117966574.312 7  91922085.68045  22448297.328                    22448306.082
 116938237.459 7  91120750.08644  22252604.461                    22252613.586
 118503419.934 7  92340403.22845  22550444.828                    22550452.828
 114043047.887 7  88864763.21945  21701659.531                    21701668.129
 111901622.803 8  87196143.227 7  21294165.266
 125182440.310 6  97544670.39943  23821388.375                    23821399.773
 11  7 25  0  6 30.0000000  0  8G04G20G27G09G02G28G17G10
 104911124.698 8  81749093.07946  19963924.367                    19963932.211
 126784934.970 6  98793363.65643  24126334.125                    24126343.547
 117949750.170 7  91908975.97845  22445095.313                    22445103.688
 116902421.807 7  91092841.81245  22245788.328                    22245797.102
 118419646.280 7  92275125.11245  22534502.531                    22534509.918
 114089091.958 8  88900641.65745  21710422.047                    21710429.344
 111931558.564 8  87219469.785 7  21299861.875
 125088109.934 6  97471166.38143  23803437.891                    23803449.148
 11  7 25  0  7  0.0000000  0  8G04G20G27G09G02G28G17G10
 104888786.723 8  81731686.88946  19959673.328                    19959681.695
 126812909.452 6  98815161.92242  24131657.273                    24131666.422
 117933417.408 7  91896249.18445  22441987.367                    22441996.410
 116867230.300 7  91065419.89244  22239091.805                    22239100.797
 118336143.174 7  92210057.84845  22518612.742                    22518620.914
 114135505.671 7  88936808.17345  21719254.266                    21719261.148
 111961596.435 8  87242875.911 7  21305577.820
 124993779.945 7  97397662.63843  23785486.805                    23785498.363
 11  7 25  0  7 30.0000000  0  8G04G20G27G09G02G28G17G10
 104867023.362 8  81714728.45146  19955531.969                    19955540.250
 126841385.949 6  98837351.36143  24137076.422                    24137085.789
 117917576.338 7  91883905.48945  22438973.609                    22438981.941
 116832664.160 7  91038485.25045  22232513.914                    22232523.063
 118252912.122 7  92145202.56745  22502774.078                    22502782.051
 114182289.112 8  88973262.78245  21728156.805                    21728164.855
 111991735.955 8  87266361.245 7  21311313.266
 124899453.242 7  97324161.45343  23767537.703                    23767548.043
 11  7 25  0  8  0.0000000  0  8G04G20G27G09G02G28G17G10
 104845834.063 8  81698217.32646  19951499.734                    19951508.113
 126870363.741 6  98859931.47042  24142590.234                    24142599.340
 117902226.721 7  91871944.74345  22436052.172                    22436060.805
 116798723.911 7  91012038.30045  22226055.508                    22226064.414
 118169954.009 7  92080559.96245  22486987.844                    22486995.531
 114229442.212 7  89010005.40845  21737129.805                    21737137.391
 112021976.270 8  87289925.099 7  21317067.469
 124805132.622 7  97250665.04243  23749588.773                    23749599.680
 11  7 25  0  8 30.0000000  0  8G04G20G27G09G02G28G17G10
 104825219.536 8  81682154.07246  19947576.789                    19947584.961
 126899843.111 6  98882902.45543  24148199.922                    24148209.426
 117887369.299 7  91860367.52245  22433224.609                    22433233.203
 116765410.893 7  90986080.10245  22219716.172                    22219725.313
 118087270.896 7  92016131.63545  22471254.281                    22471261.141
 114276965.404 8  89047036.44745  21746172.508                    21746180.043
 112052317.549 8  87313567.640 7  21322841.609
 124710821.417 7  97177175.95343  23731641.516                    23731653.148
 11  7 25  0  9  0.0000000  0  8G04G20G27G09G02G28G17G10
 104805179.627 8  81666538.58046  19943763.344                    19943771.426
 126929823.253 6  98906263.58443  24153905.711                    24153914.785
 117873004.165 7  91849173.93545  22430491.281                    22430499.793
 116732726.117 7  90960611.47345  22213495.969                    22213505.297
 118004864.335 7  91951918.78945  22455572.289                    22455580.430
 114324859.083 7  89084356.16345  21755286.602                    21755293.348
 112082759.045 8  87337288.256 7  21328634.391
 124616522.626 7  97103696.51944  23713697.320                    23713707.461
 11  7 25  0  9 30.0000000  0  8G04G20G27G09G02G28G17G10
 104785714.325 8  81651370.82846  19940059.375                    19940067.438
 126960303.978 6  98930014.77343  24159705.953                    24159715.258
 117859131.596 7  91838364.12645  22427851.359                    22427860.395
 116700670.580 7  90935633.13045  22207396.195                    22207405.336
 117922735.734 7  91887922.56945  22439943.406                    22439951.258
 114373123.332 8  89121964.64245  21764471.570                    21764479.367
 112113300.716 8  87361086.960 7  21334446.391
 124522239.014 6  97030228.88543  23695755.070                    23695765.711
 11  7 25  0 10  0.0000000  0  8G04G20G27G09G02G28G17G10
 104766823.486 8  81636650.70346  19936464.570                    19936472.418
 126991284.572 6  98954155.48843  24165600.922                    24165611.289
 117845751.662 7  91827938.17445  22425305.563                    22425314.906
 116669245.347 7  90911145.93645  22201416.984                    22201425.352
 117840886.474 7  91824144.02745  22424368.313                    22424375.715
 114421757.924 8  89159861.67245  21773726.227                    21773734.410
 112143942.064 8  87384963.335 7  21340276.953
 124427974.136 6  96956775.86443  23677817.227                    23677827.168
 11  7 25  0 10 30.0000000  0  8G04G20G27G09G02G28G17G10
 104748506.952 8  81622378.09646  19932978.516                    19932986.965
 127022764.763 6  98978685.46843  24171591.906                    24171601.070
 117832864.185 7  91817895.98745  22422853.258                    22422863.066
 116638450.802 7  90887150.17945  22195556.320                    22195565.223
 117759317.840 7  91760584.11545  22408846.070                    22408853.430
 114470763.376 7  89198047.70545  21783051.281                    21783058.898
 112174682.030 8  87408916.553 7  21346126.414
 124333731.111 6  96883339.89843  23659882.164                    23659894.023
 11  7 25  0 11  0.0000000  0  8G04G20G27G09G02G28G17G10
 104730764.588 8  81608552.89246  19929602.297                    19929611.016
 127054744.021 6  99003604.34843  24177677.102                    24177687.086
 117820469.299 7  91808237.61545  22420494.414                    22420503.039
 116608287.833 7  90863646.58045  22189816.555                    22189825.484
 117678031.287 8  91697244.02745  22393377.578                    22393385.609
 114520139.524 8  89236522.60345  21792448.117                    21792455.344
 112205520.643 8  87432946.643 7  21351995.586
 124239512.694 6  96809923.06743  23641953.992                    23641964.891
 11  7 25  0 11 30.0000000  0  8G04G20G27G09G02G28G17G10
 104713596.573 8  81595175.22246  19926335.656                    19926343.945
 127087221.920 6  99028911.83943  24183857.695                    24183867.488
 117808567.294 7  91798963.31845  22418229.531                    22418238.414
 116578757.243 7  90840635.74245  22184197.141                    22184205.867
 117597028.448 8  91634125.00945  22377963.297                    22377970.625
 114569886.660 7  89275286.57845  21801914.086                    21801922.645
 112236457.760 8  87457053.488 7  21357882.445
 124145322.322 6  96736528.09443  23624030.188                    23624040.879
 11  7 25  0 12  0.0000000  0  8G04G20G27G09G02G28G17G10
 104697002.496 8  81582244.77846  19923178.055                    19923185.945
 127120197.850 6  99054607.32443  24190132.195                    24190142.211
 117797158.064 7  91790072.99445  22416057.656                    22416067.090
 116549859.871 7  90818118.33245  22178697.930                    22178707.242
 117516310.405 7  91571227.90845  22362603.148                    22362611.531
 114620004.822 7  89314339.62745  21811451.625                    21811459.723
 112267492.706 8  87481236.558 7  21363787.914
 124051162.739 6  96663157.15643  23606111.953                    23606123.285
 11  7 25  0 12 30.0000000  0  8G04G20G27G09G02G28G17G10
 104680982.125 8  81569761.39546  19920128.977                    19920137.488
 127153671.328 6  99080690.52843  24196503.141                    24196512.148
 117786241.717 7  91781566.72945  22413980.961                    22413989.816
 116521596.565 7  90796094.98345  22173319.664                    22173329.473
 117435878.794 8  91508554.00845  22347297.383                    22347304.832
 114670494.247 7  89353682.03045  21821058.922                    21821066.449
 112298625.202 8  87505495.658 7  21369712.383
 123957036.999 6  96589812.59543  23588200.234                    23588211.246
 11  7 25  0 13  0.0000000  0  8G04G20G27G09G02G28G17G10
 104665535.492 8  81557725.06246  19917190.023                    19917198.309
 127187641.916 6  99107161.06043  24202967.297                    24202976.523
 117775818.175 7  91773444.47145  22411997.414                    22412005.695
 116493967.785 7  90774566.07845  22168062.453                    22168071.859
 117355734.790 8  91446104.20545  22332046.586                    22332053.613
 114721355.059 7  89393313.78445  21830737.586                    21830746.141
 112329854.728 8  87529830.364 7  21375654.672
 123862948.701 6  96516497.17144  23570296.125                    23570306.566
 11  7 25  0 13 30.0000000  0  9G12G04G20G27G09G02G28G17G10
 131683474.77215 102610457.47914  25058506.070
 104650661.961 8  81546135.30946  19914359.625                    19914367.707
 127222108.733 6  99134018.27243  24209526.336                    24209535.270
 117765887.287 7  91765706.10145  22410107.711                    22410116.176
 116466974.072 7  90753532.05945  22162925.969                    22162934.879
 117275879.866 8  91383879.66245  22316850.461                    22316857.613
 114772586.809 7  89433234.60545  21840486.594                    21840494.637
 112361180.813 7  87554240.295 7  21381616.242
 123768900.422 6  96443212.93543  23552398.891                    23552409.531
 11  7 25  0 14  0.0000000  0  9G12G04G20G27G09G02G28G17G10
 131587490.61014                  25040235.359
 104636361.437 8  81534992.04246  19911638.266                    19911646.125
 127257071.216 6  99161261.76643  24216179.398                    24216188.422
 117756448.962 7  91758351.53945  22408311.555                    22408320.602
 116440616.260 7  90732993.51845  22157909.750                    22157918.992
 117196315.231 8  91321881.33845  22301710.031                    22301717.070
 114824189.608 7  89473444.55945  21850306.578                    21850314.328
 112392603.240 8  87578725.314 7  21387596.008
 123674895.616 6  96369962.54844  23534510.594                    23534521.492
 11  7 25  0 14 30.0000000  0  8G04G20G27G09G02G28G17G10
 104622633.743 8  81524295.15346  19909025.859                    19909034.277
 127292528.672 6  99188890.93643  24222926.578                    24222936.113
 117747503.242 7  91751380.83445  22406608.867                    22406618.152
 116414895.198 7  90712951.16345  22153014.984                    22153024.355
 117117042.503 8  91260110.45045  22286624.711                    22286631.414
 114876163.876 7  89513943.93645  21860196.852                    21860205.078
 112424121.673 8  87603285.141 7  21393593.375
 123580937.370 6  96296748.46844  23516630.609                    23516641.430
 11  7 25  0 15  0.0000000  0  8G04G20G27G09G02G28G17G10
 104609478.692 8  81514044.47246  19906522.859                    19906530.785
 127328480.890 6  99216905.65643  24229768.000                    24229777.570
 117739050.198 7  91744794.00645  22405000.680                    22405009.445
 116389811.637 7  90693405.56045  22148241.602                    22148251.238
 117038063.248 8  91198568.23045  22271595.258                    22271602.199
 114928509.647 7  89554732.85145  21870157.688                    21870166.426
 112455736.042 8  87627919.701 7  21399609.336
 123487029.040 6  96223573.28744  23498760.016                    23498770.715
 11  7 25  0 15 30.0000000  0  8G04G20G27G09G02G28G17G10
 104596895.597 8  81504239.46946  19904127.961                    19904136.160
 127364926.604 7  99245304.87344  24236704.523                    24236713.664
 117731089.427 7  91738590.79245  22403485.703                    22403494.863
 116365365.547 7  90674356.67645  22143589.930                    22143599.441
 116959378.122 8  91137255.20345  22256622.078                    22256629.070
 114981226.493 7  89595810.89045  21880189.711                    21880197.719
 112487445.584 8  87652628.426 7  21405643.406
 123393173.266 6  96150439.03444  23480900.273                    23480910.664
 11  7 25  0 16  0.0000000  0  9G12G04G20G27G09G02G28G17G10
 131202718.62515                  24967076.648
 104584884.426 8  81494880.13246  19901842.719                    19901850.656
 127401865.507 7  99274088.41143  24243732.508                    24243741.738
 117723621.274 7  91732771.43445  22402064.648                    22402073.953
 116341557.737 7  90655805.15045  22139059.305                    22139068.129
 116880988.913 7  91076172.77945  22241705.094                    22241712.332
 115034314.526 8  89637178.16045  21890292.453                    21890300.004
 112519249.881 8  87677410.985 7  21411695.547
 123299373.666 6  96077348.53344  23463050.117                    23463060.551
 11  7 25  0 16 30.0000000  0  9G12G04G20G27G09G02G28G17G10
 131106473.60515                  24948758.773
 104573444.856 8  81485966.18646  19899665.508                    19899673.879
 127439296.969 6  99303255.75243  24250855.914                    24250865.344
 117716645.587 7  91727335.81145  22400737.086                    22400746.055
 116318388.648 7  90637751.33145  22134650.773                    22134659.930
 116802897.102 8  91015322.06645  22226844.695                    22226851.375
 115087773.913 7  89678834.79945  21900464.234                    21900472.500
 112551149.154 8  87702267.550 7  21417766.258
 123205633.224 6  96004304.13444  23445212.250                    23445222.348
 11  7 25  0 17  0.0000000  0  9G12G04G20G27G09G02G28G17G10
 131010180.93215                  24930436.555
 104562576.337 8  81477497.21546  19897597.695                    19897605.426
 127477220.196 6  99332806.29443  24258072.273                    24258082.117
 117710161.934 7  91722283.58645  22399503.750                    22399512.574
 116295858.787 7  90620195.61645  22130363.500                    22130372.641
 116725103.874 8  90954704.04445  22212041.188                    22212048.270
 115141604.681 7  89720780.82245  21910709.016                    21910716.582
 112583143.123 8  87727197.884 7  21423854.320
 123111954.927 6  95931308.14243  23427386.750                    23427396.047
 11  7 25  0 17 30.0000000  0  9G12G04G20G27G09G02G28G17G10
 130913841.67615 102010944.71414  24912102.297
 104552278.291 8  81469472.77246  19895637.633                    19895645.871
 127515633.927 6  99362739.07643  24265382.313                    24265391.883
 117704169.934 7  91717614.51745  22398363.125                    22398372.039
 116273968.475 7  90603138.22445  22126198.109                    22126206.863
 116647610.264 8  90894319.49345  22197294.523                    22197301.500
 115195806.271 7  89763015.84045  21921023.227                    21921031.219
 112615230.561 8  87752201.069 7  21429960.430
 123018342.121 6  95858363.17143  23409571.875                    23409582.152
 11  7 25  0 18  0.0000000  0  9G12G04G20G27G09G02G28G17G10
 130817457.481 5 101935840.209 4  24893760.453
 104542550.379 8  81461892.58146  19893786.742                    19893794.605
 127554537.949 6  99393053.89543  24272785.203                    24272794.879
 117698669.663 7  91713328.58145  22397316.258                    22397325.816
 116252718.203 7  90586579.56645  22122153.805                    22122163.531
 116570417.536 8  90834169.39945  22182604.758                    22182612.262
 115250378.845 7  89805539.84845  21931407.281                    21931415.496
 112647411.768 8  87777277.308 7  21436084.195
 122924798.080 6  95785471.86044  23391770.492                    23391781.426
 11  7 25  0 18 30.0000000  0  9G12G04G20G27G09G02G28G17G10
 130721030.122 5 101860702.071 5  24875411.258
 104533392.382 8  81454756.48446  19892043.898                    19892051.902
 127593931.317 6  99423750.06543  24280281.508                    24280290.840
 117693660.857 7  91709425.60245  22396363.297                    22396372.605
 116232108.310 7  90570519.90945  22118232.039                    22118240.574
 116493527.306 8  90774254.99945  22167973.641                    22167980.137
 115305322.296 7  89848352.90245  21941863.133                    21941870.367
 112679686.737 8  87802426.617 7  21442225.852
 122831326.217 6  95712636.75044  23373983.156                    23373994.230
 11  7 25  0 19  0.0000000  0  9G12G04G20G27G09G02G28G17G10
 130624560.386 5 101785531.030 5  24857052.070
 104524803.345 8  81448063.73346  19890409.492                    19890417.633
 127633813.126 6  99454826.77143  24287870.922                    24287879.914
 117689142.986 7  91705905.16945  22395503.398                    22395512.738
 116212139.129 7  90554959.50145  22114432.711                    22114441.199
 116416940.539 8  90714577.07245  22153399.570                    22153406.273
 115360636.568 7  89891454.94045  21952389.086                    21952396.504
 112712054.701 8  87827648.395 7  21448385.555
 122737929.319 6  95639860.03943  23356211.039                    23356221.055
 11  7 25  0 19 30.0000000  0  9G12G04G20G27G09G02G28G17G10
 130528050.39015 101710328.57315  24838687.641
 104516783.330 8  81441814.36746  19888883.227                    19888891.531
 127674182.648 6  99486283.52643  24295552.617                    24295562.336
 117685116.269 7  91702767.44845  22394737.898                    22394746.043
 116192811.370 7  90539898.90545  22110753.773                    22110762.789
 116340658.519 8  90655136.59945  22138883.180                    22138890.297
 115416321.691 7  89934845.91145  21962985.594                    21962994.086
 112744516.029 8  87852942.923 7  21454562.516
 122644610.988 7  95567144.55844  23338452.383                    23338463.109
 11  7 25  0 20  0.0000000  0  9G12G04G20G27G09G02G28G17G10
 130431501.58415 101635095.89315  24820315.813
 104509331.826 8  81436008.00846  19887465.406                    19887473.254
 127715039.151 7  99518119.70643  24303327.617                    24303336.980
 117681580.297 7  91700012.13445  22394064.570                    22394073.559
 116174125.201 7  90525338.24345  22107197.867                    22107206.980
 116264682.982 7  90595934.96245  22124425.273                    22124433.102
 115472377.617 7  89978525.78445  21973652.938                    21973660.969
 112777070.291 8  87878309.848 7  21460757.234
 122551374.519 6  95494492.84544  23320710.563                    23320720.871
 11  7 25  0 20 30.0000000  0  9G12G04G20G27G09G02G28G17G10
 130334915.138 6 101559833.917 5  24801935.164
 104502447.991 8  81430643.98646  19886155.250                    19886163.711
 127756381.696 6  99550334.69943  24311194.758                    24311203.691
 117678534.401 7  91697638.69245  22393485.039                    22393493.691
 116156080.693 7  90511277.57645  22103764.969                    22103773.609
 116189015.166 8  90536973.09545  22110025.914                    22110032.879
 115528803.966 7  90022494.35045  21984390.523                    21984398.105
 112809716.826 8  87903748.690 7  21466970.141
 122458222.726 6  95421907.16244  23302984.148                    23302994.633
 11  7 25  0 21  0.0000000  0  9G12G04G20G27G09G02G28G17G10
 130238292.635 6 101484543.790 5  24783549.781
 104496131.053 8  81425721.69846  19884953.453                    19884961.477
 127798209.178 6  99582927.52043  24319153.742                    24319163.188
 117675978.365 7  91695646.96945  22392998.789                    22393007.207
 116138677.851 7  90497716.89645  22100453.055                    22100461.879
 116113655.803 7  90478251.60945  22095685.891                    22095693.086
 115585600.285 7  90066751.19645  21995198.719                    21995206.223
 112842455.512 8  87929259.342 7  21473200.023
 122365159.038 6  95349390.12044  23285274.789                    23285284.918
 11  7 25  0 21 30.0000000  0  9G12G04G20G27G09G02G28G17G10
 130141635.291 6 101409226.482 5  24765156.758
 104490380.320 8  81421240.61846  19883859.070                    19883867.152
 127840520.730 7  99615897.57943  24327206.313                    24327215.652
 117673911.737 7  91694036.58445  22392605.547                    22392614.453
 116121916.957 7  90484656.45645  22097263.070                    22097272.699
 116038605.660 8  90419771.05445  22081403.992                    22081411.059
 115642766.469 7  90111296.23045  22006076.930                    22006084.789
 112875285.686 7  87954841.289 7  21479447.375
 122272186.473 6  95276944.06244  23267582.477                    23267592.477
 11  7 25  0 22  0.0000000  0  9G12G04G20G27G09G02G28G17G10
 130044944.984 6 101333883.561 5  24746755.164
 104485195.348 8  81417200.38846  19882872.398                    19882880.441
 127883315.512 6  99649244.18243  24335349.930                    24335358.699
 117672334.226 7  91692807.34245  22392305.281                    22392313.922
 116105798.159 7  90472096.35345  22094195.688                    22094204.801
 115963866.494 8  90361532.81545  22067181.797                    22067189.250
 115700302.440 7  90156129.39745  22017025.266                    22017033.008
 112908207.447 7  87980494.598 7  21485711.898
 122179308.229 6  95204571.52044  23249908.578                    23249918.453
 11  7 25  0 22 30.0000000  0  9G12G04G20G27G09G02G28G17G10
 129948223.141 6 101258515.964 5  24728350.617
 104480575.353 8  81413600.40546  19881993.086                    19882000.871
 127926592.131 6  99682966.23443  24343584.711                    24343593.844
 117671245.382 7  91691958.87045  22392098.688                    22392106.770
 116090321.586 7  90460036.67845  22091250.828                    22091260.020
 115889439.402 8  90303537.72745  22053019.023                    22053025.535
 115758207.859 7  90201250.47345  22028045.070                    22028053.258
 112941220.665 7  88006219.187 7  21491994.055
 122086527.460 6  95132274.92244  23232252.375                    23232262.855
 11  7 25  0 23  0.0000000  0  9G12G04G20G27G09G02G28G17G10
 129851471.475 6 101183125.141 6  24709939.250
 104476520.013 8  81410440.40946  19881221.563                    19881229.602
 127970349.954 6  99717063.21642  24351911.133                    24351921.309
 117670644.812 7  91691490.87045  22391984.164                    22391992.887
 116075487.481 7  90448477.60745  22088427.648                    22088437.074
 115815325.786 8  90245786.92945  22038915.367                    22038922.199
 115816482.625 7  90246659.35045  22039134.102                    22039142.266
 112974325.471 7  88032015.131 7  21498293.891
 121993847.758 7  95060057.06044  23214616.695                    23214626.340
 11  7 25  0 23 30.0000000  0  9G12G04G20G27G09G02G28G17G10
 129754691.451 6 101107712.228 6  24691521.258
 104473028.335 8  81407719.62146  19880556.891                    19880565.145
 128014588.046 6  99751534.42243  24360329.906                    24360339.316
 117670532.054 7  91691402.97245  22391962.695                    22391971.328
 116061295.906 7  90437419.22344  22085727.359                    22085736.090
 115741526.444 8  90188280.99045  22024871.883                    22024877.984
 115875126.427 7  90292355.78945  22050293.086                    22050301.391
 113007521.310 7  88057882.030 7  21504610.672
 121901272.223 6  94987920.35344  23197000.016                    23197009.484
 11  7 25  0 24  0.0000000  0  9G12G04G20G27G09G02G28G17G10
 129657884.657 6 101032278.376 6  24673101.438
 104470099.766 8  81405437.63846  19879999.633                    19880007.707
 128059305.573 6  99786379.25543  24368839.531                    24368848.848
 117670906.677 7  91691694.85345  22392033.375                    22392042.816
 116047746.863 7  90426861.51145  22083149.336                    22083158.547
 115668042.860 8  90131021.11245  22010888.500                    22010894.840
 115934139.050 7  90338339.61845  22061523.578                    22061531.336
 113040807.751 7  88083819.513 7  21510944.914
 121808803.968 6  94915867.28544  23179402.547                    23179414.004
 11  7 25  0 24 30.0000000  0  9G12G04G20G27G09G02G28G17G10
 129561052.488 7 100956824.695 6  24654674.477
 104467733.394 8  81403593.72346  19879549.000                    19879557.430
 128104500.984 6  99821596.45443  24377440.117                    24377449.125
 117671768.177 7  91692366.10845  22392197.867                    22392206.938
 116034840.183 7  90416804.33245  22080693.117                    22080701.664
 115594876.133 8  90074008.13146  21996964.695                    21996971.902
 115993520.247 7  90384610.66045  22072823.438                    22072831.688
 113074184.720 7  88109827.523 7  21517296.891
 121716446.367 6  94843900.40943  23161828.109                    23161838.230
 11  7 25  0 25  0.0000000  0  9G12G04G20G27G09G02G28G17G10
 129464197.105 7 100881353.004 6  24636242.984
 104465928.800 8  81402187.55446  19879205.867                    19879214.012
 128150173.530 5  99857185.39942  24386130.133                    24386140.234
 117673116.326 7  91693416.57645  22392454.180                    22392463.324
 116022576.285 7  90407248.03845  22078359.563                    22078368.629
 115522027.496 8  90017243.01246  21983102.102                    21983109.277
 116053270.076 7  90431168.90745  22084193.227                    22084201.270
 113107652.230 7  88135906.114 7  21523665.047
 121624202.822 6  94772022.43044  23144274.633                    23144284.648
 11  7 25  0 25 30.0000000  0  9G12G04G20G27G09G02G28G17G10
 129367320.166 7 100805864.447 6  24617807.867
 104464685.417 8  81401218.69146  19878969.336                    19878977.223
 128196322.468 5  99893145.64942  24394912.336                    24394921.934
 117674950.658 7  91694845.90845  22392803.086                    22392812.152
 116010955.262 7  90398192.65745  22076148.047                    22076157.121
 115449498.265 8  89960726.78946  21969300.500                    21969307.402
 116113387.979 7  90478013.99645  22095633.117                    22095640.727
 113141210.434 7  88162055.353 7  21530051.180
 121532076.708 6  94700235.94944  23126743.422                    23126753.992
 11  7 25  0 26  0.0000000  0  9G12G04G20G27G09G02G28G17G10
 129270423.110 7 100730360.186 6  24599368.727
 104464001.750 8  81400685.97246  19878839.211                    19878847.410
 128242946.53415  99929476.02952  24403784.477                    24403795.105
 117677270.393 7  91696653.44545  22393244.633                    22393253.801
 115999976.640 7  90389637.88945  22074058.609                    22074067.922
 115377288.893 8  89904459.80445  21955559.516                    21955566.066
 116173873.516 7  90525145.56445  22107143.102                    22107151.211
 113174858.554 7  88188274.654 7  21536454.281
 121440070.977 6  94628543.32144  23109235.500                    23109245.699
 11  7 25  0 26 30.0000000  0  9G12G04G20G27G09G02G28G17G10
 129173506.727 6 100654840.918 6  24580926.773
 104463876.619 8  81400588.48146  19878815.594                    19878823.391
 128290043.824 6  99966175.24142  24412747.719                    24412757.445
 117680074.487 7  91698838.40845  22393778.539                    22393787.484
 115989639.878 7  90381583.24645  22072091.633                    22072101.613
 115305400.463 8  89848442.88045  21941879.516                    21941885.891
 116234725.931 7  90572562.97345  22118723.414                    22118731.344
 113208596.035 7  88214563.598 7  21542874.180
 121348188.517 6  94556946.65044  23091750.633                    23091760.480
 11  7 25  0 27  0.0000000  0  9G12G04G20G27G09G02G28G17G10
 129076573.167 6 100579308.242 6  24562480.820
 104464309.627 8  81400925.89646  19878898.055                    19878905.684
 128337613.781 6 100003242.77542  24421799.617                    24421808.969
 117683362.617 7  91701400.55145  22394404.547                    22394412.875
 115979945.205 7  90374028.90745  22070247.063                    22070255.938
 115233834.454 8  89792677.20545  21928261.008                    21928267.957
 116295945.032 7  90620266.11345  22130372.742                    22130380.648
 113242423.702 7  88240922.815 7  21549311.625
 121256433.020 6  94485448.97144  23074290.078                    23074299.676
 11  7 25  0 27 30.0000000  0  9G12G04G20G27G09G02G28G17G10
 128979624.310 7 100503763.663 6  24544032.461
 104465299.880 8  81401697.53046  19879086.422                    19879094.340
 128385654.880 6 100040677.37942  24430940.742                    24430951.250
 117687134.143 7  91704339.36445  22395122.414                    22395130.535
 115970892.143 7  90366974.55345  22068524.164                    22068533.168
 115162591.875 8  89737163.56145  21914703.664                    21914710.500
 116357530.487 7  90668254.74045  22142092.125                    22142100.793
 113276340.599 7  88267351.563 7  21555765.492
 121164807.954 7  94414052.86944  23056854.797                    23056863.340
 11  7 25  0 28  0.0000000  0  9G12G04G20G27G09G02G28G17G10
 128882661.686 6 100428208.400 6  24525580.523
 104466846.249 8  81402902.51146  19879380.273                    19879388.602
 128434166.01016 100078478.25052  24440173.547                    24440182.254
 117691388.386 7  91707654.33745  22395931.430                    22395939.977
 115962480.673 7  90360420.14345  22066923.094                    22066932.578
 115091673.378 8  89681902.44545  21901208.242                    21901215.176
 116419481.967 7  90716528.56845  22153881.430                    22153889.633
 113310346.570 7  88293849.717 7  21562236.641
 121073316.235 6  94342760.67744  23039444.391                    23039453.883
 11  7 25  0 28 30.0000000  0  9G12G04G20G27G09G02G28G17G10
 128785687.102 6 100352643.850 6  24507127.227
 104468948.085 8  81404540.30946  19879780.289                    19879788.777
 128483146.331 6 100116644.68842  24449493.547                    24449503.012
 117696124.669 7  91711344.92445  22396833.039                    22396841.922
 115954710.635 7  90354365.53545  22065444.969                    22065454.527
 115021080.358 8  89626894.95245  21887774.914                    21887781.746
 116481799.097 7  90765087.35045  22165739.484                    22165747.328
 113344441.707 7  88320417.339 7  21568724.398
 120981961.091 7  94271574.93444  23022059.641                    23022069.715
 11  7 25  0 29  0.0000000  0  9G12G04G20G27G09G02G28G17G10
 128688702.235 6 100277071.341 6  24488671.219
 104471604.445 8  81406610.21146  19880285.727                    19880293.906
 128532594.508 6 100155175.69942  24458904.523                    24458912.602
 117701342.482 7  91715410.73845  22397825.977                    22397834.996
 115947581.805 7  90348810.59245  22064088.781                    22064098.074
 114950813.898 8  89572141.93045  21874403.461                    21874410.336
 116544481.486 7  90813930.72545  22177668.039                    22177675.957
 113378626.059 7  88347054.478 7  21575229.617
 120890746.071 7  94200498.37744  23004701.891                    23004712.059
 11  7 25  0 29 30.0000000  0  9G12G04G20G27G09G02G28G17G10
 128591708.761 6 100201492.142 6  24470213.281
 104474814.437 8  81409111.51646  19880896.898                    19880904.828
 128582509.441 6 100194070.42243  24468401.586                    24468411.074
 117707041.156 7  91719851.25745  22398909.945                    22398919.758
 115941093.749 7  90343754.95445  22062853.430                    22062863.371
 114880874.784 8  89517643.97145  21861094.656                    21861101.258
 116607528.848 7  90863058.50145  22189665.445                    22189673.742
 113412899.262 7  88373760.860 7  21581751.844
 120799674.241 7  94129533.38144  22987372.047                    22987381.809
 11  7 25  0 30  0.0000000  0  9G12G04G20G27G09G02G28G17G10
 128494708.517 6 100125907.638 5  24451756.125
 104478577.177 8  81412043.53946  19881612.891                    19881620.605
 128632889.698 6 100233327.80143  24477988.414                    24477997.867
 117713220.194 7  91724666.09545  22400085.984                    22400095.480
 115935246.481 7  90339198.62245  22061741.391                    22061749.938
 114811264.940 8  89463402.58945  21847848.063                    21847855.035
 116670940.832 7  90912470.39545  22201732.047                    22201740.594
 113447261.925 7  88400536.948 7  21588290.570
 120708749.534 7  94058683.00644  22970069.195                    22970078.859
 11  7 25  0 30 30.0000000  0  9G12G04G20G27G09G02G28G17G10
 128397702.859 6 100050318.926 6  24433295.633
 104482891.260 8  81415405.17546  19882434.094                    19882441.508
 128683733.843 6 100272946.59843  24487664.578                    24487673.824
 117719878.326 7  91729854.25245  22401352.930                    22401362.578
 115930039.231 7  90335141.03745  22060750.539                    22060759.590
 114741984.480 8  89409417.86946  21834664.703                    21834671.465
 116734716.790 7  90962165.93145  22213868.344                    22213876.738
 113481712.959 7  88427381.902 7  21594846.563
 120617974.608 7  93987949.39644  22952795.031                    22952805.098
 11  7 25  0 31  0.0000000  0  9G12G04G20G27G09G02G28G17G10
 128300693.727 6  99974727.551 6  24414834.984
 104487755.735 8  81419195.69046  19883359.453                    19883367.535
 128735040.868 6 100312926.05743  24497427.398                    24497437.227
 117727015.099 7  91735415.37645  22402710.695                    22402720.648
 115925471.695 7  90331581.90045  22059881.148                    22059889.613
 114673034.464 8  89355690.61546  21821543.844                    21821550.648
 116798856.010 7  91012144.50345  22226073.750                    22226082.504
 113516252.613 8  88454295.899 7  21601419.438
 120527352.929 7  93917335.20544  22935550.414                    22935560.445
 11  7 25  0 31 30.0000000  0  9G12G04G20G27G09G02G28G17G10
 128203682.856 6  99899134.817 6  24396374.641
 104493169.754 8  81423414.41546  19884389.680                    19884397.434
 128786809.418 7 100353265.16943  24507279.313                    24507288.043
 117734629.706 7  91741348.85045  22404160.445                    22404169.559
 115921543.532 7  90328520.98545  22059133.734                    22059142.559
 114604415.738 8  89302221.54046  21808486.156                    21808492.645
 116863358.346 7  91062406.01145  22238347.945                    22238356.824
 113550880.943 7  88481278.998 7  21608009.117
 120436887.962 7  93846843.06344  22918335.742                    22918345.680
 11  7 25  0 32  0.0000000  0  9G12G04G20G27G09G02G28G17G10
 128106671.980 7  99823542.035 6  24377914.672
 104499132.486 8  81428060.71146  19885524.211                    19885532.219
 128839038.232 6 100393962.95743  24517217.914                    24517227.480
 117742721.330 7  91747654.04045  22405699.781                    22405709.051
 115918254.340 7  90325958.00945  22058508.086                    22058516.859
 114536129.901 8  89249011.85645  21795491.297                    21795498.418
 116928223.450 7  91112950.19645  22250692.016                    22250699.754
 113585598.016 7  88508331.234 7  21614615.570
 120346583.135 7  93776475.74644  22901150.563                    22901161.039
 11  7 25  0 32 30.0000000  0  9G12G04G20G27G09G02G28G17G10
 128009662.772 7  99747950.561 6  24359452.898
 104505642.377 7  81433133.37046  19886763.164                    19886771.207
 128891725.946 7 100435018.30843  24527243.758                    24527253.488
 117751289.209 7  91754330.30045  22407330.531                    22407339.313
 115915603.628 7  90323892.49245  22058002.930                    22058011.906
 114468177.849 8  89196062.26346  21782560.930                    21782567.270
 116993450.307 7  91163776.31645  22263104.313                    22263111.621
 113620403.450 7  88535452.334 7  21621238.625
 120256441.340 7  93706235.49544  22883996.836                    22884006.777
 11  7 25  0 33  0.0000000  0  9G12G04G20G27G09G02G28G17G10
 127912656.970 7  99672361.751 6  24340993.844
 104512698.128 8  81438631.37446  19888105.727                    19888113.551
 128944870.916 7 100476429.98143  24537357.867                    24537366.621
 117760332.145 7  91761376.77345  22409050.742                    22409060.117
 115913590.882 7  90322324.13045  22057620.305                    22057629.410
 114400560.019 8  89143373.11746  21769693.500                    21769700.203
 117059038.244 7  91214883.75045  22275584.398                    22275593.512
 113655297.116 7  88562642.195 7  21627878.633
 120166465.815 7  93636124.76544  22866875.594                    22866885.559
 11  7 25  0 33 30.0000000  0  9G12G04G20G27G09G02G28G17G10
 127815656.449 6  99596776.997 6  24322535.609
 104520299.005 8  81444554.14146  19889551.977                    19889560.113
 128998472.031 6 100518197.08943  24547557.125                    24547566.672
 117769849.632 7  91768793.01245  22410862.414                    22410871.020
 115912215.467 7  90321252.37945  22057358.797                    22057367.473
 114333277.511 8  89090945.22545  21756890.242                    21756896.309
 117124987.236 7  91266272.55545  22288135.008                    22288142.883
 113690279.005 8  88589900.804 7  21634535.617
 120076660.160 7  93566146.42444  22849785.508                    22849795.746
 11  7 25  0 34  0.0000000  0  9G12G04G20G27G09G02G28G17G10
 127718663.136 6  99521197.849 6  24304078.375
 104528443.673 8  81450900.64246  19891101.984                    19891109.922
 129052527.753 6 100560318.40343  24557843.953                    24557853.637
 117779840.675 7  91776578.25945  22412763.117                    22412773.078
 115911476.769 7  90320676.76245  22057218.344                    22057227.203
 114266331.404 8  89038779.48446  21744150.883                    21744157.246
 117191296.507 7  91317942.09045  22300752.852                    22300761.234
 113725348.850 7  88617227.930 7  21641209.156
 119987027.609 7  93496302.97944  22832729.125                    22832739.523
 11  7 25  0 34 30.0000000  0  9G12G04G20G27G09G02G28G17G10
 127621678.465 6  99445625.475 6  24285620.969
 104537131.246 8  81457670.18646  19892755.219                    19892763.602
 129107036.921 6 100602793.10743  24568216.289                    24568225.383
 117790304.462 7  91784731.84445  22414754.367                    22414763.125
 115911374.492 7  90320597.08145  22057198.477                    22057208.059
 114199722.740 8  88986876.66846  21731475.773                    21731482.086
 117257965.759 7  91369892.16545  22313439.445                    22313448.230
 113760507.099 8  88644623.954 7  21647899.477
 119897571.710 7  93426597.14844  22815705.875                    22815716.363
 11  7 25  0 35  0.0000000  0  9G12G04G20G27G09G02G28G17G10
 127524704.644 6  99370061.586 6  24267168.508
 104546360.572 8  81464861.87546  19894511.664                    19894519.156
 129161998.154 6 100645620.00743  24578675.195                    24578684.824
 117801240.334 8  91793253.29745  22416835.758                    22416844.996
 115911907.830 7  90321012.66445  22057299.492                    22057309.180
 114133452.408 8  88935237.50545  21718864.336                    21718870.875
 117324994.382 7  91422122.20245  22326194.945                    22326203.148
 113795754.082 8  88672089.117 7  21654607.094
 119808295.997 7  93357031.70244  22798718.289                    22798727.988
 11  7 25  0 35 30.0000000  0  9G12G04G20G27G09G02G28G17G10
 127427743.201 6  99294507.221 6  24248718.273
 104556130.102 8  81472474.50946  19896370.508                    19896378.559
 129217409.832 6 100688797.95343  24589219.430                    24589228.730
 117812646.766 7  91802141.43445  22419005.820                    22419014.977
 115913075.956 7  90321922.89945  22057522.648                    22057531.895
 114067521.128 8  88883862.54346  21706318.211                    21706324.773
 117392381.379 7  91474631.52045  22339018.172                    22339026.570
 113831089.036 8  88699622.830 7  21661330.820
 119719203.458 7  93287609.00844  22781764.055                    22781773.637
 11  7 25  0 36  0.0000000  0  9G12G04G20G27G09G02G28G17G10
 127330796.177 7  99218964.149 5  24230269.594
 104566438.685 8  81480507.16746  19898332.461                    19898340.258
 129273270.366 6 100732325.61843  24599850.227                    24599858.816
 117824523.154 7  91811395.74645  22421266.133                    22421275.227
 115914878.276 7  90323327.29945  22057865.469                    22057874.883
 114001929.772 8  88832752.46146  21693836.234                    21693843.129
 117460126.165 7  91527419.64245  22351909.797                    22351918.055
 113866511.839 8  88727225.009 7  21668071.516
 119630297.230 7  93218331.48144  22764845.508                    22764855.242
 11  7 25  0 36 30.0000000  0  9G12G04G20G27G09G02G28G17G10
 127233865.398 7  99143433.686 5  24211824.234
 104577285.110 8  81488958.93246  19900396.156                    19900404.148
 129329578.163 6 100776201.84343  24610564.859                    24610573.449
 117836868.265 7  91821015.31445  22423614.867                    22423624.535
 115917313.830 7  90325225.12645  22058328.664                    22058337.930
 113936679.037 8  88781907.78446  21681419.695                    21681426.125
 117528228.159 7  91580486.06845  22364868.984                    22364877.156
 113902022.654 7  88754895.759 7  21674828.813
 119541580.821 7  93149201.88044  22747964.266                    22747972.824
 11  7 25  0 37  0.0000000  0  9G12G04G20G27G09G02G28G17G10
 127136952.243 7  99067916.886 5  24193382.281
 104588667.803 8  81497828.57046  19902562.203                    19902570.594
 129386332.054 6 100820425.63342  24621364.742                    24621373.980
 117849681.139 7  91830999.32745  22426054.047                    22426063.426
 115920382.127 7  90327616.01445  22058912.688                    22058922.027
 113871769.762 8  88731329.18946  21669067.859                    21669074.219
 117596686.737 7  91633830.35745  22377896.125                    22377905.074
 113937621.237 8  88782634.900 7  21681603.648
 119453057.282 7  93080222.55444  22731118.359                    22731127.809
 11  7 25  0 37 30.0000000  0  9G12G04G20G27G09G02G28G17G10
 127040059.190 7  98992415.795 5  24174944.250
 104600586.009 7  81507115.48546  19904830.305                    19904838.426
 129443530.302 5 100864995.70242  24632248.203                    24632258.215
 117862960.680 7  91841347.01945  22428580.656                    22428589.609
 115924082.231 7  90330499.17445  22059617.242                    22059625.320
 113807203.238 8  88681017.66046  21656780.703                    21656787.402
 117665501.452 7  91687452.18444  22390990.969                    22390999.035
 113973308.153 8  88810442.872 7  21688394.172
 119364730.512 7  93011396.56844  22714310.289                    22714319.820
 11  7 25  0 38  0.0000000  0  9G12G04G20G27G09G02G28G17G10
 126943188.325 7  98916932.048 6  24156510.602
 104613038.516 8  81516818.73746  19907199.898                    19907207.797
 129501172.001 5 100909911.34942  24643217.438                    24643227.219
 117876706.314 7  91852057.89545  22431195.820                    22431205.035
 115928413.819 7  90333874.43945  22060441.375                    22060449.199
 113742980.497 8  88630974.03746  21644559.797                    21644566.480
 117734671.753 7  91741351.09844  22404153.859                    22404162.094
 114009083.532 8  88838319.795 7  21695202.273
 119276603.723 7  92942726.38544  22697539.859                    22697549.512
 11  7 25  0 38 30.0000000  0  9G12G04G20G27G09G02G28G17G10
 126846341.152 6  98841466.798 6  24138080.297
 104626023.656 8  81526937.02946  19909670.609                    19909679.113
 129559255.118 5 100955170.88742  24654270.688                    24654280.008
 117890916.672 7  91863130.88445  22433900.820                    22433909.809
 115933375.722 7  90337740.85645  22061385.914                    22061393.953
 113679102.044 8  88581198.67546  21632403.992                    21632410.855
 117804196.908 7  91795526.48744  22417384.078                    22417392.602
 114044947.273 8  88866265.544 7  21702026.805
 119188680.074 7  92874214.50944  22680808.820                    22680818.031
 11  7 25  0 39  0.0000000  0  9G12G04G20G27G09G02G28G17G10
 126749519.349 6  98766021.361 6  24119655.680
 104639539.931 8  81537469.19146  19912242.586                    19912251.105
 129617778.020 5 101000773.12942  24665406.086                    24665417.121
 117905590.488 7  91874565.01945  22436693.141                    22436701.738
 115938967.018 7  90342097.70645  22062450.195                    22062457.457
 113615568.446 8  88531692.04246  21620314.367                    21620320.832
 117874075.725 7  91849977.43645  22430681.961                    22430691.008
 114080899.105 8  88894279.939 7  21708868.250
 119100962.823 7  92805863.45044  22664116.398                    22664126.320
 11  7 25  0 39 30.0000000  0  9G12G04G20G27G09G02G28G17G10
 126652724.603 6  98690597.063 6  24101235.883
 104653585.763 8  81548413.99847  19914915.617                    19914923.969
 129676738.874 6 101046716.65142  24676627.055                    24676636.730
 117920726.320 7  91886359.13745  22439573.477                    22439582.238
 115945186.395 7  90346943.95645  22063632.922                    22063640.664
 113552380.018 8  88482454.36646  21608289.688                    21608296.445
 117944307.323 7  91904703.31344  22444046.461                    22444054.816
 114116938.440 8  88922362.535 7  21715726.750
 119013455.205 7  92737675.72644  22647464.086                    22647473.914
 11  7 25  0 40  0.0000000  0  9G12G04G20G27G09G02G28G17G10
 126555959.499 7  98615195.799 6  24082822.281
 104668160.378 8  81559770.84046  19917689.102                    19917697.641
 129736136.230 5 101093000.41742  24687929.563                    24687940.238
 117936323.716 7  91898512.92945  22442541.055                    22442550.527
 115952033.480 7  90352279.35645  22064936.234                    22064944.402
 113489538.490 8  88433486.99746  21596331.195                    21596337.426
 118014891.384 7  91959703.86144  22457478.102                    22457486.211
 114153066.108 8  88950513.946 7  21722601.375
 118926160.797 7  92669654.16444  22630853.125                    22630862.523
 11  7 25  0 40 30.0000000  0  9G12G04G20G27G09G02G28G17G10
 126459225.368 7  98539818.676 6  24064414.336
 104683262.100 8  81571538.41446  19920562.906                    19920570.672
 129795968.853 5 101139623.19642  24699315.188                    24699325.285
 117952381.181 7  91911025.23245  22445596.320                    22445605.477
 115959506.969 7  90358102.84445  22066357.742                    22066366.660
 113427044.140 8  88384790.14546  21584439.328                    21584445.645
 118085827.236 7  92014978.50544  22470976.961                    22470985.559
 114189281.909 8  88978734.045 7  21729492.945
 118839082.969 7  92601801.39144  22614282.391                    22614292.199
 11  7 25  0 41  0.0000000  0  9G12G04G20G27G09G02G28G17G10
 126362524.471 6  98464467.414 6  24046012.445
 104698889.383 8  81583715.52746  19923537.117                    19923544.547
 129856234.807 6 101186583.73742  24710783.492                    24710793.164
 117968897.477 7  91923895.02145  22448739.914                    22448749.004
 115967605.653 7  90364413.54044  22067898.328                    22067907.719
 113364897.634 8  88336364.33646  21572613.039                    21572619.469
 118157113.750 7  92070526.36745  22484542.711                    22484551.465
 114225585.703 8  89007022.712 7  21736401.578
 118752224.998 7  92534119.92745  22597753.391                    22597763.520
 11  7 25  0 41 30.0000000  0  9G12G04G20G27G09G02G28G17G10
 126265858.702 7  98389143.502 6  24027617.875
 104715040.970 8  81596301.17246  19926610.297                    19926618.391
 129916932.625 6 101233880.70542  24722334.523                    24722343.398
 117985871.677 7  91937121.65245  22451969.688                    22451979.129
 115976329.163 7  90371211.08845  22069559.273                    22069568.316
 113303100.132 8  88288210.46046  21560853.336                    21560859.449
 118228750.259 7  92126346.94544  22498174.320                    22498182.809
 114261977.796 8  89035380.186 7  21743326.250
 118665590.150 7  92466612.30844  22581267.766                    22581277.723
 11  7 25  0 42  0.0000000  0  9G12G04G20G27G09G02G28G17G10
 126169229.696 7  98313848.300 6  24009230.383
 104731715.030 8  81609293.95346  19929783.414                    19929791.391
 129978060.307 6 101281512.60442  24733966.625                    24733975.512
 118003302.425 7  91950704.00845  22455286.344                    22455297.051
 115985676.164 7  90378494.50645  22071336.750                    22071346.867
 113241652.168 8  88240328.96946  21549160.102                    21549166.496
 118300735.963 7  92182439.69144  22511873.070                    22511880.922
 114298458.239 8  89063806.494 7  21750268.883
 118579181.714 7  92399281.14044  22564824.977                    22564834.348
 11  7 25  0 42 30.0000000  0  9G12G04G20G27G09G02G28G17G10
 126072639.784 7  98238583.479 6  23990849.852
 104748910.601 8  81622693.10646  19933055.461                    19933063.418
 130039616.552 6 101329478.62942  24745680.031                    24745689.234
 118021188.540 7  91964641.21545  22458690.625                    22458699.922
 115995645.573 7  90386262.89845  22073234.430                    22073244.133
 113180554.410 8  88192720.37646  21537533.594                    21537539.816
 118373070.238 7  92238804.05944  22525637.813                    22525645.477
 114335027.320 8  89092301.857 7  21757227.273
 118493003.358 7  92332129.20444  22548425.609                    22548434.297
 11  7 25  0 43  0.0000000  0  9G12G04G20G27G09G02G28G17G10
 125976090.532 7  98163350.323 6  23972476.648
 104766625.575 8  81636496.98946  19936426.430                    19936434.375
 130101599.274 5 101377776.86042  24757475.398                    24757483.891
 118039528.566 7  91978932.09345  22462180.461                    22462189.488
 116006235.887 7  90394515.10045  22075249.789                    22075259.625
 113119807.550 8  88145385.20346  21525973.430                    21525980.211
 118445752.066 7  92295439.21345  22539468.492                    22539476.797
 114371684.679 8  89120866.035 7  21764202.891
 118407057.765 7  92265158.68645  22532070.563                    22532080.191
 11  7 25  0 43 30.0000000  0  9G12G04G20G27G09G02G28G17G10
 125879584.368 7  98088150.774 6  23954112.273
 104784859.243 8  81650705.03846  19939896.203                    19939904.098
 130164007.288 5 101426406.50442  24769351.797                    24769360.660
 118058321.776 7  91993576.11945  22465756.703                    22465765.527
 116017446.598 7  90403250.74145  22077383.422                    22077392.867
 113059412.649 8  88098324.25746  21514481.000                    21514487.637
 118518780.876 7  92352344.68245  22553365.063                    22553374.715
 114408430.868 8  89149499.431 7  21771195.563
 118321348.795 7  92198372.56945  22515761.391                    22515770.285
 11  7 25  0 44  0.0000000  0  9G12G04G20G27G09G02G28G17G10
 125783123.053 7  98012986.181 6  23935756.133
 104803609.449 8  81665315.59246  19943464.125                    19943472.398
 130226838.424 5 101475365.87042  24781308.328                    24781316.402
 118077566.373 7  92008571.86845  22469419.016                    22469427.391
 116029276.127 7  90412468.54045  22079634.625                    22079643.652
 112999369.664 8  88051537.54746  21503055.008                    21503061.414
 118592155.541 7  92409519.70044  22567328.320                    22567337.094
 114445265.413 8  89178201.663 7  21778204.789
 118235879.662 7  92131773.30244  22499496.320                    22499505.340
 11  7 25  0 44 30.0000000  0  9G12G04G20G27G09G02G28G17G10
 125686708.982 6  97937858.414 6  23917409.219
 104822875.014 8  81680327.72346  19947130.445                    19947138.559
 130290091.180 5 101524653.80642  24793343.438                    24793353.309
 118097261.311 7  92023918.53845  22473166.820                    22473175.672
 116041723.487 7  90422167.79245  22082003.508                    22082012.402
 112939679.829 8  88005026.00646  21491696.367                    21491702.215
 118665875.377 7  92466963.67144  22581357.156                    22581364.977
 114482188.845 8  89206973.130 7  21785231.234
 118150653.892 7  92065363.66144  22483278.453                    22483287.188
 11  7 25  0 45  0.0000000  0  9G12G04G20G27G09G02G28G17G10
 125590343.873 6  97862768.779 6  23899070.766
 104842654.528 8  81695740.33246  19950894.508                    19950902.727
 130353764.116 5 101574269.06042  24805460.078                    24805471.086
 118117405.558 7  92039615.31945  22477000.297                    22477008.926
 116054787.520 7  90432347.53545  22084489.406                    22084498.445
 112880344.001 8  87958790.33646  21480405.211                    21480411.672
 118739939.652 7  92524676.06544  22595450.695                    22595459.266
 114519201.166 8  89235813.891 7  21792274.375
 118065674.797 7  91999146.26244  22467107.477                    22467116.816
 11  7 25  0 45 30.0000000  0  9G12G04G20G27G09G02G28G17G10
 125494029.402 6  97787718.600 6  23880743.688
 104862945.739 8  81711551.67146  19954755.375                    19954763.824
 130417855.104 5 101624210.11342  24817656.414                    24817666.262
 118137997.004 7  92055660.54045  22480919.242                    22480928.004
 116068466.122 8  90443006.18145  22087092.492                    22087101.438
 112821362.077 8  87912830.41646  21469180.953                    21469187.352
 118814346.820 7  92582655.58544  22609609.664                    22609619.098
 114556302.182 8  89264723.782 7  21799334.477
 117980945.440 7  91933123.45244  22450983.430                    22450992.910
 11  7 25  0 46  0.0000000  0  9G12G04G20G27G09G02G28G17G10
 125397767.571 6  97712709.462 6  23862425.539
 104883747.472 8  81727760.81746  19958714.070                    19958722.113
 130482362.250 6 101674475.48442  24829932.367                    24829940.813
 118159034.775 7  92072053.56145  22484921.453                    22484931.488
 116082758.667 7  90454143.20945  22089812.539                    22089821.641
 112762735.202 8  87867147.18246  21458025.039                    21458031.305
 118889096.521 7  92640902.02344  22623834.195                    22623843.012
 114593492.420 8  89293703.168 7  21806411.641
 117896469.244 7  91867297.91644  22434908.445                    22434917.512
 11  7 25  0 46 30.0000000  0 10G12G05G04G20G27G09G02G28G17G10
 125301560.677 6  97637743.112 6  23844117.641
 132655310.91415 103367802.90214  25243458.391
 104905057.983 8  81744366.42246  19962769.039                    19962777.426
 130547283.662 6 101725063.59142  24842285.992                    24842294.988
 118180517.307 7  92088793.13945  22489009.539                    22489018.883
 116097663.923 7  90465757.71645  22092648.672                    22092657.039
 112704463.921 8  87821741.01646  21446936.117                    21446942.637
 118964187.563 7  92699414.48044  22638123.898                    22638131.879
 114630771.607 8  89322751.886 7  21813505.844
 117812249.759 7  91801672.40745  22418882.508                    22418891.215
 11  7 25  0 47  0.0000000  0 10G12G05G04G20G27G09G02G28G17G10
 125205410.660 6  97562821.067 6  23825820.891
 132553887.990 5 103288772.168 4  25224159.461
 104926875.535 8  81761367.09946  19966921.094                    19966929.211
 130612617.684 5 101775973.18742  24854717.531                    24854727.371
 118202443.229 7  92105878.18145  22493182.984                    22493192.078
 116113180.342 7  90477848.42945  22095601.008                    22095610.594
 112646548.647 8  87776612.24246  21435915.148                    21435921.438
 119039619.043 7  92758192.17444  22652477.695                    22652486.109
 114668139.891 8  89351870.025 7  21820616.727
 117728289.972 7  91736249.26645  22402904.922                    22402913.730
 11  7 25  0 47 30.0000000  0 10G12G05G04G20G27G09G02G28G17G10
 125109320.289 6  97487945.566 6  23807534.344
 132452310.533 5 103209621.047 4  25204830.500
 104949199.422 8  81778762.34446  19971169.172                    19971176.875
 130678363.079 5 101827203.41242  24867229.648                    24867239.129
 118224811.974 7  92123308.30945  22497439.555                    22497448.570
 116129307.089 7  90490414.70145  22098669.992                    22098678.727
 112588990.844 8  87731762.03946  21424962.508                    21424968.871
 119115390.564 7  92817234.83844  22666897.352                    22666905.645
 114705598.259 7  89381058.363 7  21827744.625
 117644593.867 7  91671031.58244  22386977.859                    22386986.441
 11  7 25  0 48  0.0000000  0  9G12G04G20G27G09G02G28G17G10
 125013290.619 7  97413117.307 6  23789261.977
 104972026.721 8  81796549.85446  19975512.883                    19975520.820
 130744517.327 5 101878752.20842  24879818.672                    24879827.840
 118247621.018 7  92141081.52145  22501779.047                    22501788.281
 116146041.877 7  90503454.79245  22101854.125                    22101863.297
 112531789.860 8  87687189.87046  21414077.359                    21414083.980
 119191500.091 7  92876540.92944  22681380.398                    22681388.797
 114743145.756 8  89410316.120 7  21834889.461
 117561163.944 7  91606021.29945  22371101.852                    22371110.703
 11  7 25  0 48 30.0000000  0  9G12G04G20G27G09G02G28G17G10
 124917323.933 7  97338338.101 6  23770999.250
 104995356.016 8  81814728.53346  19979952.352                    19979960.422
 130811078.596 6 101930618.21843  24892484.969                    24892494.047
 118270869.096 7  92159196.84445  22506203.594                    22506212.953
 116163383.451 7  90516967.67745  22105154.539                    22105162.621
 112474946.409 8  87642896.31346  21403260.602                    21403267.309
 119267947.028 7  92936109.89744  22695927.570                    22695935.789
 114780782.757 7  89439643.644 7  21842052.070
 117478003.656 7  91541221.15745  22355276.828                    22355286.910
 11  7 25  0 49  0.0000000  0 10G12G05G04G20G27G09G02G28G17G10
 124821422.262 7  97263609.605 6  23752749.555
 132146666.57615 102971463.52215  25146667.523
 105019185.589 8  81833297.05046  19984486.664                    19984495.035
 130878045.191 6 101982799.97042  24905227.836                    24905236.250
 118294554.673 7  92177653.07345  22510710.930                    22510720.277
 116181330.467 7  90530952.38545  22108569.398                    22108578.574
 112418461.185 8  87598881.88146  21392511.578                    21392518.121
 119344730.253 7  92995940.92044  22710539.172                    22710547.039
 114818509.272 8  89469040.921 7  21849231.070
 117395116.238 7  91476633.62445  22339503.984                    22339513.188
 11  7 25  0 49 30.0000000  0 10G12G05G04G20G27G09G02G28G17G10
 124725587.670 7  97188933.354 6  23734513.633
 132044489.861 6 102891845.418 5  25127224.094
 105043513.919 8  81852254.19946  19989116.539                    19989124.594
 130945415.059 6 102035296.05542  24918048.266                    24918057.234
 118318676.286 7  92196449.07445  22515300.414                    22515310.738
 116199881.550 7  90545407.74045  22112099.773                    22112108.773
 112362334.944 8  87555147.17846  21381831.344                    21381837.926
 119421849.133 7  93056033.47644  22725214.547                    22725222.922
 114856325.902 7  89498508.425 7  21856427.406
 117312505.466 7  91412261.68445  22323783.922                    22323793.391
 11  7 25  0 50  0.0000000  0 10G12G05G04G20G27G09G02G28G17G10
 124629822.551 7  97114311.207 6  23716289.781
 131942169.670 6 102812115.452 4  25107753.938
 105068339.348 8  81871598.69546  19993840.695                    19993848.492
 131013186.175 5 102088104.79442  24930944.609                    24930953.758
 118343232.838 7  92215583.97145  22519975.156                    22519983.809
 116219035.382 7  90560332.77545  22115744.297                    22115753.281
 112306568.365 8  87511692.72646  21371218.906                    21371225.270
 119499302.450 7  93116386.66444  22739953.430                    22739961.832
 114894232.519 8  89528046.052 7  21863641.008
 117230174.528 7  91348107.75145  22308116.906                    22308125.914
 11  7 25  0 50 30.0000000  0 10G12G05G04G20G27G09G02G28G17G10
 124534129.232 7  97039745.026 6  23698080.422
 131839708.888 6 102732275.881 3  25088254.883
 105093660.714 8  81891329.63346  19998659.188                    19998667.680
 131081357.38815 102141225.24052  24943914.531                    24943925.957
 118368222.982 7  92235056.76045  22524729.930                    22524739.039
 116238790.435 7  90575726.30645  22119504.070                    22119512.637
 112251162.397 8  87468519.27046  21360675.727                    21360682.230
 119577089.782 7  93177000.11944  22754755.531                    22754764.066
 114932229.923 7  89557654.417 7  21870871.477
 117148126.945 7  91284174.60345  22292503.734                    22292511.945
 11  7 25  0 51  0.0000000  0 10G12G05G04G20G27G09G02G28G17G10
 124438509.437 6  96965236.159 6  23679883.391
 131737108.875 6 102652327.959 3  25068730.438
 105119475.569 8  81911445.10246  20003571.336                    20003579.898
 131149926.58815 102194655.78052  24956964.992                    24956975.074
 118393644.712 7  92254865.85545  22529568.070                    22529576.840
 116259145.001 7  90591586.97144  22123376.938                    22123385.559
 112196116.792 8  87425626.62546  21350200.891                    21350207.168
 119655209.666 7  93237872.65844  22769620.648                    22769630.242
 114970317.705 8  89587333.185 7  21878119.320
 117066365.627 7  91220464.55445  22276944.938                    22276954.367
 11  7 25  0 51 30.0000000  0 10G12G05G04G20G27G09G02G28G17G10
 124342965.456 6  96890786.307 6  23661703.422
 131634372.584 6 102572273.784 4  25049181.016
 105145782.244 8  81931943.81646  20008577.453                    20008585.797
 131218891.72615                  24970086.008
 118419496.687 7  92275010.22245  22534486.945                    22534496.430
 116280097.584 7  90607913.64044  22127364.188                    22127373.336
 112141432.280 8  87383015.35446  21339794.922                    21339801.109
 119733660.921 7  93299003.48544  22784549.930                    22784558.891
 115008496.494 7  89617082.873 7  21885384.672
 116984893.967 7  91156980.19545  22261440.852                    22261450.488
 11  7 25  0 52  0.0000000  0 10G12G05G04G20G27G09G02G28G17G10
 124247499.363 6  96816397.180 6  23643536.094
 131531501.958 6 102492114.987 5  25029605.117
 105172578.974 8  81952824.39046  20013676.977                    20013685.016
 131288250.731 5                  24983286.555
 118445776.909 7  92295488.28345  22539488.133                    22539497.375
 116301646.148 7  90624704.67845  22131465.055                    22131473.973
 112087109.137 8  87340685.68246  21329457.391                    21329463.750
 119812442.340 7  93360391.52044  22799541.828                    22799550.285
 115046766.002 8  89646903.265 7  21892666.945
 116903715.498 7  91093724.29945  22245993.117                    22246002.172
 11  7 25  0 52 30.0000000  0 10G12G05G04G20G27G09G02G28G17G10
 124152113.129 6  96742070.255 6  23625384.063
 131428499.539 5 102411853.549 5  25010004.805
 105199863.746 8  81974085.25646  20018868.617                    20018877.227
 131358001.581 5                  24996558.469
 118472483.999 7  92316298.98245  22544570.016                    22544580.000
 116323789.126 7  90641958.91945  22135679.070                    22135687.180
 112033148.018 8  87298638.08846  21319189.016                    21319195.180
 119891552.718 7  93422035.95444  22814596.164                    22814604.902
 115085126.385 7  89676794.459 7  21899966.820
 116822833.162 7  91030699.16245  22230601.516                    22230611.000
 11  7 25  0 53  0.0000000  0 10G12G05G04G20G27G09G02G28G17G10
 124056808.763 6  96667807.060 6  23607249.250
 131325367.901 5 102331491.330 5  24990379.359
 105227635.128 8  81995725.28846  20024153.508                    20024161.563
 131428142.351 4                  25009906.125
 118499616.410 7  92337441.10445  22549733.195                    22549742.625
 116346525.019 7  90659675.16745  22140005.336                    22140013.523
 111979549.176 8  87256872.79046  21308989.508                    21308995.355
 119970991.523 7  93483936.26544  22829713.117                    22829721.340
 115123578.123 7  89706756.838 7  21907283.367
 116742250.361 7  90967907.37345  22215267.477                    22215276.758
 11  7 25  0 53 30.0000000  0 10G12G05G04G20G27G09G02G28G17G10
 123961588.827 6  96593609.703 6  23589128.859
 131222109.479 5 102251030.522 5  24970727.039
 105255891.058 8  82017742.89646  20029530.547                    20029538.711
 131498670.91415                  25023329.305
 118527172.445 7  92358913.32545  22554976.875                    22554986.180
 116369852.245 7  90677852.18745  22144443.586                    22144453.285
 111926313.114 8  87215390.18446  21298859.055                    21298865.461
 120050757.079 6  93546091.18644  22844891.438                    22844901.027
 115162121.174 7  89736790.375 7  21914618.195
 116661970.388 7  90905351.64245  22199990.602                    22200000.004
 11  7 25  0 54  0.0000000  0 10G12G05G04G20G27G09G02G28G17G10
 123866455.083 7  96519479.540 6  23571025.547
 131118726.68215 102170472.75616  24951056.195
 105284629.593 8  82040136.55346  20034999.477                    20035007.879
 131569585.385 5                  25036822.391
 118555150.352 7  92380714.26845  22560301.141                    22560310.063
 116393768.844 7  90696488.43244  22148995.172                    22149003.691
 111873440.370 8  87174190.69646  21288797.250                    21288803.816
 120130848.235 7  93608499.83444  22860132.875                    22860141.898
 115200755.951 8  89766895.383 7  21921970.195
 116581996.439 7  90843034.33845  22184771.539                    22184780.438
 11  7 25  0 54 30.0000000  0 10G12G05G04G20G27G09G02G28G17G10
 123771409.862 7  96445418.311 6  23552939.695
 131015221.105 5 102089819.417 6  24931357.414
 105313848.833 8  82062904.78846  20040559.617                    20040567.645
 131640883.841 5                  25050391.633
 118583548.378 7  92402842.59745  22565704.555                    22565714.055
 116418272.821 7  90715582.38445  22153658.297                    22153667.777
 111820931.245 8  87133274.54046  21278805.234                    21278811.254
 120211263.963 7  93671161.38744  22875435.383                    22875443.660
 115239482.322 7  89797071.762 7  21929339.805
 116502331.777 7  90780958.01245  22169612.375                    22169620.625
 11  7 25  0 55  0.0000000  0 10G12G05G04G20G27G09G02G28G17G10
 123676455.390 7  96371427.783 6  23534869.664
 130911595.749 6 102009072.674 5  24911639.422
 105343546.961 8  82086046.18346  20046210.438                    20046219.008
 131712564.183 4                  25064031.281
 118612364.772 7  92425296.94745  22571187.891                    22571197.492
 116443362.448 7  90735132.69545  22158433.156                    22158442.309
 111768785.954 8  87092641.89546  21268882.445                    21268888.066
 120292003.245 7  93734075.05544  22890799.461                    22890808.156
 115278300.362 7  89827319.565 7  21936726.367
 116422979.691 7  90719125.26644  22154511.656                    22154520.723
 11  7 25  0 55 30.0000000  0  9G12G05G04G27G09G02G28G17G10
 123581593.927 7  96297509.776 6  23516818.648
 130807853.835 6 101928235.112 5  24891897.898
 105373722.447 8  82109559.54746  20051952.688                    20051961.535
 118641598.425 7  92448076.41445  22576751.633                    22576760.137
 116469036.548 7  90755138.42745  22163318.656                    22163327.582
 111717005.433 8  87052293.48146  21259028.766                    21259034.738
 120373065.075 7  93797240.12644  22906225.156                    22906233.859
 115317211.326 7  89857639.778 7  21944130.789
 116343943.740 7  90657538.84445  22139471.266                    22139480.984
 11  7 25  0 56  0.0000000  0  9G12G05G04G27G09G02G28G17G10
 123486827.952 7  96223666.144 6  23498785.000
 130703997.443 6 101847308.349 5  24872135.352
 105404373.688 8  82133443.62346  20057785.563                    20057794.035
 118671247.498 7  92471179.59245  22582393.500                    22582402.414
 116495293.470 7  90775598.31645  22168315.109                    22168324.063
 111665590.312 8  87012229.79246  21249244.813                    21249251.137
 120454448.366 7  93860655.63144  22921712.141                    22921721.320
 115356215.153 7  89888032.364 7  21951552.570
 116265227.360 7  90596201.47245  22124492.430                    22124501.348
 11  7 25  0 56 30.0000000  0  9G12G05G04G27G09G02G28G17G10
 123392159.412 7  96149898.423 6  23480770.156
 130600028.683 5 101766294.092 6  24852350.977
 105435498.353 8  82157696.60046  20063708.492                    20063716.801
 118701309.914 7  92494604.85545  22588114.398                    22588123.270
 116522130.856 7  90796510.51845  22173422.453                    22173431.613
 111614540.257 8  86972450.58646  21239530.414                    21239536.336
 120536151.606 7  93924320.44144  22937259.945                    22937268.293
 115395311.632 7  89918497.124 7  21958992.977
 116186833.539 7  90535115.43545  22109574.508                    22109583.555
 11  7 25  0 57  0.0000000  0  9G12G05G04G27G09G02G28G17G10
 123297590.039 7  96076208.024 6  23462774.023
 130495949.797 6 101685193.965 5  24832543.445
 105467093.893 8  82182316.49446  20069721.008                    20069729.277
 118731783.766 7  92518350.70245  22593913.172                    22593922.738
 116549546.427 7  90817873.26345  22178639.000                    22178648.332
 111563855.316 8  86932955.86946  21229884.828                    21229891.383
 120618173.112 7  93988233.27444  22952868.422                    22952876.266
 115434500.859 7  89949034.171 7  21966450.188
 116108765.211 7  90474283.01945  22094718.680                    22094727.727
 11  7 25  0 57 30.0000000  0  9G12G05G04G27G09G02G28G17G10
 123203122.038 7  96002596.610 6  23444797.773
 130391763.440 6 101604010.006 5  24812718.078
 105499158.801 8  82207302.12646  20075822.648                    20075830.906
 118762667.448 7  92542415.89845  22599789.945                    22599799.723
 116577538.323 7  90839685.08545  22183966.016                    22183975.223
 111513536.139 8  86893746.16946  21220309.398                    21220316.113
 120700511.991 7  94052393.41944  22968536.625                    22968545.879
 115473783.193 7  89979643.755 7  21973925.516
 116031025.749 7  90413706.83945  22079925.430                    22079933.813
 11  7 25  0 58  0.0000000  0  9G12G05G04G27G09G02G28G17G10
 123108757.924 7  95929066.182 6  23426840.344
 130287471.873 6 101522744.073 5  24792871.813
 105531691.180 8  82232652.02646  20082013.438                    20082021.922
 118793959.210 7  92566799.06945  22605745.117                    22605754.484
 116606104.727 7  90861944.56445  22189402.297                    22189411.668
 111463583.175 8  86854821.81846  21210803.945                    21210809.875
 120783166.869 7  94116799.76344  22984265.156                    22984273.613
 115513159.036 7  90010326.206 7  21981418.797
 115953618.422 7  90353389.49645  22065195.578                    22065204.238
 11  7 25  0 58 30.0000000  0  9G12G05G04G27G09G02G28G17G10
 123014500.249 7  95855618.703 6  23408904.016
 130183077.767 6 101441398.270 5  24773006.594
 105564688.957 8  82258364.58146  20088292.797                    20088301.223
 118825657.276 7  92591498.84745  22611777.273                    22611785.570
 116635243.793 7  90884650.26845  22194947.102                    22194956.547
 111413996.555 8  86816182.94546  21201367.766                    21201373.918
 120866136.705 7  94181451.53944  23000053.672                    23000062.672
 115552628.474 7  90041081.594 7  21988929.789
 115876546.520 7  90293333.50345  22050528.922                    22050538.219
 11  7 25  0 59  0.0000000  0  9G12G05G04G27G09G02G28G17G10
 122920351.311 7  95782255.950 6  23390988.016
 130078583.860 6 101359974.633 5  24753121.695
 105598150.455 8  82284438.46046  20094660.781                    20094668.434
 118857759.890 7  92616513.85845  22617885.188                    22617894.645
 116664953.647 7  90907800.75345  22200600.828                    22200609.414
 111364776.649 8  86777829.81146  21192001.469                    21192007.191
 120949420.147 7  94246347.68044  23015901.836                    23015911.090
 115592192.158 7  90071910.421 7  21996458.461
 115799812.981 7  90233541.19745  22035926.641                    22035936.383
 11  7 25  0 59 30.0000000  0  9G12G05G04G27G09G02G28G17G10
 122826313.123 7  95708979.510 6  23373093.383
 129973992.640 6 101278475.152 5  24733218.492
 105632073.914 8  82310872.32046  20101115.797                    20101123.984
 118890265.452 6  92641842.82544  22624071.836                    22624080.879
 116695232.430 7  90931394.56145  22206362.914                    22206371.805
 111315924.119 8  86739762.93546  21182704.961                    21182711.527
 121033016.424 7  94311487.59544  23031809.844                    23031819.641
 115631850.251 7  90102812.796 7  22004004.461
 115723421.756 7  90174015.59645  22021390.695                    22021398.281
 11  7 25  1  0  0.0000000  0  9G12G05G04G27G09G02G28G17G10
 122732387.879 7  95635791.102 6  23355219.641
 129869306.442 6 101196901.688 5  24713296.977
 105666457.025 8  82337664.36446  20107658.938                    20107666.801
 118923171.621 7  92667483.98345  22630333.016                    22630342.426
 116726077.701 7  90955429.80945  22212232.133                    22212241.609
 111267438.849 8  86701982.25646  21173478.672                    21173484.801
 121116923.687 6  94376869.79344  23047777.430                    23047786.492
 115671602.992 7  90133788.929 7  22011569.430
 115647375.830 7  90114759.07545  22006919.141                    22006927.656
 11  7 25  1  0 30.0000000  0  9G12G05G04G27G09G02G28G17G10
 122638578.039 7  95562692.642 6  23337368.375
 129764527.678 6 101115256.098 5  24693357.984
 105701297.547 8  82364812.81546  20114288.727                    20114296.621
 118956476.744 7  92693435.97545  22636671.023                    22636680.238
 116757487.475 7  90979904.90645  22218209.461                    22218219.102
 111219321.203 8  86664488.01846  21164322.219                    21164328.164
 121201140.625 7  94442493.33644  23063802.391                    23063811.480
 115711450.460 7  90164838.886 7  22019152.516
 115571677.967 7  90055773.78445  21992514.109                    21992523.695
 11  7 25  1  1  0.0000000  0  9G12G05G04G27G09G02G28G17G10
 122544885.371 7  95489685.445 6  23319539.305
 129659659.120 6 101033540.527 6  24673401.727
 105736593.530 8  82392316.18446  20121005.023                    20121013.215
 118990178.878 6  92719697.33845  22643084.086                    22643093.977
 116789459.706 7  91004818.32045  22224293.406                    22224302.449
 111171571.359 8  86627280.37846  21155235.680                    21155241.871
 121285666.214 7  94508357.33044  23079887.852                    23079896.613
 115751393.000 7  90195962.914 7  22026752.906
 115496331.788 7  89997062.52945  21978175.664                    21978185.645
 11  7 25  1  1 30.0000000  0  9G12G05G04G27G09G02G28G17G10
 122451312.392 7  95416771.552 6  23301732.336
 129554703.581 6 100951757.200 6  24653429.633
 105772343.152 8  82420173.03246  20127808.023                    20127816.656
 119024276.278 7  92746266.72045  22649572.148                    22649582.320
 116821992.312 7  91030168.38345  22230484.555                    22230493.391
 111124189.476 8  86590359.45946  21146219.406                    21146225.301
 121370498.827 7  94574460.61444  23096031.109                    23096039.742
 115791430.936 7  90227161.267 7  22034372.281
 115421340.323 7  89938627.67245  21963906.211                    21963914.727
 11  7 25  1  2  0.0000000  0  9G12G05G04G27G09G02G28G17G10
 122357861.514 7  95343952.764 6  23283949.398
 129449663.476 6 100869907.989 6  24633440.383
 105808544.657 8  82448382.00446  20134696.828                    20134705.266
 119058767.099 7  92773142.62145  22656136.422                    22656146.320
 116855083.272 7  91055953.51845  22236781.273                    22236790.078
 111077176.242 8  86553725.80046  21137273.164                    21137279.219
 121455637.522 7  94640802.37344  23112231.797                    23112240.922
 115831564.747 7  90258434.329 7  22042009.328
 115346706.955 7  89880471.85045  21949703.844                    21949712.434
 11  7 25  1  2 30.0000000  0 10G12G05G04G20G27G09G02G28G17G10
 122264534.409 7  95271230.387 6  23266189.758
 129344540.428 6 100787994.196 6  24613435.797
 105845194.819 8  82476940.57446  20141671.430                    20141679.391
 132831998.24815                  25277092.164
 119093648.559 7  92800322.93245  22662773.836                    22662782.801
 116888729.769 7  91082171.54245  22243184.000                    22243193.102
 111030530.847 8  86517378.78146  21128396.219                    21128402.211
 121541079.871 7  94707380.79444  23128492.023                    23128500.438
 115871793.968 7  90289781.768 7  22049664.875
 115272433.665 7  89822596.61345  21935569.680                    21935579.031
 11  7 25  1  3  0.0000000  0 10G12G05G04G20G27G09G02G28G17G10
 122171333.715 7  95198606.600 6  23248453.852
 129239337.725 6 100706018.343 5  24593416.180
 105882292.371 8  82505847.75246  20148730.594                    20148738.777
 132909508.11514                  25291840.781
 119128919.467 7  92827806.75544  22669485.906                    22669494.953
 116922930.272 7  91108821.26245  22249692.453                    22249701.422
 110984254.077 8  86481318.99646  21119590.484                    21119596.109
 121626825.344 7  94774195.39344  23144808.063                    23144817.395
 115912119.620 7  90321204.333 7  22057338.383
 115198524.805 7  89765005.35145  21921504.945                    21921514.305
 11  7 25  1  3 30.0000000  0 10G12G05G04G20G27G09G02G28G17G10
 122078262.081 7  95126083.336 6  23230743.281
 129134058.236 6 100623982.648 5  24573382.016
 105919835.485 7  82535102.12246  20155874.758                    20155883.418
 132987364.86714                  25306657.281
 119164577.920 7  92855592.53045  22676271.664                    22676280.840
 116957682.680 7  91135901.05545  22256305.570                    22256315.141
 110938346.159 8  86445546.62546  21110854.320                    21110860.273
 121712872.514 7  94841245.07744  23161182.969                    23161191.707
 115952542.090 7  90352702.346 7  22065030.516
 115124983.503 7  89707700.49745  21907511.047                    21907519.891
 11  7 25  1  4  0.0000000  0 10G12G05G04G20G27G09G02G28G17G10
 121985321.810 7  95053662.386 6  23213056.945
 129028704.304 6 100541888.956 5  24553333.289
 105957821.876 8  82564701.90346  20163103.578                    20163111.727
 133065564.85815                  25321541.805
 119200621.869 7  92883678.69345  22683130.664                    22683140.070
 116992984.334 7  91163408.81045  22263023.188                    22263032.094
 110892807.259 8  86410061.80546  21102188.656                    21102195.008
 121799220.000 7  94908528.79744  23177614.336                    23177623.000
 115993061.287 7  90384275.745 7  22072741.172
 115051812.718 7  89650684.35445  21893586.758                    21893595.313
 11  7 25  1  4 30.0000000  0 10G12G05G04G20G27G09G02G28G17G10
 121892515.249 7  94981345.676 6  23195396.891
 128923278.302 6 100459739.120 5  24533272.211
 105996249.517 8  82594645.52446  20170416.000                    20170423.766
 133144107.42014                  25336486.117
 119237049.245 7  92912063.61945  22690062.492                    22690072.086
 117028833.172 7  91191342.93845  22269845.281                    22269854.340
 110847637.690 8  86374864.76946  21093592.977                    21093598.895
 121885866.749 7  94976045.70244  23194102.359                    23194111.254
 116033678.054 7  90415925.159 7  22080470.141
 114979015.455 7  89593959.24945  21879733.828                    21879741.695
 11  7 25  1  5  0.0000000  0 10G12G05G04G20G27G09G02G28G17G10
 121799844.524 7  94909134.804 6  23177761.445
 128817783.317 6 100377535.473 6  24513196.492
 106035116.094 8  82624931.16246  20177812.172                    20177820.137
 133222989.64414                  25351497.609
 119273857.966 7  92940745.70245  22697067.063                    22697076.148
 117065226.966 7  91219701.72045  22276770.641                    22276779.957
 110802837.178 8  86339955.31746  21085067.688                    21085074.113
 121972810.703 7  95043794.18444  23210647.977                    23210656.461
 116074392.179 7  90447650.459 7  22088217.430
 114906594.978 7  89537527.75845  21865952.609                    21865961.762
 11  7 25  1  5 30.0000000  0  9G12G05G04G27G09G02G28G17G10
 121707312.399 7  94837031.907 6  23160153.031
 128712221.677 6 100295279.896 6  24493109.047
 106074419.795 8  82655557.42646  20185291.539                    20185299.699
 119311046.435 7  92969723.70645  22704143.797                    22704153.477
 117102163.617 7  91248483.50745  22283799.438                    22283808.973
 110758406.540 8  86305334.06746  21076612.695                    21076618.910
 122060050.915 7  95111773.53243  23227249.320                    23227257.664
 116115204.446 7  90479452.242 7  22095984.047
 114834555.049 7  89481392.78245  21852244.461                    21852253.152
 11  7 25  1  6  0.0000000  0  9G12G05G04G27G09G02G28G17G10
 121614921.708 7  94765039.234 6  23142571.688
 128606596.815 6 100212975.157 6  24473008.641
 106114159.748 8  82686523.62546  20192853.680                    20192861.527
 119348613.460 7  92998996.67645  22711291.328                    22711301.547
 117139641.725 7  91277687.19345  22290931.664                    22290940.652
 110714346.571 8  86271001.64346  21068228.594                    21068234.734
 122147586.888 6  95179983.35743  23243906.250                    23243916.012
 116156116.068 7  90511331.419 7  22103769.445
 114762899.297 7  89425557.19645  21838608.094                    21838617.352
 11  7 25  1  6 30.0000000  0  9G12G05G04G27G09G02G28G17G10
 121522673.824 7  94693157.825 7  23125018.227
 128500910.519 6 100130622.478 6  24452896.828
 106154332.387 8  82717826.98246  20200498.273                    20200506.664
 119386555.807 7  93028562.10845  22718512.500                    22718522.402
 117177657.862 7  91307310.13845  22298165.672                    22298174.910
 110670656.247 8  86236957.26346  21059914.648                    21059920.555
 122235415.963 6  95248421.54843  23260619.625                    23260628.391
 116197126.436 7  90543287.561 7  22111573.227
 114691629.804 7  89370022.58745  21825045.805                    21825054.723
 11  7 25  1  7  0.0000000  0  9G12G05G04G27G09G02G28G17G10
 121430571.019 7  94621389.461 6  23107491.375
 128395165.632 6 100048224.116 6  24432774.203
 106194935.536 8  82749465.80746  20208224.852                    20208233.328
 119424871.313 7  93058418.32945  22725803.250                    22725813.316
 117216209.503 7  91337350.37245  22305501.461                    22305511.047
 110627335.432 8  86203200.81846  21051670.727                    21051676.961
 122323536.462 6  95317086.86743  23277388.633                    23277396.867
 116238235.690 7  90575320.739 7  22119396.188
 114620749.397 7  89314791.11245  21811558.055                    21811566.164
 11  7 25  1  7 30.0000000  0  9G12G05G04G27G09G02G28G17G10
 121338615.795 7  94549736.071 6  23089993.242
 128289364.572 6  99965781.927 6  24412640.703
 106235966.921 8  82781438.30446  20216032.945                    20216040.910
 119463557.969 7  93088563.76245  22733165.828                    22733175.352
 117255294.235 7  91367805.98245  22312939.344                    22312948.984
 110584384.393 8  86169732.49246  21043497.383                    21043503.625
 122411947.157 7  95385978.30344  23294212.508                    23294220.301
 116279444.126 7  90607431.217 7  22127237.711
 114550261.420 8  89259865.44245  21798144.852                    21798153.035
 11  7 25  1  8  0.0000000  0  9G12G05G04G27G09G02G28G17G10
 121246810.566 7  94478199.576 6  23072522.047
 128183509.389 6  99883297.568 6  24392497.109
 106277424.534 8  82813742.93646  20223921.953                    20223929.625
 119502613.691 7  93118996.76845  22740598.125                    22740607.453
 117294909.675 7  91398675.10445  22320477.188                    22320487.727
 110541803.080 8  86136552.26346  21035394.367                    21035400.648
 122500646.492 7  95455094.61143  23311091.445                    23311100.238
 116320752.004 7  90639619.180 7  22135098.539
 114480168.574 7  89205247.70545  21784805.891                    21784815.340
 11  7 25  1  8 30.0000000  0  9G12G05G04G27G09G02G28G17G10
 121155157.772 7  94406781.855 6  23055082.031
 128077603.310 6  99800773.558 6  24372343.297
 106319306.531 8  82846378.25346  20231891.563                    20231899.813
 119542036.644 7  93149715.92745  22748099.758                    22748109.090
 117335053.703 7  91429956.14445  22328116.430                    22328126.664
 110499591.814 8  86103660.37746  21027361.813                    21027367.980
 122589633.261 7  95524434.91844  23328024.570                    23328034.227
 116362160.066 7  90671885.190 7  22142978.266
 114410474.065 7  89150940.38745  21771543.742                    21771552.527
 11  7 25  1  9  0.0000000  0  9G12G05G04G27G09G02G28G17G10
 121063659.712 7  94335484.663 6  23037670.305
 127971649.181 6  99718212.088 6  24352180.703
 106361610.521 8  82879342.39146  20239942.016                    20239949.828
 119581824.718 7  93180719.60244  22755670.906                    22755680.801
 117375723.941 7  91461647.20945  22335855.938                    22335865.797
 110457750.521 8  86071056.80446  21019399.633                    21019405.836
 122678905.889 7  95593997.97144  23345013.297                    23345021.906
 116403668.716 7  90704229.596 7  22150877.367
 114341181.497 7  89096946.19045  21758358.258                    21758366.148
 11  7 25  1  9 30.0000000  0  9G12G05G04G27G09G02G28G17G10
 120972318.882 7  94264310.015 6  23020288.266
 127865649.314 6  99635615.003 6  24332009.922
 106404334.340 8  82912633.67046  20248072.070                    20248079.980
 119621975.572 7  93212006.00544  22763311.281                    22763320.934
 117416917.572 7  91493746.11545  22343694.273                    22343704.574
 110416279.340 8  86038741.61246  21011508.133                    21011514.203
 122768462.827 7  95663782.58444  23362055.023                    23362063.852
 116445278.003 7  90736652.419 7  22158794.852
 114272293.821 7  89043267.51145  21745248.469                    21745257.371
 11  7 25  1 10  0.0000000  0  9G12G05G04G27G09G02G28G17G10
 120881137.743 7  94193259.802 6  23002937.781
 127759606.729 6  99552984.650 6  24311830.023
 106447476.005 8  82946250.53946  20256281.570                    20256289.340
 119662487.194 7  93243573.45345  22771020.273                    22771030.707
 117458632.352 7  91526251.10645  22351633.109                    22351642.316
 110375178.443 8  86006714.95446  21003686.938                    21003693.250
 122858302.256 7  95733787.29743  23379151.250                    23379159.777
 116486988.669 7  90769154.231 7  22166732.203
 114203813.789 7  88989906.50045  21732216.844                    21732226.219
 11  7 25  1 10 30.0000000  0  9G12G05G04G27G09G02G28G17G10
 120790118.549 7  94122335.797 6  22985616.688
 127653523.888 6  99470322.916 6  24291643.750
 106491032.854 8  82980190.94346  20264570.188                    20264578.660
 119703357.084 7  93275420.09344  22778797.703                    22778807.363
 117500865.551 7  91559160.07445  22359670.531                    22359679.250
 110334447.288 8  85974976.41246  20995935.891                    20995941.898
 122948422.623 7  95804010.94944  23396300.750                    23396309.332
 116528800.520 7  90801734.879 7  22174688.703
 114135744.279 7  88936865.39945  21719264.484                    21719273.324
 11  7 25  1 11  0.0000000  0  9G12G05G04G27G09G02G28G17G10
 120699263.733 7  94051539.890 6  22968327.859
 127547403.675 6  99387632.026 6  24271450.023
 106535002.837 8  83014453.25846  20272937.531                    20272945.660
 119744583.144 6  93307544.28344  22786643.227                    22786652.773
 117543614.840 7  91592471.22145  22367804.836                    22367812.914
 110294086.213 8  85943526.25446  20988255.625                    20988261.344
 123038822.632 6  95874452.49943  23413502.641                    23413512.164
 116570714.176 7  90834394.843 7  22182664.961
 114068088.577 7  88884146.70845  21706390.328                    21706398.316
 11  7 25  1 11 30.0000000  0  9G12G05G04G27G09G02G28G17G10
 120608575.720 7  93980873.950 6  22951070.383
 127441248.484 6  99304913.898 6  24251249.102
 106579384.201 7  83049036.12946  20281383.336                    20281391.254
 119786163.441 6  93339944.51244  22794555.445                    22794564.660
 117586877.748 7  91626182.58045  22376038.523                    22376045.758
 110254095.212 8  85912364.45246  20980645.430                    20980651.164
 123129500.794 6  95945110.80643  23430758.383                    23430767.898
 116612730.368 7  90867134.716 7  22190660.609
 114000849.922 7  88831752.98245  21693594.734                    21693602.477
 11  7 25  1 12  0.0000000  0  9G12G05G04G27G09G02G28G17G10
 120518056.963 7  93910339.896 6  22933845.273
 127335060.778 6  99222170.421 6  24231041.438
 106624174.260 8  83083937.46346  20289906.461                    20289914.375
 119828095.707 7  93372618.99744  22802534.883                    22802544.965
 117630651.459 7  91660291.98045  22384368.383                    22384376.168
 110214474.083 8  85881490.85446  20973105.930                    20973111.492
 123220455.310 7  96015984.42743  23448066.313                    23448075.836
 116654849.161 7  90899954.534 7  22198675.492
 113934030.764 7  88779686.16445  21680878.938                    21680887.809
 11  7 25  1 12 30.0000000  0  9G12G05G04G27G09G02G28G17G10
 120427709.823 7  93839939.557 6  22916652.195
 127228844.427 6  99139404.632 6  24210829.156
 106669371.098 8  83119155.76746  20298506.844                    20298515.176
 119870377.997 6  93405566.20044  22810581.203                    22810590.977
 117674933.635 7  91694797.58545  22392793.555                    22392802.895
 110175223.166 8  85850905.74446  20965636.156                    20965642.313
 123311684.917 6  96087072.40043  23465427.180                    23465435.664
 116697071.082 7  90932854.680 7  22206710.438
 113867634.821 7  88727949.14045  21668244.523                    21668254.141
 11  7 25  1 13  0.0000000  0  9G12G05G04G27G09G02G28G17G10
 120337536.759 7  93769674.864 7  22899493.297
 127122601.023 6  99056617.737 6  24190611.773
 106714972.243 8  83154689.11946  20307184.422                    20307192.688
 119913007.796 7  93438784.20844  22818692.898                    22818702.961
 117719721.385 7  91729697.11945  22401316.758                    22401327.105
 110136342.076 8  85820608.81746  20958237.281                    20958243.645
 123403187.838 6  96158373.34343  23482839.094                    23482848.063
 116739396.489 7  90965835.523 7  22214764.141
 113801664.406 7  88676543.66245  21655690.867                    21655699.617
 11  7 25  1 13 30.0000000  0  9G12G05G04G27G09G02G28G17G10
 120247540.335 7  93699547.827 7  22882367.844
 127016333.218 6  98973811.798 6  24170389.250
 106760975.442 8  83190535.76346  20315938.391                    20315946.723
 119955982.849 7  93472271.22444  22826871.422                    22826879.930
 117765012.337 7  91764988.75645  22409935.195                    22409945.684
 110097830.481 8  85790599.80646  20950909.023                    20950914.879
 123494961.969 6  96229885.63443  23500303.422                    23500312.652
 116781825.653 7  90998897.155 7  22222838.211
 113736122.369 7  88625472.00345  21643218.180                    21643226.840
 11  7 25  1 14  0.0000000  0  9G12G05G04G27G09G02G28G17G10
 120157722.833 7  93629560.254 7  22865275.563
 126910044.183 6  98890989.342 6  24150163.508
 106807378.849 8  83226694.25146  20324768.844                    20324777.051
 119999301.126 6  93506025.68744  22835114.586                    22835123.441
 117810804.037 7  91800670.58545  22418648.313                    22418659.332
 110059688.779 8  85760879.01346  20943651.211                    20943657.016
 123587006.150 6  96301608.35143  23517819.000                    23517827.648
 116824359.286 7  91032040.219 7  22230932.063
 113671012.199 7  88574736.84845  21630828.242                    21630836.816
 11  7 25  1 14 30.0000000  0  9G12G05G04G27G09G02G28G17G10
 120068086.611 7  93559713.906 7  22848218.211
 126803736.534 6  98808152.373 6  24129933.500
 106854179.773 8  83263162.48346  20333674.789                    20333682.871
 120042960.253 7  93540045.76244  22843422.664                    22843431.977
 117857093.500 7  91836740.26845  22427457.445                    22427468.594
 110021916.535 8  85731446.11346  20936463.383                    20936469.227
 123679318.915 6  96373540.36843  23535385.602                    23535394.043
 116866997.554 7  91065264.817 7  22239045.859
 113606336.342 7  88524340.11745  21618521.094                    21618529.348
 11  7 25  1 15  0.0000000  0  9G12G05G04G27G09G02G28G17G10
 119978634.180 7  93490010.763 7  22831195.805
 126697412.897 6  98725302.975 5  24109700.813
 106901376.055 8  83299938.79946  20342655.984                    20342664.430
 120086957.798 6  93574329.51344  22851794.906                    22851804.527
 117903878.039 7  91873195.72245  22436360.445                    22436371.020
 109984513.619 8  85702301.00146  20929345.219                    20929351.375
 123771898.434 6  96445680.22543  23553003.000                    23553011.766
 116909740.745 7  91098571.174 7  22247179.383
 113542097.600 7  88474284.01345  21606296.656                    21606305.629
 11  7 25  1 15 30.0000000  0  9G12G05G04G27G09G02G28G17G10
 119889368.243 7  93420452.943 6  22814209.930
 126591076.453 6  98642443.528 5  24089465.586
 106948965.875 8  83337021.77246  20351712.195                    20351720.480
 120131291.853 7  93608875.48645  22860231.844                    22860241.184
 117951155.214 7  91910035.07545  22445357.680                    22445366.836
 109947480.562 8  85673444.09346  20922298.359                    20922304.438
 123864743.131 6  96518026.75243  23570670.578                    23570679.711
 116952589.647 8  91131959.895 7  22255333.219
 113478299.475 7  88424571.25545  21594156.172                    21594164.711
 11  7 25  1 16  0.0000000  0  9G12G05G04G27G09G02G28G17G10
 119800291.334 7  93351042.411 6  22797258.883
 126484729.834 6  98559576.168 6  24069227.703
 106996946.756 8  83374409.46046  20360842.563                    20360850.477
 120175959.998 7  93643681.79244  22868731.961                    22868741.180
 117998922.283 7  91947256.16545  22454447.164                    22454456.758
 109910816.892 8  85644875.02346  20915321.547                    20915327.586
 123957851.339 6  96590578.55443  23588387.742                    23588397.770
 116995544.514 8  91165431.196 7  22263507.789
 113414944.832 7  88375204.03745  21582100.836                    21582108.820
 11  7 25  1 16 30.0000000  0  9G12G05G04G27G09G02G28G17G10
 119711405.573 7  93281780.843 7  22780344.125
 126378375.622 7  98476702.964 6  24048989.773
 107045316.302 8  83412100.01046  20370047.078                    20370055.219
 120220959.846 6  93678746.58844  22877294.711                    22877304.215
 118047176.224 7  91984856.65445  22463629.664                    22463638.078
 109874522.183 8  85616593.46046  20908414.898                    20908420.969
 124051221.471 6  96663334.54343  23606156.133                    23606165.195
 117038605.732 7  91198985.378 7  22271701.766
 113352036.606 7  88326184.68645  21570129.180                    21570138.176
 11  7 25  1 17  0.0000000  0  9G12G05G04G27G09G02G28G17G10
 119622713.499 7  93212670.165 6  22763467.180
 126272016.419 7  98393825.850 6  24028749.750
 107094072.022 8  83450091.47546  20379324.828                    20379333.250
 120266289.138 6  93714068.03444  22885920.727                    22885930.262
 118095914.123 7  92022834.25545  22472904.148                    22472912.492
 109838596.312 8  85588599.29946  20901578.297                    20901584.398
 124144851.476 6  96736292.92843  23623972.938                    23623982.316
 117081773.674 7  91232622.709 7  22279916.563
 113289577.032 7  88277514.95845  21558243.414                    21558252.297
 11  7 25  1 17 30.0000000  0  9G12G05G04G27G09G02G28G17G10
 119534217.557 7  93143712.290 7  22746626.891
 126165655.424 7  98310947.294 6  24008510.148
 107143211.733 8  83488382.14846  20388675.844                    20388684.496
 120311945.372 6  93749644.27744  22894608.539                    22894618.879
 118145133.282 7  92061186.88444  22482270.031                    22482277.820
 109803039.158 8  85560892.45446  20894812.219                    20894818.273
 124238739.670 6  96809452.56543  23641839.922                    23641848.754
 117125049.009 7  91266343.716 7  22288151.695
 113227569.417 7  88229197.38145  21546444.023                    21546451.738
 11  7 25  1 18  0.0000000  0  9G12G05G04G27G09G02G28G17G10
 119445920.443 7  93074909.402 6  22729824.422
 126059295.127 6  98228069.309 6  23988269.531
 107192733.448 8  83526970.49046  20398099.703                    20398107.563
 120357926.416 6  93785473.60944  22903358.758                    22903368.984
 118194831.362 7  92099912.65444  22491726.609                    22491735.984
 109767850.852 8  85533473.02746  20888115.930                    20888122.184
 124332884.805 6  96882812.39843  23659755.164                    23659764.129
 117168431.969 7  91300148.613 7  22296406.945
 113166016.428 7  88181234.05045  21534730.734                    21534738.340
 11  7 25  1 18 30.0000000  0  9G12G05G04G27G09G02G28G17G10
 119357824.586 7  93006263.308 7  22713060.406
 125952938.403 6  98145194.176 6  23968030.016
 107242635.164 8  83565854.95246  20407595.563                    20407603.496
 120404230.047 6  93821554.32044  22912169.711                    22912179.234
 118245005.675 7  92139009.53044  22501274.664                    22501283.453
 109733031.155 8  85506340.81946  20881489.844                    20881496.086
 124427284.993 6  96956371.01143  23677718.555                    23677727.523
 117211923.473 7  91334038.092 7  22304682.953
 113104921.307 7  88133627.49945  21523104.648                    21523113.527
 11  7 25  1 19  0.0000000  0  9G12G05G04G27G09G02G28G17G10
 119269932.419 7  92937775.963 7  22696334.328
 125846587.829 7  98062323.799 6  23947792.352
 107292914.281 8  83605033.48346  20417163.469                    20417171.570
 120450853.776 7  93857884.43144  22921042.367                    22921051.633
 118295653.178 7  92178475.10045  22510913.070                    22510922.270
 109698579.696 8  85479495.55046  20874934.258                    20874939.906
 124521938.658 6  97030127.09543  23695730.594                    23695739.680
 117255523.356 7  91368012.014 7  22312979.891
 113044286.718 7  88086379.81645  21511565.984                    21511574.992
 11  7 25  1 19 30.0000000  0  9G12G05G04G27G09G02G28G17G10
 119182246.286 7  92869449.110 7  22679648.750
 125740246.460 7  97979460.511 6  23927556.117
 107343568.162 8  83644504.04746  20426802.430                    20426810.324
 120497795.099 7  93894462.01944  22929975.508                    22929984.848
 118346770.999 7  92218307.14545  22520641.102                    22520650.035
 109664496.116 8  85452936.94046  20868448.141                    20868454.082
 124616844.024 6  97104079.29744  23713790.008                    23713800.105
 117299232.151 7  91402070.806 7  22321297.563
 112984115.038 7  88039492.84245  21500115.625                    21500124.316
 11  7 25  1 20  0.0000000  0  9G12G05G04G27G09G02G28G17G10
 119094769.036 7  92801285.057 7  22663001.844
 125633917.029 6  97896606.562 6  23907322.828
 107394594.943 8  83684265.18546  20436512.617                    20436520.586
 120545051.737 7  93931285.30744  22938967.922                    22938977.586
 118398356.422 7  92258503.55045  22530456.695                    22530466.816
 109630780.357 8  85426664.95046  20862031.891                    20862038.285
 124711999.02516  97178226.00753  23731898.383                    23731907.160
 117343050.343 7  91436214.841 7  22329636.164
 112924409.376 7  87992968.97645  21488754.008                    21488763.039
 11  7 25  1 20 30.0000000  0  9G12G05G04G27G09G02G28G17G10
 119007502.885 7  92733285.474 6  22646395.273
 125527602.255 7  97813764.039 6  23887092.047
 107445991.955 8  83724314.79246  20446293.453                    20446301.148
 120592621.128 7  93968352.32044  22948019.250                    22948029.191
 118450406.229 7  92299061.82045  22540362.148                    22540371.375
 109597431.858 8  85400679.13546  20855686.305                    20855691.961
 124807401.763 6  97252565.74443  23750052.680                    23750062.230
 117386978.337 7  91470444.428 7  22337995.398
 112865172.107 7  87946810.11245  21477481.828                    21477490.242
 11  7 25  1 21  0.0000000  0  9G12G05G04G27G09G02G28G17G10
 118920450.300 7  92665452.305 7  22629830.406
 125421304.703 7  97730934.908 6  23866863.789
 107497757.009 8  83764651.20846  20456143.602                    20456151.965
 120640501.259 7  94005661.44344  22957131.625                    22957140.820
 118502917.745 7  92339979.88344  22550354.320                    22550363.617
 109564450.535 8  85374979.43746  20849410.141                    20849415.906
 124903050.719 6  97327097.34043  23768253.641                    23768263.258
 117431016.862 7  91504760.139 7  22346375.859
 112806406.416 7  87901018.70245  21466299.094                    21466307.527
 11  7 25  1 21 30.0000000  0  9G12G05G04G27G09G02G28G17G10
 118833613.967 7  92597787.676 7  22613306.422
 125315027.588 7  97648121.695 6  23846640.367
 107549887.806 8  83805272.60946  20466063.695                    20466072.199
 120688689.608 7  94043210.74344  22966301.297                    22966311.266
 118555888.254 7  92381255.57045  22560434.117                    22560443.523
 109531836.394 8  85349565.84946  20843203.695                    20843209.629
 124998944.375 6  97401819.60343  23786501.813                    23786511.473
 117475166.052 7  91539162.121 7  22354777.164
 112748115.119 7  87855596.97045  21455206.203                    21455214.383
 11  7 25  1 22  0.0000000  0  9G12G05G04G27G09G02G28G17G10
 118746996.611 7  92530293.642 7  22596823.430
 125208773.734 7  97565326.632 6  23826420.063
 107602382.154 8  83846177.30446  20476053.133                    20476061.145
 120737183.623 6  94080998.21644  22975528.742                    22975539.465
 118609314.352 7  92422886.25745  22570601.023                    22570610.227
 109499589.248 8  85324438.23046  20837067.203                    20837072.840
 125095080.823 6  97476731.05844  23804796.305                    23804805.176
 117519426.614 7  91573650.886 7  22363199.055
 112690300.683 7  87810546.81345  21444204.852                    21444213.117
 11  7 25  1 22 30.0000000  0  9G12G05G04G27G09G02G28G17G10
 118660600.306 7  92462971.868 7  22580382.656
 125102545.899 7  97482551.811 6  23806205.594
 107655237.690 8  83887363.43846  20486111.313                    20486119.840
 120785980.916 6  94119022.00844  22984815.039                    22984825.172
 118663193.295 7  92464869.82745  22580853.984                    22580862.832
 109467708.469 8  85299596.08246  20831000.781                    20831006.695
 125191458.546 6  97551830.52343  23823136.500                    23823145.422
 117563798.851 7  91608226.645 7  22371643.367
 112632965.595 7  87765870.15545  21433294.125                    21433302.410
 11  7 25  1 23  0.0000000  0  9G12G05G04G27G09G02G28G17G10
 118574427.825 7  92395824.519 7  22563984.586
 124996346.845 7  97399799.411 6  23785996.742
 107708452.102 8  83928829.21946  20496237.547                    20496246.020
 120835079.200 6  94157280.33444  22994158.664                    22994168.285
 118717522.464 7  92507204.19945  22591192.188                    22591201.684
 109436193.756 8  85275039.18446  20825003.633                    20825009.145
 125288075.342 7  97627116.28543  23841521.594                    23841530.328
 117608283.319 8  91642889.884 7  22380108.234
 112576113.316 7  87721569.72745  21422475.289                    21422483.801
 11  7 25  1 23 30.0000000  0  9G12G05G04G27G09G02G28G17G10
 118488481.629 7  92328853.455 7  22547629.250
 124890179.408 6  97317071.673 6  23765793.266
 107762023.115 8  83970572.87246  20506431.539                    20506439.891
 120884475.756 7  94195771.10744  23003558.094                    23003567.898
 118772298.762 7  92549886.99444  22601615.883                    22601625.332
 109405044.734 8  85250767.25846  20819075.852                    20819082.113
 125384929.347 6  97702586.86943  23859953.000                    23859960.805
 117652880.351 7  91677640.820 7  22388595.031
 112519745.914 7  87677647.11345  21411749.469                    21411757.734
 11  7 25  1 24  0.0000000  0  9G12G05G04G27G09G02G28G17G10
 118402764.299 7  92262060.762 7  22531317.805
 124784046.442 7  97234370.750 6  23745596.508
 107815948.376 8  84012592.55546  20516693.492                    20516701.473
 120934168.155 7  94234492.39244  23013014.320                    23013024.184
 118827519.370 7  92592916.01144  22612124.242                    22612133.602
 109374261.234 8  85226780.13546  20813218.023                    20813224.176
 125482018.746 7  97778240.90343  23878428.820                    23878437.078
 117697590.518 7  91712479.910 7  22397103.148
 112463865.979 7  87634104.37145  21401115.328                    21401123.781
 11  7 25  1 24 30.0000000  0  9G12G05G04G27G09G02G28G17G10
 118317278.387 7  92195448.371 7  22515050.242
 124677950.679 7  97151698.895 6  23725407.305
 107870225.435 8  84054886.36946  20527021.945                    20527030.371
 120984154.003 7  94273442.35844  23022526.680                    23022536.313
 118883181.161 7  92636288.79044  22622716.063                    22622724.883
 109343843.041 8  85203077.66146  20807429.633                    20807435.531
 125579341.956 6  97854077.09843  23896948.430                    23896957.688
 117742414.327 7  91747407.510 7  22405632.484
 112408476.321 8  87590943.63545  21390574.938                    21390583.262
 11  7 25  1 25  0.0000000  0  9G12G05G04G27G09G02G28G17G10
 118232026.277 7  92129018.160 7  22498827.555
 124571894.977 7  97069058.260 6  23705224.805
 107924851.945 8  84097452.47546  20537417.234                    20537425.449
 121034430.730 7  94312618.95444  23032093.945                    23032104.113
 118939280.764 7  92680002.72945  22633391.320                    22633400.609
 109313789.587 8  85179659.40946  20801710.375                    20801716.602
 125676897.030 6  97930094.01043  23915513.047                    23915521.496
 117787352.230 7  91782424.040 7  22414183.820
 112353579.067 7  87548166.60345  21380128.164                    21380136.996
 11  7 25  1 25 30.0000000  0  9G12G05G04G27G09G02G28G17G10
 118147010.576 7  92062772.200 7  22482649.641
 124465882.432 7  96986451.225 6  23685052.180
 107979825.896 8  84140289.31646  20547878.289                    20547886.336
 121084996.110 7  94352020.45244  23041716.211                    23041725.973
 118995815.810 7  92724055.96145  22644150.266                    22644159.543
 109284100.773 8  85156525.28846  20796060.922                    20796066.742
 125774682.472 6  98006290.37643  23934120.617                    23934129.707
 117832404.838 7  91817529.972 7  22422756.969
 112299177.367 8  87505775.71445  21369776.305                    21369784.598
 11  7 25  1 26  0.0000000  0  9G12G05G04G27G09G02G28G17G10
 118062233.839 7  91996712.418 7  22466516.539
 124359915.812 7  96903879.973 6  23664887.148
 108035144.830 8  84183394.98146  20558405.109                    20558413.188
 121135847.594 7  94391644.96544  23051392.586                    23051402.973
 119052783.104 6  92768446.00445  22654990.281                    22654999.449
 109254776.051 8  85133674.87146  20790480.789                    20790486.492
 125872696.228 6  98082664.68543  23952772.031                    23952781.215
 117877572.339 7  91852725.414 7  22431352.031
 112245273.579 8  87463772.80845  21359518.531                    21359527.547
 11  7 25  1 26 30.0000000  0  9G12G05G04G27G09G02G28G17G10
 117977698.492 7  91930840.767 7  22450430.570
 124253997.636 7  96821346.461 7  23644731.398
 108090805.978 8  84226767.30346  20568997.078                    20569005.332
 121186982.396 7  94431490.17544  23061123.617                    23061132.711
 119110179.250 6  92813170.23345  22665912.641                    22665921.855
 109225814.629 8  85111107.54846  20784969.547                    20784975.438
 125970935.972 6  98159215.10943  23971466.336                    23971475.883
 117922855.242 7  91888010.787 7  22439969.461
 112191869.893 8  87422159.60445  21349355.945                    21349364.109
 11  7 25  1 27  0.0000000  0  9G12G05G04G27G09G02G28G17G10
 117893407.487 7  91865159.530 7  22434390.352
 124148131.336 7  96738853.386 6  23624585.453
 108146807.456 8  84270404.81546  20579653.547                    20579662.180
 121238398.208 7  94471554.41444  23070908.531                    23070917.168
 119168001.403 6  92858226.40745  22676915.477                    22676925.527
 109197216.793 8  85088823.54246  20779527.383                    20779533.359
 126069400.270 6  98235940.47243  23990202.898                    23990213.328
 117968254.220 7  91923386.587 7  22448608.680
 112138969.660 8  87380938.67645  21339289.398                    21339298.402
 11  7 25  1 27 30.0000000  0  9G12G05G04G27G09G02G28G17G10
 117809363.258 7  91799670.564 7  22418397.805
 124042319.653 7  96656402.837 6  23604450.117
 108203147.047 8  84314305.79546  20590374.961                    20590383.234
 121290092.642 7  94511835.73644  23080745.289                    23080755.094
 119226246.619 6  92903612.21244  22687999.695                    22688009.270
 109168982.207 8  85066822.59246  20774154.563                    20774160.180
 126168087.406 6  98312839.50843  24008983.336                    24008992.500
 118013769.899 7  91958853.330 7  22457269.836
 112086575.117 8  87340111.81045  21329319.570                    21329327.820
 11  7 25  1 28  0.0000000  0  9G12G05G04G27G09G02G28G17G10
 117725568.224 7  91734375.754 7  22402452.047
 123936565.257 7  96573996.955 6  23584326.086
 108259822.206 8  84358468.25346  20601159.859                    20601167.895
 121342063.090 7  94552332.13944  23090634.773                    23090644.938
 119284911.832 6  92949325.31444  22699163.031                    22699173.629
 109141110.041 8  85045104.03446  20768850.820                    20768856.473
 126266995.045 6  98389910.38843  24027804.281                    24027813.656
 118059402.496 7  91994411.181 7  22465953.609
 112034688.650 8  87299680.84745  21319445.711                    21319453.348
 11  7 25  1 28 30.0000000  0  9G12G05G04G27G09G02G28G17G10
 117642024.978 7  91669277.152 7  22386553.813
 123830871.110 7  96491637.998 6  23564213.375
 108316830.561 8  84402890.34246  20612008.156                    20612016.438
 121394307.021 7  94593041.62544  23100576.352                    23100586.285
 119343993.677 7  92995363.06944  22710405.617                    22710415.516
 109113599.929 8  85023667.60146  20763615.742                    20763621.594
 126366121.681 6  98467151.90343  24046667.789                    24046677.145
 118105152.418 7  92030060.453 7  22474659.367
 111983312.654 7  87259647.63345  21309669.273                    21309676.688
 11  7 25  1 29  0.0000000  0  9G12G05G04G27G09G02G28G17G10
 117558735.656 7  91604376.431 7  22370704.445
 123725239.946 7  96409328.097 6  23544111.508
 108374169.600 8  84447570.10546  20622919.617                    20622928.000
 121446821.376 7  94633961.84844  23110569.180                    23110578.945
 119403489.118 6  93041723.10844  22721728.203                    22721737.098
 109086451.138 8  85002512.71446  20758449.836                    20758455.359
 126465465.031 6  98544562.28442  24065571.617                    24065581.730
 118151020.476 7  92065801.772 7  22483387.438
 111932449.534 8  87220014.08045  21299989.828                    21299998.656
 11  7 25  1 29 30.0000000  0  9G12G05G04G27G09G02G28G17G10
 117475703.424 7  91539676.073 7  22354903.750
 123619675.069 7  96327069.870 6  23524023.180
 108431837.419 8  84492506.07746  20633893.438                    20633901.848
 121499604.405 7  94675091.38144  23120614.281                    23120623.859
 119463395.488 7  93088403.36644  22733127.406                    22733136.473
 109059663.805 8  84981639.48846  20753352.008                    20753358.078
 126565023.782 6  98622140.56542  24084517.594                    24084526.430
 118197006.796 7  92101635.255 7  22492139.047
 111882102.108 7  87180782.36646  21290409.367                    21290418.000
 11  7 25  1 30  0.0000000  0  9G12G05G04G27G09G02G28G17G10
 117392930.704 7  91475177.889 7  22339153.047
 123514178.917 7  96244865.210 6  23503948.227
 108489831.219 8  84537696.06546  20644928.711                    20644937.047
 121552652.997 7  94716427.91044  23130708.719                    23130718.898
 119523709.215 6  93135401.04044  22744604.617                    22744613.707
 109033237.093 8  84961047.27946  20748323.289                    20748328.734
 126664795.493 6  98699884.78642  24103503.570                    24103512.473
 118243112.005 7  92137561.350 7  22500912.383
 111832272.524 8  87141954.16445  21280927.078                    21280935.227
 11  7 25  1 30 30.0000000  0  9G12G05G04G27G09G02G28G17G10
 117310419.857 7  91410883.788 7  22323451.203
 123408754.734 7  96162716.586 6  23483886.211
 108548148.926 8  84583138.43746  20656026.313                    20656034.484
 121605964.684 7  94757969.43244  23140853.914                    23140863.992
 119584427.617 7  93182714.03244  22756158.992                    22756168.422
 109007170.684 8  84940735.79846  20743362.711                    20743368.820
 126764778.366 6  98777793.52842  24122530.086                    24122539.316
 118289336.837 7  92173580.674 6  22509708.414
 111782963.206 8  87103531.36845  21271543.578                    21271551.734
 11  7 25  1 31  0.0000000  0  9G12G05G04G27G09G02G28G17G10
 117228173.321 7  91346795.605 7  22307800.586
 123303404.978 6  96080626.030 6  23463838.586
 108606787.882 8  84628831.12246  20667185.281                    20667193.461
 121659536.827 7  94799713.91744  23151048.016                    23151057.859
 119645546.969 7  93230339.43844  22767789.922                    22767799.605
 108981463.754 8  84920704.44646  20738470.633                    20738476.852
 126864970.371 6  98855865.21542  24141595.219                    24141604.887
 118335681.372 7  92209693.292 6  22518527.336
 111734176.344 8  87065515.64545  21262259.883                    21262268.051
 11  7 25  1 31 30.0000000  0  9G12G05G04G27G09G02G28G17G10
 117146194.207 7  91282915.837 7  22292200.391
 123198133.055 7  95998596.103 6  23443805.633
 108665746.245 8  84674772.71546  20678404.719                    20678412.730
 121713367.427 7  94841659.81644  23161291.750                    23161301.242
 119707064.479 7  93278275.11644  22779496.602                    22779505.902
 108956116.650 8  84900953.48146  20733647.820                    20733653.609
 126965369.999 6  98934098.67043  24160700.758                    24160710.441
 118382146.637 7  92245900.009 7  22527369.469
 111685914.962 7  87027909.42845  21253075.672                    21253083.906
 11  7 25  1 32  0.0000000  0  9G12G05G04G27G09G02G28G17G10
 117064484.846 7  91219246.228 7  22276651.367
 123092941.854 7  95916629.060 6  23423788.914
 108725021.571 8  84720961.28946  20689684.289                    20689692.180
 121767453.455 7  94883804.73844  23171583.969                    23171593.996
 119768976.946 6  93326518.57244  22791277.461                    22791287.367
 108931128.472 8  84881482.20646  20728892.617                    20728898.070
 127065975.109 6  99012492.23842  24179844.742                    24179855.098
 118428733.154 7  92282201.187 7  22536234.422
 111638181.211 8  86990714.34246  21243992.523                    21244000.629
 11  7 25  1 32 30.0000000  0  9G12G05G04G27G09G02G28G17G10
 116983047.558 7  91155788.635 7  22261154.680
 122987834.187 7  95834727.107 6  23403787.047
 108784611.409 8  84767394.94146  20701023.633                    20701032.027
 121821792.424 7  94926146.73944  23181924.180                    23181934.676
 119831281.160 7  93375067.22044  22803134.266                    22803143.387
 108906498.535 8  84862290.06046  20724205.430                    20724211.176
 127166783.732 6  99091044.37642  24199028.547                    24199038.465
 118475440.889 7  92318596.806 7  22545122.984
 111590977.250 8  86953932.07246  21235009.609                    21235018.344
 11  7 25  1 33  0.0000000  0  9G12G05G04G27G09G02G28G17G10
 116901884.991 7  91092545.102 7  22245709.664
 122882812.739 7  95752892.349 6  23383802.141
 108844513.237 8  84814071.68146  20712422.570                    20712431.320
 121876381.574 7  94968683.69144  23192312.820                    23192322.523
 119893973.707 7  93423918.54544  22815064.539                    22815073.191
 108882226.289 8  84843376.64446  20719586.523                    20719592.484
 127267793.763 6  99169753.46442  24218250.664                    24218260.277
 118522270.783 7  92355087.643 7  22554034.422
 111544304.893 8  86917564.04445  21226128.125                    21226136.305
 11  7 25  1 33 30.0000000  0  9G12G05G04G27G09G02G28G17G10
 116820999.905 7  91029517.797 7  22230317.367
 122777880.461 7  95671127.054 6  23363834.539
 108904724.523 7  84860989.55046  20723880.555                    20723889.316
 121931218.241 7  95011413.50644  23202747.031                    23202757.328
 119957051.494 7  93473070.03544  22827067.547                    22827077.414
 108858310.879 8  84824741.29146  20715035.516                    20715041.613
 127369003.132 6  99248617.85942  24237510.211                    24237519.477
 118569222.537 7  92391673.437 7  22562969.180
 111498166.836 8  86881612.35445  21217348.344                    21217356.281
 11  7 25  1 34  0.0000000  0  9G12G05G04G27G09G02G28G17G10
 116740394.925 7  90966708.800 7  22214978.945
 122673040.781 7  95589433.966 6  23343883.484
 108965243.898 8  84908147.51246  20735396.938                    20735405.375
 121986300.351 7  95054334.58044  23213229.328                    23213239.926
 120020511.899 7  93522519.64444  22839143.578                    22839153.492
 108834752.690 8  84806384.29746  20710552.672                    20710558.215
 127470410.164 6  99327636.31842  24256806.969                    24256816.832
 118616297.734 7  92428355.385 7  22571927.219
 111452565.835 8  86846079.13845  21208670.828                    21208678.898
 11  7 25  1 34 30.0000000  0  9G12G05G04G27G09G02G28G17G10
 116660072.570 7  90904119.980 7  22199694.039
 122568296.406 7  95507815.132 7  23323951.141
 109026068.439 7  84955543.25046  20746971.633                    20746979.461
 122041625.147 7  95097444.75144  23223757.719                    23223767.859
 120084351.328 7  93572264.58344  22851291.953                    22851301.543
 108811551.119 8  84788305.17946  20706137.805                    20706143.477
 127572013.103 5  99406807.40142  24276141.242                    24276151.641
 118663496.763 7  92465133.840 7  22580908.742
 111407504.022 8  86810966.08246  21200095.938                    21200104.430
 11  7 25  1 35  0.0000000  0  9G12G05G04G27G09G02G28G17G10
 116580035.430 7  90841753.376 7  22184464.094
 122463650.118 7  95426272.717 6  23304037.555
 109087195.430 7  85003174.64846  20758603.688                    20758611.883
 122097189.497 7  95140741.59044  23234331.102                    23234341.012
 120148566.196 7  93622302.07644  22863511.391                    22863521.402
 108788704.802 8  84770502.87846  20701790.086                    20701795.398
 127673809.332 5  99486129.15142  24295512.344                    24295523.109
 118710819.587 7  92502008.790 7  22589913.523
 111362983.088 8  86776274.48346  21191623.477                    21191632.086
 11  7 25  1 35 30.0000000  0  9G12G05G04G27G09G02G28G17G10
 116500285.624 7  90779610.703 7  22169287.836
 122359104.781 7  95344808.971 6  23284143.055
 109148622.891 8  85051040.17746  20770292.859                    20770301.109
 122152990.960 7  95184223.23744  23244949.570                    23244959.973
 120213153.792 6  93672630.02144  22875802.086                    22875812.191
 108766213.463 8  84752977.18646  20697510.133                    20697515.781
 127775797.136 5  99565600.17142  24314919.859                    24314930.703
 118758267.145 7  92538980.923 6  22598942.531
 111319005.512 8  86742006.27646  21183255.352                    21183263.289
 11  7 25  1 36  0.0000000  0  9G12G05G04G27G09G02G28G17G10
 116420826.020 8  90717694.150 7  22154166.742
 122254662.996 7  95263425.941 6  23264268.117
 109210348.419 8  85099137.98046  20782038.898                    20782047.094
 122209026.798 7  95227887.51044  23255612.680                    23255623.320
 120278110.392 7  93723245.48944  22888163.375                    22888173.262
 108744076.346 8  84735727.51546  20693297.594                    20693303.230
 127877974.619 5  99645218.93242  24334363.742                    24334373.742
 118805839.418 7  92576050.231 7  22607995.305
 111275573.035 8  86708162.82745  21174989.992                    21174998.055
 11  7 25  1 36 30.0000000  0  9G12G05G04G27G09G02G28G17G10
 116341659.602 7  90656006.066 7  22139101.859
 122150328.578 7  95182126.499 6  23244414.570
 109272369.975 8  85147466.44246  20793841.484                    20793849.051
 122265294.847 7  95271732.68644  23266320.719                    23266330.891
 120343433.216 6  93774146.35544  22900593.000                    22900603.012
 108722293.598 8  84718753.96946  20689152.227                    20689158.070
 127980340.165 5                  24353843.438
 118853537.572 7  92613217.642 7  22617072.266
 111232688.477 8  86674746.31646  21166829.617                    21166837.527
 11  7 25  1 37  0.0000000  0  9G12G05G04G27G09G02G28G17G10
 116262788.400 7  90594548.015 7  22124093.430
 122046104.119 7  95100912.770 6  23224580.719
 109334684.949 8  85196023.53746  20805699.313                    20805707.465
 122321791.975 7  95315756.35644  23277071.625                    23277082.008
 120409118.864 7  93825329.91744  22913093.141                    22913102.602
 108700863.939 8  84702055.56346  20685074.508                    20685080.090
 128082891.003 5                  24373357.391
 118901361.817 7  92650483.305 6  22626173.102
 111190353.325 8  86641757.93746  21158773.641                    21158781.555
 11  7 25  1 37 30.0000000  0  9G12G05G04G27G09G02G28G17G10
 116184215.201 7  90533322.181 7  22109141.148
 121941992.184 7  95019786.741 6  23204769.031
 109397290.789 8  85244807.29846  20817612.695                    20817621.023
 122378515.592 7  95359956.53744  23287865.406                    23287875.547
 120475163.973 7  93876793.60044  22925661.313                    22925670.922
 108679786.621 8  84685631.70646  20681063.359                    20681069.223
 128185625.33814                  24392904.984
 118949312.615 7  92687847.544 7  22635297.734
 111148569.869 8  86609199.45245  21150822.172                    21150830.586
 11  7 25  1 38  0.0000000  0  9G12G05G04G27G09G02G28G17G10
 116105942.930 7  90472330.828 7  22094246.328
 121837996.419 7  94938751.210 6  23184979.055
 109460186.078 7  85293816.59446  20829581.633                    20829589.469
 122435463.669 7  95404331.59844  23298702.539                    23298713.191
 120541565.905 6  93928535.33044  22938297.188                    22938306.512
 108659062.135 8  84669482.78546  20677119.672                    20677125.566
 128288541.77914                  24412488.578
 118997390.925 7  92725311.174 6  22644446.219
 111107341.155 8  86577073.20646  21142976.719                    21142984.770
 11  7 25  1 38 30.0000000  0  8G12G05G04G27G09G02G17G10
 116027974.059 7  90411575.920 7  22079409.703
 121734119.727 7  94857808.465 6  23165212.484
 109523368.121 7  85343049.32446  20841604.773                    20841612.223
 122492633.252 6  95448879.26344  23309581.406                    23309592.145
 120608321.069 6  93980552.30044  22950999.781                    22951010.262
 108638689.395 8  84653607.95246  20673242.789                    20673248.848
 119045597.168 7  92762874.452 7  22653620.281
 111066668.893 8  86545380.55945  21135237.219                    21135244.672
 11  7 25  1 39  0.0000000  0  8G12G05G04G27G09G02G17G10
 115950310.746 7  90351059.088 7  22064630.617
 121630364.412 7  94776960.243 6  23145467.883
 109586833.908 8  85392503.19346  20853681.648                    20853689.699
 122550021.115 7  95493597.02544  23320502.664                    23320511.977
 120675425.458 7  94032841.38144  22963769.703                    22963779.414
 108618667.045 8  84638006.13146  20669432.766                    20669438.281
 119093931.372 7  92800537.468 7  22662818.242
 111026554.460 8  86514122.60846  21127603.445                    21127611.941
 11  7 25  1 39 30.0000000  0  8G12G05G04G27G09G02G17G10
 115872955.159 7  90290782.060 7  22049910.203
 121526733.402 7  94696208.942 6  23125747.734
 109650580.935 7  85442176.18946  20865812.133                    20865820.512
 122607624.395 6  95538482.64644  23331463.664                    23331473.902
 120742875.573 6  94085399.90244  22976604.844                    22976614.699
 108598994.025 7  84622676.52246  20665689.094                    20665694.723
 119142393.804 7  92838300.395 7  22672039.680
 110986999.479 8  86483300.57446  21120076.039                    21120084.473
 11  7 25  1 40  0.0000000  0  8G12G05G04G27G09G02G17G10
 115795910.760 7  90230747.523 7  22035249.367
 121423230.393 7  94615557.357 7  23106051.625
 109714607.890 8  85492067.31446  20877996.172                    20878004.723
 122665441.322 6  95583534.72544  23342466.070                    23342476.234
 120810669.114 6  94138225.98744  22989505.734                    22989515.242
 108579671.171 8  84607619.78146  20662011.977                    20662017.668
 119190985.866 7  92876164.301 7  22681286.727
 110948007.057 8  86452916.90046  21112656.273                    21112664.289
 11  7 25  1 40 30.0000000  0  9G12G05G25G04G27G09G02G17G10
 115719179.885 7  90170957.283 7  22020648.063
 121319857.962 7  94535007.554 7  23086380.141
 131888235.76315 102770147.82814  25097503.945
 109778912.153 8  85542174.52346  20890233.305                    20890241.914
 122723468.824 7  95628750.85844  23353508.766                    23353518.617
 120878802.234 7  94191316.69044  23002471.281                    23002480.824
 108560697.211 8  84592834.90146  20658401.445                    20658407.242
 119239707.766 7  92914129.404 7  22690558.445
 110909578.807 8  86422972.84546  21105343.961                    21105351.809
 11  7 25  1 41  0.0000000  0  9G12G05G25G04G27G09G02G17G10
 115642765.055 8  90111413.299 7  22006106.680
 121216619.314 7  94454561.972 7  23066734.492
 131783117.244 5 102688237.393 4  25077500.594
 109843491.183 8  85592495.83846  20902522.039                    20902530.223
 122781704.025 6  95674128.87244  23364590.727                    23364599.988
 120947271.739 6  94244669.52444  23015500.828                    23015510.398
 108542071.368 8  84578321.26546  20654857.055                    20654862.223
 119288559.683 7  92952195.825 7  22699854.266
 110871716.543 8  86393469.79546  21098138.391                    21098147.000
 11  7 25  1 41 30.0000000  0  9G12G05G25G04G27G09G02G17G10
 115566669.033 7  90052117.730 7  21991625.703
 121113517.245 7  94374222.810 7  23047114.359
 131678054.716 5 102606370.594 4  25057507.766
 109908343.052 7  85643029.75446  20914862.984                    20914871.605
 122840144.601 7  95719666.92344  23375711.148                    23375721.492
 121016074.407 7  94298281.93444  23028593.539                    23028603.844
 108523793.446 8  84564078.74746  20651378.734                    20651384.230
 119337542.638 7  92990364.335 6  22709175.516
 110834422.158 8  86364409.26646  21091041.813                    21091049.809
 11  7 25  1 42  0.0000000  0  9G12G05G25G04G27G09G02G17G10
 115490893.728 7  89993072.069 7  21977206.297
 121010554.170 7  94293991.983 6  23027521.375
 131573049.611 5 102524548.528 5  25037525.469
 109973464.484 8  85693773.72746  20927255.133                    20927263.453
 122898787.281 7  95765362.41944  23386870.594                    23386881.074
 121085206.633 6  94352151.14244  23041748.844                    23041758.914
 108505861.587 8  84550105.88546  20647966.320                    20647972.570
 119386656.634 7  93028634.915 7  22718520.930
 110797697.376 8  86335792.59346  21084052.992                    21084060.781
 11  7 25  1 42 30.0000000  0  9G12G05G25G04G27G09G02G17G10
 115415442.177 7  89934278.702 7  21962848.117
 120907733.846 7  94213872.375 7  23007954.953
 131468104.879 5 102442773.475 5  25017555.648
 110038854.186 8  85744726.73646  20939699.000                    20939706.152
 122957629.910 7  95811213.72744  23398068.063                    23398078.363
 121154665.292 7  94406274.77744  23054966.672                    23054976.395
 108488275.942 8  84536402.80146  20644620.281                    20644625.945
 119435902.599 7  93067008.385 7  22727892.430
 110761544.380 8  86307621.46446  21077173.609                    21077181.039
 11  7 25  1 43  0.0000000  0  9G12G05G25G04G27G09G02G17G10
 115340316.594 7  89875739.324 7  21948552.563
 120805058.665 7  94133865.855 6  22988416.516
 131363222.258 5 102361046.813 5  24997597.484
 110104509.349 7  85795886.60746  20952192.203                    20952199.684
 123016669.334 7  95857218.38244  23409302.875                    23409313.137
 121224446.952 7  94460650.04344  23068245.328                    23068255.742
 108471035.172 8  84522968.45846  20641339.281                    20641344.754
 119485280.635 7  93105484.759 6  22737289.375
 110725964.904 8  86279897.22946  21070402.563                    21070410.695
 11  7 25  1 43 30.0000000  0  9G12G05G25G04G27G09G02G17G10
 115265519.977 7  89817456.289 7  21934318.977
 120702532.147 7  94053975.192 6  22968906.547
 131258404.664 5 102279370.833 5  24977650.523
 110170428.021 8  85847251.78446  20964736.445                    20964743.949
 123075903.295 7  95903374.62444  23420574.898                    23420585.367
 121294548.744 6  94515274.76344  23081585.227                    23081594.766
 108454139.541 8  84509803.05046  20638123.969                    20638129.426
 119534791.813 7  93144064.873 6  22746710.820
 110690961.101 8  86252621.57746  21063741.719                    21063749.941
 11  7 25  1 44  0.0000000  0  9G12G05G25G04G27G09G02G17G10
 115191054.457 7  89759431.270 7  21920149.055
 120600156.591 7  93974202.117 6  22949425.430
 131153653.982 5 102197746.980 6  24957717.016
 110236607.223 8  85898819.98546  20977329.664                    20977337.961
 123135328.749 6  95949680.10344  23431883.633                    23431893.484
 121364966.499 7  94570145.71444  23094984.969                    23094994.566
 108437587.603 8  84496905.45646  20634974.523                    20634979.719
 119584436.251 7  93182748.821 7  22756158.047
 110656534.197 8  86225795.44346  21057190.680                    21057198.785
 11  7 25  1 44 30.0000000  0  9G12G05G25G04G27G09G02G17G10
 115116923.096 7  89701666.611 7  21906042.023
 120497935.519 7  93894549.457 7  22929973.320
 131048972.84616 102116177.29116  24937797.688
 110303045.436 8  85950590.01646  20989972.305                    20989980.832
 123194943.131 6  95996132.79744  23443227.070                    23443238.191
 121435697.506 7  94625260.73844  23108445.047                    23108455.605
 108421378.883 8  84484275.30146  20631890.125                    20631895.793
 119634214.669 7  93221537.193 6  22765630.508
 110622686.441 8  86199420.60846  21050749.898                    21050757.480
 11  7 25  1 45  0.0000000  0  9G12G05G25G04G27G09G02G17G10
 115043127.869 7  89644163.871 7  21891998.984
 120395871.884 7  93815019.451 6  22910550.875
 130944363.446 6 102034663.500 6  24917891.219
 110369740.119 8  86002559.88546  21002663.727                    21002672.242
 123254743.686 7  96042730.55844  23454607.445                    23454617.918
 121506738.403 7  94680617.20744  23121964.156                    23121973.625
 108405512.704 8  84471912.06446  20628870.336                    20628876.426
 119684127.701 7  93260430.455 7  22775128.711
 110589419.308 8  86173498.21546  21044418.727                    21044426.750
 11  7 25  1 45 30.0000000  0  9G12G05G25G04G27G09G02G17G10
 114969671.780 7  89586925.378 7  21878021.125
 120293968.290 7  93735614.171 6  22891159.016
 130839828.008 6 101953207.347 6  24897997.922
 110436688.629 8  86054727.55446  21015403.859                    21015412.672
 123314727.471 7  96089471.09144  23466021.859                    23466032.590
 121578085.459 7  94736212.26544  23135540.859                    23135550.359
 108389987.918 8  84459814.84446  20625916.242                    20625921.754
 119734175.686 7  93299428.894 6  22784652.172
 110556734.574 8  86148029.62646  21038199.086                    21038206.949
 11  7 25  1 46  0.0000000  0  9G12G05G25G04G27G09G02G17G10
 114896557.310 7  89529953.117 7  21864107.750
 120192228.162 7  93656336.232 6  22871798.789
 130735368.961 6 101871810.648 6  24878120.516
 110503889.161 8  86107091.59046  21028191.648                    21028200.258
 123374891.896 6  96136352.39944  23477470.406                    23477481.313
 121649735.427 7  94792043.39544  23149175.063                    23149184.797
 108374804.151 8  84447983.34146  20623026.914                    20623032.891
 119784359.196 7  93338532.917 6  22794202.000
 110524634.007 8  86123016.26546  21032090.750                    21032099.031
 11  7 25  1 46 30.0000000  0  9G12G05G25G04G27G09G02G17G10
 114823786.866 7  89473248.904 7  21850259.656
 120090654.326 7  93577187.891 6  22852469.805
 130630988.808 6 101790475.365 5  24858257.148
 110571339.169 8  86159650.02746  21041027.016                    21041035.262
 123435234.134 7  96183372.31944  23488953.227                    23488963.906
 121721684.747 7  94848107.74244  23162866.742                    23162877.137
 108359960.431 8  84436416.82646  20620202.219                    20620208.090
 119834678.792 7  93377742.970 6  22803777.430
 110493119.288 8  86098459.38146  21026093.313                    21026101.746
 11  7 25  1 47  0.0000000  0  9G12G05G25G04G27G09G02G17G10
 114751362.946 7  89416814.745 7  21836477.906
 119989249.719 7  93498171.433 7  22833172.664
 130526689.881 6 101709203.348 5  24838410.289
 110639036.528 8  86212401.21246  21053909.406                    21053917.496
 123495751.717 6  96230528.79644  23500469.711                    23500480.648
 121793930.255 7  94904402.87244  23176613.914                    23176624.363
 108345456.031 8  84425114.70446  20617442.133                    20617447.898
 119885135.001 7  93417059.511 6  22813378.891
 110462192.241 8  86074360.43446  21020208.039                    21020216.063
 11  7 25  1 47 30.0000000  0  9G12G05G25G04G27G09G02G17G10
 114679287.806 7  89360652.313 7  21822762.859
 119888017.073 7  93419288.945 7  22813909.188
 130422474.066 6 101627996.081 5  24818577.547
 110706978.609 8  86265343.10046  21066838.320                    21066846.508
 123556441.447 7  96277819.41444  23512019.094                    23512029.422
 121866468.096 6  94960925.79944  23190418.008                    23190428.590
 108331289.845 8  84414076.12346  20614746.523                    20614751.902
 119935728.419 7  93456482.976 6  22823006.508
 110431854.038 8  86050720.31346  21014435.328                    21014443.117
 11  7 25  1 48  0.0000000  0  9G12G05G25G04G27G09G02G17G10
 114607564.489 7  89304764.044 7  21809113.984
 119786959.743 7  93340543.104 7  22794677.703
 130318344.440 6 101546855.982 5  24798763.492
 110775163.781 8  86318474.40746  21079813.531                    21079822.055
 123617301.277 6  96325242.62844  23523599.914                    23523610.105
 121939295.575 6  95017674.42244  23204276.633                    23204287.184
 108317461.788 8  84403301.02046  20612114.930                    20612120.766
 119986459.440 7  93496013.612 6  22832660.336
 110402106.867 8  86027540.74046  21008774.211                    21008782.340
 11  7 25  1 48 30.0000000  0  9G12G05G25G04G27G09G02G17G10
 114536195.701 7  89249152.034 7  21795532.641
 119686080.599 7  93261936.084 7  22775481.531
 130214303.181 6 101465784.750 6  24778964.781
 110843589.277 8  86371792.97646  21092834.500                    21092842.758
 123678328.043 7  96372795.92344  23535213.016                    23535223.629
 122012409.168 7  95074645.98544  23218189.375                    23218199.547
 108303970.519 8  84392788.35546  20609547.805                    20609553.336
 120037328.245 7  93535651.664 7  22842340.016
 110372951.719 8  86004822.48346  21003226.078                    21003233.938
 11  7 25  1 49  0.0000000  0  9G12G05G25G04G27G09G02G17G10
 114465183.494 7  89193817.868 7  21782019.828
 119585382.485 7  93183470.113 7  22756319.445
 130110352.572 5 101384784.180 6  24759183.852
 110912252.757 8  86425296.98646  21105900.820                    21105909.090
 123739518.891 6  96420477.08143  23546856.773                    23546867.516
 122085805.216 6  95131837.66144  23232156.047                    23232166.902
 108290815.135 8  84382537.42646  20607044.266                    20607050.148
 120088335.560 7  93575397.631 7  22852047.016
 110344390.022 8  85982566.65846  20997791.016                    20997798.934
 11  7 25  1 49 30.0000000  0  9G12G05G25G04G27G09G02G17G10
 114394530.066 7  89138763.300 7  21768575.164
 119484868.328 7  93105147.525 7  22737191.820
 130006495.143 6 101303856.266 6  24739420.102
 110981152.186 8  86478984.86146  21119011.727                    21119020.398
 123800871.171 6  96468284.04343  23558531.906                    23558542.934
 122159480.253 7  95189246.70244  23246176.547                    23246186.871
 108277994.949 8  84372547.68346  20604604.625                    20604610.340
 120139482.016 7  93615252.012 6  22861779.555
 110316423.727 8  85960774.77246  20992469.336                    20992476.820
 11  7 25  1 50  0.0000000  0  9G12G05G25G04G27G09G02G17G10
 114324238.424 7  89083990.626 7  21755198.750
 119384541.247 7  93026970.686 6  22718100.820
 129902733.218 6 101223002.835 6  24719675.797
 111050285.113 8  86532854.70146  21132167.320                    21132175.184
 123862382.019 6  96516214.52743  23570237.305                    23570247.621
 122233430.827 7  95246870.44444  23260248.914                    23260259.664
 108265508.905 8  84362818.30946  20602228.586                    20602234.227
 120190767.911 7  93655215.047 6  22871539.336
 110289053.992 8  85939447.76046  20987260.727                    20987268.938
 11  7 25  1 50 30.0000000  0  9G12G05G25G04G27G09G02G17G10
 114254310.872 7  89029501.691 7  21741891.656
 119284404.445 7  92948942.089 7  22699044.461
 129799069.366 5 101142225.856 6  24699948.219
 111119649.534 8  86586904.91946  21145366.844                    21145375.230
 123924048.798 6  96564266.55043  23581971.813                    23581983.012
 122307653.677 7  95304706.37444  23274373.359                    23274383.305
 108253356.577 8  84353348.97446  20599915.945                    20599921.992
 120242193.893 7  93695287.230 7  22881325.313
 110262282.735 8  85918587.07746  20982166.555                    20982174.656
 11  7 25  1 51  0.0000000  0  9G12G05G25G04G27G09G02G17G10
 114184750.206 8  88975298.602 7  21728655.156
 119184460.696 7  92871063.984 7  22680025.922
 129695506.220 6 101061527.387 6  24680240.953
 111189243.223 8  86641133.76246  21158610.391                    21158618.594
 123985868.865 6  96612437.98843  23593735.688                    23593747.160
 122382145.550 7  95362751.92144  23288548.109                    23288558.363
 108241537.317 8  84344139.16346  20597667.172                    20597672.715
 120293760.844 7  93735469.242 6  22891137.461
 110236111.659 8  85898194.05946  20977186.508                    20977194.543
 11  7 25  1 51 30.0000000  0  9G12G05G25G04G27G09G02G17G10
 114115558.950 8  88921383.364 7  21715488.219
 119084712.919 7  92793338.542 7  22661044.914
 129592045.993 6 100980909.160 6  24660553.297
 111259063.990 8  86695539.56746  21171896.789                    21171904.523
 124047839.395 6  96660726.66143  23605529.453                    23605539.047
 122456902.828 7  95421004.28844  23302774.828                    23302784.254
 108230049.960 8  84335187.99546  20595481.164                    20595486.355
 120345469.135 7  93775761.414 6  22900978.008
 110210541.882 8  85878269.58046  20972320.938                    20972328.703
 11  7 25  1 52  0.0000000  0  9G12G05G25G04G27G09G02G17G10
 114046739.425 7  88867757.815 7  21702392.344
 118985164.166 7  92715768.181 7  22642101.180
 129488690.935 6 100900372.885 6  24640884.914
 111329109.356 8  86750120.37246  21185226.180                    21185233.871
 124109957.417 6  96709130.32444  23617349.820                    23617360.152
 122531922.142 7  95479460.83044  23317049.773                    23317060.918
 108218893.484 8  84326494.63346  20593358.352                    20593363.707
 120397319.111 7  93816163.982 7  22910844.641
 110185574.359 8  85858814.39146  20967569.305                    20967577.344
 11  7 25  1 52 30.0000000  0  9G12G05G25G04G27G09G02G17G10
 113978294.213 7  88814423.913 7  21689367.367
 118885817.484 7  92638355.303 7  22623195.766
 129385443.799 6 100819920.700 6  24621237.875
 111399377.392 8  86804874.69646  21198597.648                    21198605.215
 124172220.552 7  96757646.98843  23629197.977                    23629208.930
 122607200.127 7  95538118.95244  23331375.531                    23331385.676
 108208067.249 8  84318058.61046  20591298.039                    20591303.855
 120449311.319 7  93856677.395 7  22920738.242
 110161210.663 8  85839829.72746  20962933.094                    20962940.648
 11  7 25  1 53  0.0000000  0  9G12G05G25G04G27G09G02G17G10
 113910225.520 7  88761383.435 7  21676414.203
 118786675.836 7  92561102.146 7  22604329.828
 129282306.870 6 100739554.400 6  24601611.836
 111469865.819 8  86859800.72645  21212010.766                    21212018.660
 124234625.892 6  96806274.46543  23641073.016                    23641083.090
 122682733.443 7  95596976.03144  23345749.445                    23345758.859
 108197570.505 8  84309879.34846  20589300.320                    20589305.969
 120501446.348 7  93897302.071 7  22930659.336
 110137452.115 8  85821316.60146  20958411.594                    20958419.730
 11  7 25  1 53 30.0000000  0  9G12G05G25G04G27G09G02G17G10
 113842536.047 7  88708638.437 7  21663533.781
 118687742.114 7  92484011.038 7  22585503.211
 129179282.448 6 100659275.791 6  24582006.453
 111540572.056 8  86914896.49046  21225465.672                    21225474.023
 124297170.369 6  96855010.34843  23652974.852                    23652986.051
 122758518.599 7  95656029.37744  23360170.633                    23360180.422
 108187401.722 8  84301955.63146  20587365.867                    20587370.699
 120553724.466 7  93938038.260 6  22940607.531
 110114300.112 8  85803276.11546  20954006.133                    20954013.859
 11  7 25  1 54  0.0000000  0  9G12G05G25G04G27G09G02G17G10
 113775228.100 8  88656190.748 7  21650725.375
 118589019.206 7  92407084.206 7  22566717.000
 129076373.056 6 100579086.766 6  24562423.648
 111611494.089 8  86970160.40446  21238961.898                    21238970.383
 124359851.432 6  96903852.64443  23664902.500                    23664913.566
 122834552.116 7  95715276.25544  23374639.117                    23374649.164
 108177560.551 8  84294287.20946  20585492.922                    20585497.852
 120606146.596 7  93978886.661 7  22950583.063
 110091755.915 8  85785709.23446  20949716.047                    20949723.914
 11  7 25  1 54 30.0000000  0  9G12G05G25G04G27G09G02G17G10
 113708304.302 8  88604042.358 7  21637990.164
 118490510.404 7  92330324.181 6  22547970.953
 128973581.494 6 100498989.571 6  24542862.953
 111682630.099 8  87025591.05146  21252498.539                    21252507.098
 124422666.323 7  96952799.25544  23676855.867                    23676866.805
 122910830.761 7  95774714.14944  23389154.422                    23389165.211
 108168046.382 8  84286873.59046  20583682.141                    20583687.840
 120658713.154 6  94019847.594 7  22960586.117
 110069820.853 8  85768617.01546  20945541.648                    20945549.848
 11  7 25  1 55  0.0000000  0  9G12G05G25G04G27G09G02G17G10
 113641767.198 7  88552195.299 7  21625328.320
 118392218.628 7  92253733.242 7  22529266.484
 128870910.028 6 100418985.957 6  24523324.781
 111753977.663 8  87081186.54446  21266075.492                    21266083.969
 124485612.228 6  97001847.91943  23688834.625                    23688845.477
 122987351.198 7  95834340.42744  23403715.766                    23403725.602
 108158858.121 8  84279713.92546  20581933.906                    20581939.109
 120711424.681 7  94060921.500 7  22970616.648
 110048496.041 8  85752000.29346  20941484.133                    20941491.863
 11  7 25  1 55 30.0000000  0  9G12G05G25G04G27G09G02G17G10
 113575619.286 8  88500651.505 7  21612740.883
 118294146.868 7  92177313.805 7  22510604.273
 128768361.143 6 100339077.911 6  24503809.469
 111825534.552 8  87136945.13446  21279692.211                    21279700.738
 124548686.654 6  97050996.74044  23700836.961                    23700847.691
 123064109.943 7  95894152.42844  23418322.719                    23418332.293
 108149994.698 8  84272807.38946  20580246.844                    20580252.355
 120764281.322 7  94102108.488 6  22980675.406
 110027782.863 8  85735860.20246  20937542.227                    20937550.426
 11  7 25  1 56  0.0000000  0  9G12G05G25G04G27G09G02G17G10
 113509862.882 7  88449412.802 7  21600227.844
 118196297.864 7  92101067.913 7  22491984.133
 128665937.316 6 100259267.252 6  24484319.875
 111897298.355 8  87192864.97646  21293348.688                    21293357.027
 124611886.447 6  97100243.22743  23712863.773                    23712874.605
 123141103.276 7  95954147.22444  23432973.320                    23432983.805
 108141455.104 8  84266153.18946  20578622.008                    20578626.871
 120817283.994 7  94143409.306 6  22990761.133
 110007682.195 8  85720197.37246  20933717.508                    20933725.586
 11  7 25  1 56 30.0000000  0  9G12G05G25G04G27G09G02G17G10
 113444500.889 7  88398481.409 7  21587789.945
 118098674.785 7  92024998.054 7  22473406.992
 128563641.227 6 100179556.087 6  24464853.461
 111969267.427 8  87248944.74646  21307043.852                    21307052.422
 124675209.283 6  97149585.61243  23724913.773                    23724924.207
 123218327.892 7  96014322.24544  23447669.727                    23447679.641
 108133238.834 8  84259750.91646  20577058.367                    20577063.707
 120870433.030 7  94184824.171 7  23000874.898
 109988195.498 8  85705012.96346  20930008.789                    20930016.723
 11  7 25  1 57  0.0000000  0  9G12G05G25G04G27G09G02G17G10
 113379534.925 8  88347858.606 7  21575427.328
 118001280.408 7  91949106.406 7  22454873.836
 128461474.946 6 100099946.034 6  24445411.813
 112041438.924 8  87305182.24546  21320777.445                    21320786.031
 124738651.996 6  97199021.39443  23736986.703                    23736997.645
 123295780.258 7  96074674.73744  23462407.922                    23462418.551
 108125344.385 8  84253599.43146  20575555.844                    20575561.832
 120923728.883 7  94226353.392 6  23011016.961
 109969323.205 8  85690307.32746  20926417.914                    20926425.402
 11  7 25  1 57 30.0000000  0  9G12G05G25G04G27G09G02G17G10
 113314967.426 7  88297546.297 7  21563140.773
 117904117.526 7  91873395.140 7  22436383.922
 128359441.156 7 100020439.181 6  24425995.922
 112113810.969 8  87361576.02646  21334549.820                    21334557.891
 124802211.930 6  97248548.50643  23749082.563                    23749092.395
 123373456.748 7  96135201.88044  23477189.305                    23477199.113
 108117770.795 8  84247697.96646  20574114.719                    20574119.961
 120977171.924 7  94267997.324 6  23021186.984
 109951066.890 8  85676081.65846  20922943.836                    20922951.781
 11  7 25  1 58  0.0000000  0  9G12G05G25G04G27G09G02G17G10
 113250801.390 8  88247546.810 7  21550930.266
 117807189.608 7  91797866.962 7  22417939.680
 128257542.515 7  99941037.634 6  24406604.742
 112186381.789 8  87418124.70646  21348359.359                    21348367.727
 124865886.348 6  97298164.83844  23761198.906                    23761209.324
 123451354.302 6  96195901.26444  23492012.773                    23492022.695
 108110517.739 8  84242046.27346  20572735.063                    20572740.043
 121030762.963 7  94309756.555 6  23031384.656
 109933427.790 8  85662336.96046  20919587.477                    20919595.168
 11  7 25  1 58 30.0000000  0  9G12G05G25G04G27G09G02G17G10
 113187038.831 8  88197861.684 7  21538796.484
 117710499.377 7  91722524.008 7  22399539.711
 128155781.263 7  99861743.053 6  24387239.938
 112259148.627 8  87474826.12245  21362206.578                    21362214.500
 124929672.256 6  97347868.03943  23773337.078                    23773348.246
 123529469.460 6  96256770.19444  23506877.336                    23506887.438
 108103583.702 8  84236643.16246  20571414.938                    20571420.102
 121084502.234 7  94351631.330 6  23041611.047
 109916406.545 8  85649073.69046  20916348.180                    20916356.059
 11  7 25  1 59  0.0000000  0  9G12G05G25G04G27G09G02G17G10
 113123682.344 7  88148493.013 7  21526740.117
 117614049.706 7  91647368.466 7  22381185.609
 128054160.200 6  99782557.682 6  24367902.547
 112332109.560 8  87531678.79145  21376090.461                    21376098.574
 124993567.058 6  97397656.13643  23785495.625                    23785506.152
 123607798.940 6  96317806.11043  23521783.258                    23521793.086
 108096968.029 8  84231488.13246  20570156.078                    20570161.719
 121138390.376 7  94393622.125 6  23051866.375
 109900004.518 8  85636292.92646  20913227.055                    20913234.613
 11  7 25  1 59 30.0000000  0  9G12G05G25G04G27G09G02G17G10
 113060734.562 8  88099442.791 7  21514761.656
 117517843.842 7  91572402.963 7  22362878.000
 127952681.802 6  99703483.475 6  24348591.969
 112405262.772 8  87588681.27145  21390011.086                    21390019.016
 125057568.200 6  97447527.10043  23797675.406                    23797685.172
 123686339.216 6  96379006.27843  23536728.672                    23536738.734
 108090670.302 8  84226580.84246  20568957.602                    20568963.191
 121192428.189 7  94435729.530 6  23062148.617
 109884222.701 8  85623995.45446  20910223.547                    20910231.184
 11  7 25  2  0  0.0000000  0  9G12G05G25G04G27G09G02G17G10
 112998197.208 8  88050712.393 7  21502861.039
 117421884.416 7  91497629.437 7  22344617.734
 127851348.483 6  99624522.322 6  24329309.109
 112478605.556 8  87645831.48546  21403967.672                    21403976.031
 125121672.677 6  97497478.53243  23809873.125                    23809884.430
 123765086.421 6  96440367.67744  23551713.523                    23551724.480
 108084688.300 8  84221919.57346  20567819.344                    20567824.887
 121246615.498 7  94477953.406 6  23072459.938
 109869061.598 8  85612181.64446  20907338.594                    20907346.359
 11  7 25  2  0 30.0000000  0  9G12G05G25G04G27G09G02G17G10
 112936072.951 8  88002303.880 7  21491039.227
 117326174.491 7  91423050.354 7  22326404.336
 127750162.833 6  99545676.271 6  24310054.508
 112552136.025 8  87703127.93145  21417960.086                    21417968.617
 125185877.630 6  97547508.27243  23822090.711                    23822102.648
 123844037.087 6  96501887.61944  23566738.336                    23566748.508
 108079021.502 8  84217503.91546  20566741.031                    20566746.563
 121300952.975 7  94520294.324 6  23082799.930
 109854522.343 8  85600852.38746  20904571.742                    20904579.469
 11  7 25  2  1  0.0000000  0  9G12G05G25G04G27G09G02G17G10
 112874364.408 8  87954219.303 7  21479296.305
 117230716.997 7  91348667.973 7  22308239.516
 127649127.737 6  99466947.566 6  24290828.039
 112625852.162 8  87760569.05445  21431987.750                    21431996.289
 125250180.396 6  97597614.20943  23834328.648                    23834339.254
 123923188.276 7  96563563.81644  23581800.086                    23581809.820
 108073669.260 8  84213333.36646  20565722.688                    20565727.969
 121355441.327 7  94562752.794 6  23093168.805
 109840605.688 8  85590008.28946  20901923.281                    20901931.102
 11  7 25  2  1 30.0000000  0  9G12G05G25G04G27G09G02G17G10
 112813073.459 8  87906460.115 7  21467633.391
 117135514.712 7  91274484.454 7  22290122.984
 127548245.249 6  99388337.767 6  24271630.844
 112699751.656 8  87818153.08145  21446050.711                    21446058.965
 125314577.967 6  97647794.14043  23846582.281                    23846593.160
 124002536.196 6  96625393.29044  23596900.008                    23596909.625
 108068630.246 8  84209406.89346  20564763.516                    20564769.133
 121410080.912 7  94605329.108 6  23103566.453
 109827312.212 8  85579649.75346  20899393.875                    20899401.695
 11  7 25  2  2  0.0000000  0  9G12G05G25G04G27G09G02G17G10
 112752202.901 8  87859028.509 7  21456049.805
 117040570.855 7  91200502.313 7  22272055.617
 127447518.561 6  99309849.372 6  24252463.359
 112773832.601 8  87875878.49145  21460147.844                    21460155.629
 125379068.057 6  97698046.07143  23858854.281                    23858865.750
 124082077.754 6  96687373.64144  23612036.039                    23612045.914
 108063903.971 8  84205724.10146  20563864.313                    20563869.594
 121464872.271 6  94648023.636 6  23113992.859
 109814643.332 8  85569777.93146  20896983.117                    20896990.891
 11  7 25  2  2 30.0000000  0  9G12G05G25G04G27G09G02G17G10
 112691755.116 8  87811926.333 7  21444547.242
 116945888.299 7  91126723.787 7  22254037.984
 127346949.793 6  99231484.067 5  24233325.633
 112848092.804 8  87933743.60845  21474278.859                    21474287.039
 125443647.233 6  97748367.43643  23871143.195                    23871154.281
 124161809.236 6  96749502.02843  23627207.039                    23627218.000
 108059488.999 8  84202283.88546  20563024.008                    20563029.461
 121519815.821 7  94690836.791 6  23124448.430
 109802599.546 8  85560393.18946  20894690.664                    20894698.973
 11  7 25  2  3  0.0000000  0  9G12G05G25G04G27G09G02G17G10
 112631732.089 8  87765155.163 7  21433125.063
 116851469.887 7  91053151.076 7  22236071.461
 127246542.58917  99153243.86715  24214218.398
 112922530.209 8  87991746.79745  21488443.836                    21488452.035
 125508313.094 6  97798756.33043  23883449.156                    23883460.238
 124241727.283 6  96811775.72543  23642416.023                    23642425.980
 108055384.348 8  84199085.46946  20562242.742                    20562248.730
 121574911.850 7  94733768.787 6  23134932.820
 109791181.532 7  85551496.06646  20892518.320                    20892525.891
 11  7 25  2  3 30.0000000  0  9G12G05G25G04G27G09G02G17G10
 112572136.839 8  87718717.311 7  21421784.586
 116757318.607 7  90979786.535 7  22218154.547
 127146297.734 7  99075130.899 5  24195143.211
 112997142.714 8  88049886.43345  21502642.055                    21502650.508
 125573063.084 6  97849210.85343  23895770.719                    23895781.441
 124321828.594 6  96874192.24344  23657659.297                    23657668.664
 108051589.318 8  84196128.30646  20561520.680                    20561526.625
 121630161.097 6  94776820.169 6  23145446.266
 109780390.354 8  85543087.37546  20890464.867                    20890472.320
 11  7 25  2  4  0.0000000  0  9G12G05G25G04G27G09G02G17G10
 112512970.626 8  87672613.782 7  21410525.719
 116663436.772 7  90906631.938 7  22200289.961
 127046218.320 7  98997146.927 5  24176098.180
 113071928.022 8  88108160.69745  21516873.375                    21516881.922
 125637893.902 6  97899728.31443  23908107.883                    23908118.773
 124402109.239 7  96936748.49243  23672935.844                    23672946.324
 108048102.281 8  84193411.14446  20560857.094                    20560862.645
 121685564.030 7  94819991.304 6  23155989.094
 109770226.046 7  85535167.16446  20888530.352                    20888538.051
 11  7 25  2  4 30.0000000  0  9G12G05G25G04G27G09G02G17G10
 112454236.227 8  87626846.743 7  21399348.461
 116569828.315 7  90833690.361 7  22182476.344
 126946307.331 7  98919294.313 6  24157085.766
 113146884.343 8  88166568.24645  21531137.297                    21531145.277
 125702803.016 6  97950306.76943  23920459.352                    23920470.031
 124482566.347 6  96999442.22744  23688246.680                    23688256.645
 108044922.746 8  84190933.59646  20560252.273                    20560257.840
 121741121.096 6  94863282.553 6  23166560.930
 109760690.002 7  85527736.49446  20886715.891                    20886723.699
 11  7 25  2  5  0.0000000  0  9G12G05G25G04G27G09G02G17G10
 112395936.009 8  87581418.050 7  21388254.383
 116476496.007 7  90760963.965 7  22164716.063
 126846567.278 6  98841574.930 6  24138105.297
 113222009.641 8  88225107.46845  21545432.805                    21545441.578
 125767787.829 6  98000944.27243  23932825.266                    23932836.688
 124563196.575 7  97062270.87944  23703590.117                    23703600.402
 108042049.673 8  84188694.84546  20559705.398                    20559710.809
 121796832.701 6  94906694.180 6  23177162.930
 109751782.621 7  85520795.70046  20885020.359                    20885028.855
 11  7 25  2  5 30.0000000  0  9G12G05G25G04G27G09G02G17G10
 112338072.696 8  87536329.796 7  21377243.547
 116383442.550 7  90688454.861 7  22147007.625
 126747000.972 6  98763990.897 6  24119158.320
 113297301.962 8  88283776.81545  21559759.977                    21559769.152
 125832845.739 6  98051638.62643  23945206.531                    23945217.484
 124643996.599 7  97125231.84644  23718966.414                    23718976.484
 108039482.277 8  84186694.28146  20559216.875                    20559222.449
 121852699.399 6  94950226.656 6  23187793.977
 109743504.675 7  85514345.36846  20883445.727                    20883453.664
 11  7 25  2  6  0.0000000  0  9G12G05G25G04G27G09G02G17G10
 112280648.216 8  87491583.459 7  21366315.828
 116290670.899 7  90616165.329 7  22129354.063
 126647610.733 6  98686544.085 6  24100244.977
 113372759.091 8  88342574.58245  21574119.617                    21574128.141
 125897973.610 6  98102387.52842  23957598.883                    23957610.512
 124724962.737 6  97188322.24044  23734373.414                    23734384.199
 108037219.031 8  84184930.72446  20558785.859                    20558791.551
 121908721.613 6  94993880.318 6  23198453.750
 109735856.834 7  85508386.03346  20881990.711                    20881998.293
 11  7 25  2  6 30.0000000  0  9G12G05G25G04G27G09G02G17G10
 112223664.638 8  87447180.732 7  21355472.383
 116198183.717 7  90544097.484 7  22111754.633
 126548399.150 6  98609236.520 6  24081365.164
 113448378.887 8  88401499.10945  21588509.469                    21588517.629
 125963168.784 5  98153188.83843  23970006.148                    23970015.906
 124806091.388 6  97251539.29843  23749810.742                    23749821.613
 108035258.992 8  84183403.42646  20558413.031                    20558418.844
 121964899.921 6  95037655.599 6  23209145.109
 109728839.244 8  85502917.81446  20880654.797                    20880662.293
 11  7 25  2  7  0.0000000  0  9G12G05G25G04G27G09G02G17G10
 112167124.580 8  87403123.574 7  21344712.898
 116105984.157 7  90472253.713 7  22094209.047
 126449369.114 6  98532070.413 6  24062520.078
 113524159.633 8  88460549.05845  21602930.055                    21602938.516
 126028428.602 6  98204040.58543  23982424.539                    23982436.234
 124887379.547 6  97314880.59143  23765279.992                    23765290.387
 108033601.545 8  84182111.92346  20558097.617                    20558103.297
 122021234.652 6  95081552.832 6  23219865.391
 109722452.570 8  85497941.20446  20879439.398                    20879447.199
 11  7 25  2  7 30.0000000  0  9G12G05G25G04G27G09G02G17G10
 112111030.063 8  87359413.615 7  21334038.484
 116014075.221 7  90400636.419 7  22076719.695
 126350522.883 6  98455047.503 6  24043711.016
 113600098.965 8  88519722.57845  21617380.953                    21617388.992
 126093750.300 5  98254940.52942  23994854.219                    23994866.051
 124968823.644 6  97378343.42143  23780778.484                    23780789.766
 108032245.208 8  84181055.03746  20557839.656                    20557845.168
 122077726.257 6  95125572.273 6  23230615.125
 109716697.565 8  85493456.80846  20878344.414                    20878351.980
 11  7 25  2  8  0.0000000  0  9G12G05G25G04G27G09G02G17G10
 112055383.095 8  87316052.383 7  21323449.477
 115922459.558 7  90329247.698 7  22059285.672
 126251863.185 6  98378169.924 6  24024936.578
 113676194.881 8  88579018.09445  21631861.508                    21631869.461
 126159131.00115  98305886.39652  24007295.836                    24007307.590
 125050420.166 6  97441925.02844  23796305.789                    23796316.594
 108031188.914 8  84180231.96946  20557638.594                    20557644.043
 122134375.339 6  95169714.431 6  23241394.750
 109711574.357 7  85489464.72246  20877369.148                    20877376.969
 11  7 25  2  8 30.0000000  0  9G12G05G25G04G27G09G02G17G10
 112000186.318 8  87273041.946 7  21312945.539
 115831140.226 7  90258089.816 7  22041908.117
 126153392.772 7  98301439.824 6  24006198.484
 113752445.663 8  88638434.26245  21646371.602                    21646379.410
 126224568.129 5  98356876.25642  24019747.242                    24019759.973
 125132165.712 6  97505622.79644  23811862.680                    23811872.297
 108030432.094 8  84179642.25346  20557494.484                    20557500.063
 122191182.251 6  95213979.578 6  23252205.047
 109707083.819 8  85485965.63046  20876514.961                    20876522.297
 11  7 25  2  9  0.0000000  0  9G12G05G25G04G27G09G02G17G10
 111945441.731 8  87230383.896 7  21302527.992
 115740119.970 7  90187165.017 7  22024587.406
 126055114.159 7  98224859.128 6  23987496.711
 113828849.147 8  88697969.41945  21660910.375                    21660918.441
 126290058.74016  98407907.79353  24032211.180                    24032222.555
 125214056.680 7  97569433.86643  23827445.125                    23827455.969
 108029973.332 7  84179284.79046  20557407.438                    20557412.844
 122248147.377 6  95258367.946 6  23263045.313
 109703225.849 7  85482959.45846  20875780.445                    20875788.086
 11  7 25  2  9 30.0000000  0  9G12G05G25G04G27G09G02G17G10
 111891151.721 8  87188080.011 7  21292196.938
 115649401.424 7  90116475.297 7  22007324.164
 125957029.774 7  98148429.781 6  23968831.469
 113905403.136 8  88757621.86445  21675478.172                    21675486.438
 126355600.149 6  98458978.94943  24044683.328                    24044694.621
 125296090.040 7  97633355.90144  23843056.016                    23843066.672
 108029811.440 8  84179158.66146  20557376.383                    20557382.063
 122305271.042 6  95302879.908 6  23273915.078
 109700001.103 7  85480446.68846  20875167.188                    20875174.879
 11  7 25  2 10  0.0000000  0  9G12G05G25G04G27G09G02G17G10
 111837317.920 8  87146131.649 7  21281952.602
 115558987.590 7  90046023.025 7  21990119.047
 125859142.259 7  98072153.836 6  23950204.367
 113982105.773 8  88817390.14145  21690074.461                    21690082.594
 126421189.305 6  98510087.32343  24057163.859                    24057176.078
 125378262.152 7  97697386.09544  23858692.766                    23858703.238
 108029945.123 7  84179262.84146  20557401.828                    20557407.484
 122362553.676 6  95347515.712 6  23284816.117
 109697409.802 7  85478427.52846  20874673.664                    20874681.387
 11  7 25  2 10 30.0000000  0  9G12G05G25G04G27G09G02G17G10
 111783942.681 8  87104540.575 7  21271795.648
 115468881.444 7  89975810.511 7  21972972.273
 125761454.377 7  97996033.439 6  23931614.711
 114058954.980 8  88877272.62345  21704698.375                    21704706.570
 126486823.893 6  98561231.05542  24069654.461                    24069665.355
 125460569.568 7  97761521.71644  23874354.797                    23874365.504
 108030373.843 8  84179596.94146  20557483.234                    20557488.871
 122419995.975 7  95392275.979 7  23295747.164
 109695452.100 7  85476902.07146  20874301.500                    20874308.910
 11  7 25  2 11  0.0000000  0  9G12G05G25G04G27G09G02G17G10
 111731028.959 8  87063309.149 7  21261726.266
 115379086.022 7  89905840.132 7  21955884.781
 125663968.855 7  97920070.733 6  23913063.523
 114135949.271 8  88937268.14745  21719349.914                    21719358.078
 126552501.087 5  98612408.02042  24082152.375                    24082164.063
 125543009.133 6  97825760.24943  23890043.148                    23890053.258
 108031096.501 7  84180160.08847  20557620.789                    20557626.430
 122477598.029 6  95437160.715 6  23306708.648
 109694128.492 7  85475870.70746  20874049.328                    20874057.133
 11  7 25  2 11 30.0000000  0  9G12G05G25G04G27G09G02G17G10
 111678578.221 8  87022438.470 7  21251745.227
 115289604.351 7  89836114.229 7  21938857.141
 125566688.354 7  97844267.769 6  23894552.000
 114213086.321 8  88997374.89845  21734028.672                    21734036.723
 126618218.217 6  98663616.09743  24094657.133                    24094669.105
 125625577.443 7  97890099.11344  23905754.688                    23905765.359
 108032112.022 8  84180951.42846  20557814.109                    20557819.523
 122535360.717 7  95482170.581 6  23317699.969
 109693439.408 7  85475333.78146  20873918.367                    20873926.344
 11  7 25  2 12  0.0000000  0  9G12G05G25G04G27G09G02G17G10
 111626592.459 8  86981930.130 7  21241852.609
 115200438.717 7  89766634.566 7  21921888.703
 125469615.273 7  97768626.420 6  23876079.492
 114290364.104 8  89057591.32445  21748734.047                    21748742.617
 126683972.252 6  98714852.89443  24107171.445                    24107182.281
 125708271.146 7  97954535.70543  23921491.125                    23921502.055
 108033418.823 8  84181969.75846  20558062.914                    20558068.320
 122593283.967 6  95527305.595 7  23328722.461
 109693384.861 7  85475291.30046  20873907.719                    20873915.449
 11  7 25  2 12 30.0000000  0  9G12G05G25G04G27G09G02G17G10
 111575074.027 8  86941785.892 7  21232048.930
 115111591.905 7  89697403.365 7  21904982.148
 125372752.289 7  97693148.780 6  23857647.148
 114367780.788 8  89117916.00645  21763465.930                    21763474.332
 126749760.539 6  98766116.42243  24119689.633                    24119701.020
 125791086.809 7  98019067.33744  23937250.297                    23937261.566
 108035016.177 8  84183214.48246  20558366.781                    20558372.102
 122651368.455 7  95572566.255 6  23339774.953
 109693964.828 7  85475743.23346  20874018.195                    20874026.301
 11  7 25  2 13  0.0000000  0  9G12G05G25G04G27G09G02G17G10
 111524025.239 8  86902007.667 7  21222335.109
 115023067.107 7  89628423.081 7  21888136.484
 125276102.310 7  97617837.109 6  23839255.625
 114445334.523 8  89178347.46545  21778223.984                    21778232.223
 126815580.618 5  98817404.69943  24132214.461                    24132226.742
 125874021.051 7  98083691.35344  23953032.352                    23953043.465
 108036903.122 8  84184684.87346  20558725.695                    20558731.188
 122709614.634 6  95617952.873 6  23350859.219
 109695180.259 8  85476690.35046  20874249.336                    20874257.020
 11  7 25  2 13 30.0000000  0  9G12G05G25G04G27G09G02G17G10
 111473448.083 8  86862596.910 7  21212710.422
 114934867.190 7  89559695.948 7  21871352.180
 125179667.945 7  97542693.427 6  23820904.422
 114523023.505 8  89238884.33045  21793007.555                    21793015.762
 126881429.680 5  98868715.52743  24144745.781                    24144757.359
 125957070.387 6  98148405.04444  23968836.453                    23968847.625
 108039078.793 8  84186380.23146  20559139.820                    20559145.477
 122768023.049 6  95663465.931 6  23361973.727
 109697030.547 8  85478132.15146  20874601.305                    20874608.902
 11  7 25  2 14  0.0000000  0  9G12G05G25G04G27G09G02G17G10
 111423344.363 8  86823555.076 7  21203175.656
 114846994.577 7  89491223.858 7  21854630.734
 125083451.601 7  97467719.660 6  23802594.359
 114600845.555 8  89299524.87945  21807816.641                    21807824.664
 126947304.781 5  98920046.74543  24157281.383                    24157293.469
 126040231.367 7  98213205.72944  23984661.336                    23984672.133
 108041541.481 7  84188299.24846  20559608.516                    20559613.863
 122826593.599 7  95709105.333 6  23373119.938
 109699515.942 8  85480068.83546  20875074.281                    20875082.020
 11  7 25  2 14 30.0000000  0  9G12G05G25G04G27G09G02G17G10
 111373716.211 8  86784883.820 7  21193731.766
 114759452.231 7  89423009.120 7  21837971.930
 124987456.055 7  97392917.901 6  23784327.836
 114678798.755 8  89360267.62345  21822650.906                    21822659.195
 127013203.277 5  98971396.14243  24169822.609                    24169833.520
 126123500.854 6  98278090.91043  24000506.648                    24000518.383
 108044290.005 8  84190441.00046  20560131.258                    20560136.977
 122885326.811 7  95754871.465 6  23384295.836
 109702636.451 7  85482500.40946  20875668.406                    20875675.809
 11  7 25  2 15  0.0000000  0  9G12G05G25G04G27G09G02G17G10
 111324565.950 8  86746584.921 7  21184378.664
 114672243.412 7  89355054.227 7  21821376.906
 124891684.070 7  97318290.374 6  23766102.383
 114756881.259 8  89421111.14645  21837509.430                    21837517.578
 127079122.500 5  99022761.64642  24182365.813                    24182377.813
 126206875.404 6  98343058.01943  24016372.570                    24016384.188
 108047323.659 8  84192804.91246  20560708.617                    20560714.367
 122944223.376 7  95800764.933 6  23395503.984
 109706392.235 8  85485427.02146  20876382.789                    20876390.125
 11  7 25  2 15 30.0000000  0  9G12G05G25G04G27G09G02G17G10
 111275895.564 8  86708659.982 7  21175117.250
 114585370.491 7  89287361.124 7  21804844.984
 124796138.220 7  97243839.095 6  23747920.422
 114835091.293 8  89482054.04445  21852391.984                    21852400.598
 127145059.50315  99074141.05452  24194912.523                    24194925.359
 126290351.917 6  98408104.60743  24032257.906                    24032268.566
 108050641.231 8  84195390.07246  20561339.977                    20561345.223
 123003283.638 7  95846785.928 6  23406742.508
 109710783.314 7  85488848.64346  20877218.617                    20877226.309
 11  7 25  2 16  0.0000000  0  9G12G05G25G04G27G09G02G17G10
 111227706.926 8  86671110.402 7  21165947.391
 114498836.269 7  89219931.901 7  21788378.672
 124700821.179 7  97169566.134 6  23729782.539
 114913426.859 8  89543094.75745  21867299.141                    21867307.359
 127211011.71414  99125532.42052  24207461.656                    24207475.309
 126373926.855 7  98473227.83344  24048162.328                    24048172.629
 108054241.800 8  84198195.74346  20562025.102                    20562030.680
 123062507.935 7  95892934.742 6  23418012.484
 109715809.780 8  85492765.39246  20878175.102                    20878182.711
 11  7 25  2 16 30.0000000  0  9G12G05G25G04G27G09G02G17G10
 111180002.331 8  86633938.010 7  21156869.742
 114412643.632 7  89152768.889 7  21771976.180
 124605735.793 7  97095473.656 6  23711688.703
 114991886.190 8  89604231.91545  21882229.273                    21882237.270
 127276976.50015  99176933.44952  24220015.367                    24220028.102
 126457596.790 7  98538425.07044  24064083.609                    24064094.871
 108058124.298 7  84201221.09746  20562763.945                    20562769.344
 123121896.896 7  95939211.830 6  23429314.438
 109721471.854 7  85497177.40346  20879252.594                    20879260.109
 11  7 25  2 17  0.0000000  0  9G12G05G25G04G27G09G02G17G10
 111132783.527 8  86597144.157 7  21147883.977
 114326795.386 7  89085874.224 7  21755639.664
 124510884.553 7  97021563.657 6  23693639.031
 115070467.353 8  89665464.00145  21897182.375                    21897190.992
 127342951.25515  99228342.29152  24232569.953                    24232583.359
 126541358.308 6  98603693.71343  24080023.180                    24080033.730
 108062287.456 8  84204465.14546  20563556.336                    20563561.840
 123181450.569 7  95985617.283 6  23440647.438
 109727769.236 8  85502084.46046  20880450.797                    20880458.266
 11  7 25  2 17 30.0000000  0  9G12G05G25G04G27G09G02G17G10
 111086052.401 8  86560730.277 7  21138990.922
 114241293.984 7  89019249.817 7  21739369.289
 124416270.009 7  96947838.112 6  23675634.086
 115149168.518 8  89726789.58545  21912159.516                    21912167.574
 127408933.12315  99279756.76952  24245125.867                    24245140.008
 126625208.088 6  98669031.09643  24095978.797                    24095990.578
 108066729.880 8  84207926.79446  20564401.305                    20564406.617
 123241169.136 6  96032151.250 6  23452010.828
 109734701.395 7  85507486.16746  20881770.172                    20881777.813
 11  7 25  2 18  0.0000000  0  9G12G05G25G04G27G09G02G17G10
 111039811.337 8  86524698.317 7  21130191.734
 114156142.410 7  88952897.993 7  21723165.828
 124321894.961 6  96874299.194 6  23657674.906
 115227987.824 8  89788207.25445  21927157.867                    21927166.098
 127474919.53714                  24257682.406
 126709142.904 7  98734434.78443  24111951.805                    24111962.188
 108071450.604 8  84211605.30546  20565299.539                    20565305.262
 123301053.233 7  96078814.154 6  23463406.430
 109742268.535 7  85513382.66546  20883209.898                    20883217.305
 11  7 25  2 18 30.0000000  0  9G12G05G25G04G27G09G02G17G10
 110994061.692 8  86489049.241 7  21121485.867
 114071343.308 7  88886820.826 7  21707028.781
 124227761.881 7  96800948.840 6  23639762.031
 115306923.196 7  89849715.35645  21942179.336                    21942186.699
 127540906.45315                  24270239.711
 126793159.271 7  98799902.01643  24127939.328                    24127949.465
 108076448.697 8  84215499.93946  20566251.031                    20566256.055
 123361103.156 7  96125606.274 6  23474833.531
 109750470.189 7  85519773.57246  20884770.938                    20884778.398
 11  7 25  2 19  0.0000000  0  9G12G05G25G04G27G09G02G17G10
 110948805.858 8  86453784.987 7  21112873.766
 113986899.685 8  88821020.672 7  21690959.602
 124133873.750 7  96727789.372 6  23621895.953
 115385973.187 7  89911312.78045  21957221.656                    21957229.695
 127606893.54015                  24282797.438
 126877254.089 7  98865430.40543  24143942.055                    24143952.910
 108081722.874 8  84219609.72446  20567254.258                    20567259.438
 123421319.354 7  96172528.000 6  23486292.281
 109759306.598 8  85526659.11646  20886452.297                    20886460.199
 11  7 25  2 19 30.0000000  0  9G12G05G25G04G27G09G02G17G10
 110904045.918 8  86418907.153 7  21104356.961
 113902814.064 7  88755499.484 7  21674958.969
 124040233.127 7  96654822.778 6  23604076.016
 115465135.864 7  89972998.02445  21972285.578                    21972293.566
 127672876.862 5  99485453.48952  24295354.156                    24295365.391
 126961424.126 7  98931017.38643  24159959.023                    24159969.723
 108087272.228 8  84223933.91046  20568310.250                    20568315.680
 123481702.208 7  96219579.552 6  23497783.172
 109768777.434 7  85534039.00246  20888254.430                    20888261.660
 11  7 25  2 20  0.0000000  0  9G12G05G25G04G27G09G02G17G10
 110859783.829 8  86384417.221 7  21095933.852
 113819089.177 8  88690259.372 7  21659026.414
 123946842.681 7  96582051.108 6  23586304.695
 115544409.298 7  90034769.56545  21987370.906                    21987379.109
 127738853.651 6  99536863.92642  24307908.391                    24307921.172
 127045666.063 6  98996660.37643  24175990.516                    24176000.414
 108093095.432 8  84228471.48846  20569418.547                    20569423.727
 123542252.178 7  96266761.368 6  23509304.930
 109778882.431 8  85541913.04746  20890177.453                    20890184.895
 11  7 25  2 20 30.0000000  0  9G12G05G25G04G27G09G02G17G10
 110816020.823 8  86350316.215 7  21087606.313
 113735727.480 7  88625302.261 7  21643163.375
 123853704.935 7  96509476.349 6  23568581.164
 115623791.644 7  90096625.95245  22002476.625                    22002485.488
 127804821.705 6  99588267.50642  24320461.828                    24320474.957
 127129976.550 6  99062356.84543  24192034.375                    24192044.047
 108099191.258 8  84233221.50446  20570578.516                    20570583.457
 123602969.218 7  96314073.380 6  23520859.141
 109789621.216 8  85550280.94546  20892220.789                    20892228.453
 11  7 25  2 21  0.0000000  0  9G12G05G25G04G27G09G02G17G10
 110772759.063 8  86316605.798 7  21079373.469
 113652731.867 7  88560630.411 7  21627369.133
 123760822.624 7  96437100.686 6  23550906.188
 115703281.370 7  90158565.99745  22017602.984                    22017611.000
 127870777.850 5  99639661.67642  24333013.258                    24333026.785
 127214352.288 6  99128104.10643  24208090.227                    24208100.672
 108105558.583 8  84238183.06346  20571789.969                    20571795.414
 123663853.875 7  96361516.005 6  23532445.516
 109800993.397 8  85559142.38446  20894384.797                    20894392.598
 11  7 25  2 21 30.0000000  0  9G12G05G25G04G27G09G02G17G10
 110730000.732 8  86283287.663 7  21071236.734
 113570105.134 8  88496246.014 7  21611646.414
 123668198.501 7  96364926.178 6  23533280.156
 115782876.547 7  90220588.22345  22032749.406                    22032758.168
 127936719.69616                  24345562.688
 127298789.747 6  99193899.43543  24224157.453                    24224168.527
 108112196.438 8  84243355.43846  20573053.570                    20573058.777
 123724906.658 7  96409089.581 6  23544063.242
 109812998.788 8  85568497.24846  20896669.805                    20896677.270
 11  7 25  2 22  0.0000000  0  9G12G05G25G04G27G09G02G17G10
 110687747.237 8  86250362.884 7  21063196.109
 113487850.142 8  88432151.253 7  21595993.078
 123575835.309 7  96292954.995 6  23515704.023
 115862575.486 7  90282691.29845  22047916.328                    22047924.016
 128002644.557 6  99742414.89252  24358107.805                    24358117.680
 127383285.925 6  99259740.54743  24240237.438                    24240247.465
 108119103.686 8  84248737.70746  20574367.609                    20574373.090
 123786127.793 7  96456794.400 6  23555713.578
 109825637.196 8  85578345.37146  20899074.266                    20899081.719
 11  7 25  2 22 30.0000000  0  9G12G05G25G04G27G09G02G17G10
 110646000.303 8  86217832.852 7  21055251.859
 113405968.925 8  88368347.758 7  21580412.133
 123483735.347 7  96221188.919 6  23498177.766
 115942376.270 7  90344873.75145  22063101.516                    22063109.367
 128068549.362 6  99793769.09642  24370648.844                    24370659.758
 127467837.382 6  99325624.74043  24256326.094                    24256337.336
 108126278.842 8  84254328.76146  20575733.305                    20575738.297
 123847517.485 6  96504630.514 6  23567395.203
 109838907.795 8  85588686.11046  20901599.977                    20901607.672
 11  7 25  2 23  0.0000000  0  9G12G05G25G04G27G09G02G17G10
 110604762.483 8  86185699.555 7  21047404.617
 113324465.126 8  88304838.357 7  21564902.531
 123391902.112 7  96149630.692 6  23480702.727
 116022277.502 7  90407134.47845  22078306.172                    22078314.086
 128134432.379 5  99845106.39642  24383186.141                    24383197.797
 127552441.424 6  99391549.88343  24272426.398                    24272437.684
 108133722.116 8  84260128.72246  20577149.594                    20577154.480
 123909076.560 6  96552598.615 6  23579109.453
 109852811.163 8  85599519.92846  20904245.438                    20904253.133
 11  7 25  2 23 30.0000000  0  9G12G05G25G04G27G09G02G17G10
 110564035.022 8  86153963.909 7  21039654.539
 113243340.697 8  88241624.559 7  21549464.797
 123300337.564 7  96078281.813 6  23463278.320
 116102277.209 7  90469471.92845  22093529.289                    22093537.188
 128200290.31315  99896424.19352  24395716.914                    24395730.672
 127637093.937 6  99457512.79743  24288534.805                    24288546.102
 108141430.864 8  84266135.56146  20578616.531                    20578621.727
 123970804.855 6  96600698.604 6  23590855.945
 109867345.905 8  85610845.72846  20907011.227                    20907019.438
 11  7 25  2 24  0.0000000  0  9G12G05G25G04G27G09G02G17G10
 110523820.037 8  86122627.606 7  21032001.797
 113162598.599 8  88178708.687 7  21534099.758
 123209044.598 7  96007144.552 6  23445906.125
 116182373.708 7  90531884.78545  22108771.055                    22108779.195
 128266120.727 4                  24408243.328
 127721792.031 6  99523511.22443  24304652.367                    24304663.469
 108149404.542 8  84272348.83446  20580133.734                    20580139.434
 124032702.977 7  96648930.920 7  23602634.492
 109882511.860 8  85622663.38746  20909896.992                    20909905.066
 11  7 25  2 24 30.0000000  0  9G12G05G25G04G27G09G02G17G10
 110484119.504 8  86091692.168 7  21024446.820
 113082241.259 7  88116092.617 7  21518808.117
 123118025.897 7  95936220.963 6  23428585.547
 116262565.319 7  90594371.74545  22124031.406                    22124039.598
 128331920.875 4                  24420765.453
 127806532.325 6  99589542.53843  24320777.883                    24320789.309
 108157641.795 8  84278767.47446  20581701.055                    20581705.875
 124094771.161 7  96697295.772 6  23614445.602
 109898308.392 8  85634972.38846  20912903.086                    20912911.234
 11  7 25  2 25  0.0000000  0  9G12G05G25G04G27G09G02G17G10
 110444934.404 8  86061158.362 7  21016990.086
 113002271.411 8  88053778.508 7  21503590.813
 123027284.262 7  95865513.301 6  23411317.391
 116342850.273 7  90656931.46145  22139308.406                    22139317.313
 128397688.146 5                  24433280.594
 127891311.881 6  99655604.45443  24336911.672                    24336922.156
 108166141.831 8  84285390.90346  20583318.664                    20583324.055
 124157009.522 6  96745793.221 6  23626289.164
 109914735.423 8  85647772.68246  20916029.063                    20916036.551
 11  7 25  2 25 30.0000000  0  9G12G05G25G04G27G09G02G17G10
 110406266.640 8  86031027.695 7  21009632.352
 112922691.145 8  87991767.961 7  21488446.984
 122936822.087 7  95795023.375 6  23394103.492
 116423226.804 7  90719562.52445  22154604.242                    22154611.973
 128463419.856 5                  24445790.555
 127976127.382 6  99721694.36844  24353051.945                    24353062.930
 108174903.165 8  84292217.94246  20584986.055                    20584991.355
 124219418.174 6  96794423.333 6  23638165.680
 109931791.488 8  85661063.13446  20919274.828                    20919282.828
 11  7 25  2 26  0.0000000  0  9G12G05G25G04G27G09G02G17G10
 110368118.134 8  86001301.596 7  21002372.695
 112843504.079 7  87930063.789 7  21473378.141
 122846642.164 7  95724753.389 6  23376942.578
 116503693.078 7  90782263.49545  22169916.281                    22169924.211
 128529113.16815                  24458290.797
 128060975.443 6  99787809.69544  24369198.125                    24369208.859
 108183924.914 8  84299247.88546  20586702.703                    20586707.680
 124281998.049 6  96843186.883 6  23650074.016
 109949476.647 8  85674843.79346  20922640.352                    20922647.613
 11  7 25  2 26 30.0000000  0  9G12G05G25G04G27G09G02G17G10
 110330490.712 8  85971981.570 7  20995212.039
 112764712.264 8  87868667.621 7  21458384.320
 122756747.202 7  95654705.422 6  23359835.898
 116584247.772 7  90845033.39345  22185245.352                    22185253.625
 128594765.80215                  24470784.445
 128145852.882 6  99853947.87843  24385349.656                    24385360.738
 108193205.807 8  84306479.77046  20588468.820                    20588473.969
 124344749.172 6  96892083.911 6  23662015.203
 109967790.045 8  85689113.99546  20926125.242                    20926132.492
 11  7 25  2 27  0.0000000  0  9G12G05G25G04G27G09G02G17G10
 110293385.988 8  85943068.832 7  20988151.445
 112686318.203 7  87807581.374 7  21443467.188
 122667139.921 7  95584881.658 6  23342784.367
 116664889.075 7  90907870.78045  22200591.188                    22200598.848
 128660375.21715                  24483267.789
 128230756.528 6  99920106.51943  24401506.055                    24401517.016
 108202744.762 8  84313912.73946  20590284.016                    20590289.141
 124407671.701 7  96941114.436 6  23673989.008
 109986731.065 8  85703873.25946  20929729.484                    20929736.914
 11  7 25  2 27 30.0000000  0  9G12G05G25G04G27G09G02G17G10
 110256804.994 8  85914564.194 7  20981190.570
 112608324.078 8  87746806.789 7  21428624.500
 122577822.534 7  95515283.730 6  23325787.695
 116745614.869 7  90970774.00545  22215952.609                    22215960.820
 128725937.40215                  24495746.797
 128315682.898 6  99986282.82743  24417667.609                    24417677.719
 108212540.096 8  84321545.48546  20592147.945                    20592152.980
 124470765.641 6  96990278.558 6  23685994.852
 110006298.811 8  85719120.87646  20933453.000                    20933460.410
 11  7 25  2 28  0.0000000  0  8G12G05G25G04G09G02G17G10
 110220750.005 8  85886469.433 7  20974329.188
 112530732.892 8  87686346.168 7  21413859.594
 122488798.225 7  95445914.155 6  23308847.156
 116826424.105 7  91033742.22545  22231329.859                    22231338.133
 128400629.191 6 100052474.74443  24433831.984                    24433842.801
 108222591.203 8  84329377.54546  20594060.719                    20594065.996
 124534031.531 6  97039576.684 6  23698034.164
 110026493.004 8  85734856.64246  20937295.891                    20937303.301
 11  7 25  2 28 30.0000000  0  8G12G05G25G04G09G02G17G10
 110185223.092 8  85858786.148 7  20967568.617
 112453547.427 8  87626201.692 7  21399171.789
 122400069.634 7  95376775.034 6  23291962.461
 116907315.047 7  91096774.12645  22246723.227                    22246731.082
 128485592.376 6 100118679.71143  24449999.609                    24450010.961
 108232896.993 8  84337408.05446  20596021.781                    20596026.945
 124597469.921 6  97089009.204 6  23710105.656
 110047312.726 8  85751079.83646  20941257.477                    20941265.008
 11  7 25  2 29  0.0000000  0  9G12G05G25G29G04G09G02G17G10
 110150224.719 8  85831514.704 7  20960908.719
 112376769.708 8  87566374.945 7  21384561.219
 122311639.056 7  95307868.103 6  23275134.719
 132850057.24515 103519346.37915  25280460.188
 116988285.721 7  91159868.14545  22262131.406                    22262139.473
 128570568.613 6 100184894.85443  24466169.414                    24466181.148
 108243455.677 8  84345635.61946  20598031.000                    20598036.469
 124661080.493 6  97138575.856 6  23722211.086
 110068756.720 8  85767789.45246  20945338.266                    20945346.078
 11  7 25  2 29 30.0000000  0  9G12G05G25G29G04G09G02G17G10
 110115757.027 8  85804656.792 7  20954349.984
 112300402.430 8  87506868.015 7  21370029.258
 122223509.516 7  95239195.769 6  23258364.367
 132773060.774 5 103459349.308 5  25265808.211
 117069334.769 7  91223023.26345  22277554.367                    22277562.391
 128655554.987 6 100251117.92843  24482343.195                    24482353.730
 108254266.958 8  84354060.02246  20600088.102                    20600093.918
 124724864.134 6  97188277.424 6  23734348.117
 110090824.764 7  85784985.34646  20949537.742                    20949545.148
 11  7 25  2 30  0.0000000  0  9G12G05G25G29G04G09G02G17G10
 110081821.786 8  85778213.752 7  20947891.898
 112224448.276 8  87447683.017 7  21355575.414
 122135683.636 7  95170760.019 6  23241651.070
 132695983.216 5 103399289.001 5  25251141.953
 117150460.607 7  91286238.19145  22292991.758                    22293000.848
 128740548.735 6 100317346.75543  24498515.883                    24498527.313
 108265329.249 8  84362680.01146  20602193.117                    20602198.547
 124788820.876 6  97238113.889 6  23746518.891
 110113516.044 8  85802666.88446  20953855.672                    20953863.297
 11  7 25  2 30 30.0000000  0  9G12G05G25G29G04G09G02G17G10
 110048420.348 8  85752186.682 7  20941535.781
 112148909.619 8  87388821.763 7  21341200.844
 122048164.157 7  95102563.014 6  23224997.180
 132618824.711 5 103339165.640 5  25236458.820
 117231661.701 7  91349511.75745  22308444.227                    22308452.898
 128825546.454 6 100383578.60643  24514690.375                    24514702.461
 108276641.772 8  84371494.98146  20604345.797                    20604351.188
 124852951.050 6  97288085.461 6  23758723.047
 110136829.834 7  85820833.48946  20958292.359                    20958299.746
 11  7 25  2 31  0.0000000  0  9G12G05G25G29G04G09G02G17G10
 110015553.987 8  85726576.541 7  20935281.648
 112073788.689 8  87330286.037 7  21326905.992
 121960953.388 7  95034606.556 6  23208401.508
 132541585.224 5 103278979.073 5  25221760.133
 117312936.090 7  91412842.47045  22323910.250                    22323918.465
 128910544.658 6 100449810.82343  24530864.914                    24530877.477
 108288202.672 8  84380503.49346  20606546.195                    20606551.219
 124917254.569 6  97338192.083 6  23770958.734
 110160764.708 8  85839484.07046  20962846.914                    20962854.176
 11  7 25  2 31 30.0000000  0  9G12G05G25G29G04G09G02G17G10
 109983224.244 8  85701384.568 7  20929129.750
 111999088.092 8  87272077.816 7  21312690.719
 121874053.958 7  94966892.742 6  23191865.242
 132463923.81016 103218729.48715  25207047.398
 117394282.237 7  91476229.08845  22339389.852                    22339398.297
 128995540.401 6 100516041.16643  24547040.281                    24547050.734
 108300010.937 8  84389704.75746  20608793.063                    20608798.488
 124981731.526 6  97388433.887 6  23783228.945
 110185319.692 8  85858617.83946  20967519.242                    20967527.020
 11  7 25  2 32  0.0000000  0  9G12G05G25G29G04G09G02G17G10
 109951433.069 8  85676612.242 7  20923079.977
 111924810.436 8  87214199.169 7  21298556.305
 121787469.129 7  94899424.038 6  23175388.406
 132386523.379 5 103158417.665 4  25192317.789
 117475699.080 7  91539670.78845  22354883.188                    22354890.801
 129080530.736 6 100582267.25643  24563213.336                    24563224.711
 108312066.050 8  84399098.36546  20611086.875                    20611092.492
 125046382.764 7  97438811.468 6  23795531.695
 110210494.693 7  85878234.72746  20972310.047                    20972317.816
 11  7 25  2 32 30.0000000  0  9G12G05G25G29G04G09G02G17G10
 109920181.479 8  85652260.381 7  20917132.898
 111850958.119 8  87156651.925 7  21284502.828
 121701201.162 7  94832202.258 6  23158971.883
 132309042.590 6 103098043.239 4  25177575.156
 117557184.537 7  91603165.96145  22370389.391                    22370397.203
 129165512.355 6 100648486.60743  24579384.656                    24579396.305
 108324366.450 8  84408683.11746  20613427.313                    20613432.750
 125111208.034 6  97489324.656 6  23807867.398
 110236288.255 8  85898333.61346  20977218.156                    20977226.117
 11  7 25  2 33  0.0000000  0  9G12G05G25G29G04G09G02G17G10
 109889470.692 8  85628329.922 7  20911288.625
 111777533.490 8  87099437.966 7  21270530.461
 121615252.564 7  94765229.371 6  23142617.102
 132231481.740 6 103037606.358 5  25162814.063
 117638737.194 7  91666713.49545  22385908.203                    22385916.078
 129250481.850 6 100714696.51043  24595553.492                    24595565.316
 108336910.873 8  84418458.00546  20615814.828                    20615819.984
 125176207.778 6  97539973.817 6  23820236.414
 110262699.039 8  85918913.46246  20982244.195                    20982251.434
 11  7 25  2 33 30.0000000  0  9G12G05G25G29G04G09G02G17G10
 109859302.589 8  85604822.325 7  20905548.094
 111704539.345 8  87042559.464 7  21256639.898
 121529626.230 7  94698507.635 6  23126322.633
 132153841.147 5 102977107.300 5  25148038.742
 117720355.548 7  91730312.23145  22401439.766                    22401448.398
 129335436.299 6 100780894.71243  24611720.891                    24611731.719
 108349698.265 8  84428422.22346  20618248.352                    20618253.609
 125241382.001 6  97590758.930 6  23832638.219
 110289726.363 7  85939973.72746  20987387.508                    20987395.027
 11  7 25  2 34  0.0000000  0  9G12G05G25G29G04G09G02G17G10
 109829679.178 8  85581739.167 7  20899910.773
 111631977.749 8  86986018.015 7  21242831.867
 121444324.869 7  94632039.122 6  23110090.484
 132076121.33014 102916546.10615  25133247.938
 117802038.062 7  91793960.95245  22416982.961                    22416991.445
 129420372.807 6 100847078.85343  24627883.844                    24627895.406
 108362727.736 8  84438575.07646  20620727.383                    20620732.902
 125306731.286 6  97641680.485 6  23845074.789
 110317369.429 7  85961513.78846  20992647.617                    20992655.066
 11  7 25  2 34 30.0000000  0  9G12G05G25G29G04G09G02G17G10
 109800600.538 8  85559080.531 7  20894377.320
 111559850.595 8  86929815.064 7  21229106.484
 121359350.708 7  94565825.585 6  23093920.031
 131998321.29814 102855922.75315  25118444.430
 117883782.937 7  91857658.26445  22432538.422                    22432546.992
 129505287.855 6 100913246.35544  24644042.594                    24644053.930
 108375997.526 8  84448915.18846  20623252.430                    20623257.594
 125372255.479 6  97692738.286 6  23857543.281
 110345626.645 8  85983532.41046  20998024.750                    20998032.375
 11  7 25  2 35  0.0000000  0  9G12G05G25G04G27G09G02G17G10
 109772068.019 7  85536847.414 7  20888947.539
 111488160.306 7  86873952.553 7  21215464.297
 121274706.297 7  94499869.019 7  23077812.859
 117965588.564 7  91921402.91445  22448105.672                    22448114.215
 129702096.59214                  24681506.484
 129590178.249 6 100979394.59643  24660196.617                    24660208.508
 108389506.328 7  84459441.53546  20625823.672                    20625828.617
 125437954.406 6  97743932.257 6  23870044.875
 110374496.833 7  86006028.65946  21003518.594                    21003525.539
 11  7 25  2 35 30.0000000  0  9G12G05G25G04G27G09G02G17G10
 109744083.648 8  85515041.440 7  20883622.305
 111416909.834 8  86818432.741 7  21201905.781
 121190394.708 7  94434171.798 7  23061768.453
 118047453.951 7  91985194.12945  22463684.063                    22463693.141
 129766572.84215                  24693776.773
 129675041.559 6 101045521.78644  24676345.781                    24676356.859
 108403253.633 8  84470153.74546  20628439.203                    20628444.445
 125503828.644 6  97795262.869 6  23882580.672
 110403979.013 8  86029001.80046  21009129.063                    21009136.590
 11  7 25  2 36  0.0000000  0  9G12G05G25G04G27G09G02G17G10
 109716648.808 8  85493663.671 7  20878401.719
 111346101.323 8  86763257.336 7  21188431.273
 121106418.479 7  94368735.911 7  23045787.984
 118129377.443 7  92049030.60645  22479273.672                    22479282.297
 129830959.89514                  24706028.578
 129759874.596 6 101111625.34843  24692488.172                    24692500.844
 108417238.203 8  84481050.82646  20631100.164                    20631105.422
 125569878.603 6  97846730.366 6  23895149.000
 110434072.276 7  86052451.11846  21014855.297                    21014863.246
 11  7 25  2 36 30.0000000  0  9G12G05G25G04G27G09G02G17G10
 109689765.053 8  85472715.315 7  20873285.984
 111275737.010 8  86708428.035 7  21175041.195
 121022780.369 7  94303563.482 6  23029872.172
 118211357.700 7  92112911.33844  22494874.195                    22494882.766
 129895255.04214                  24718263.305
 129844674.241 6 101177702.93043  24708626.398                    24708637.430
 108431459.179 8  84492132.12046  20633806.484                    20633812.031
 125636104.646 6  97898335.048 6  23907751.109
 110464775.696 7  86076375.86545  21020698.031                    21020705.340
 11  7 25  2 37  0.0000000  0  9G12G05G25G04G27G09G02G17G10
 109663432.999 8  85452196.843 7  20868274.992
 111205819.175 8  86653946.660 7  21161736.352
 120939482.795 7  94238656.415 6  23014021.656
 118293393.078 7  92176835.03645  22510484.820                    22510493.723
 129959455.49615                  24730480.805
 129929437.214 6 101243751.92643  24724755.430                    24724767.129
 108445914.925 8  84503396.36346  20636557.117                    20636562.727
 125702506.514 6  97950076.786 6  23920387.922
 110496087.881 7  86100774.97546  21026656.414                    21026663.879
 11  7 25  2 37 30.0000000  0  8G12G05G25G04G09G02G17G10
 109637654.114 7  85432109.444 7  20863369.414
 111136350.664 8  86599815.392 7  21148516.969
 120856528.484 7  94174016.806 6  22998235.414
 118375482.163 7  92240800.54445  22526105.867                    22526114.352
 130014160.728 6 101309770.17543  24740878.344                    24740889.633
 108460604.657 8  84514842.93246  20639352.484                    20639358.074
 125769084.590 6  98001955.784 6  23933057.156
 110528007.661 7  86125647.53546  21032730.844                    21032738.258
 11  7 25  2 38  0.0000000  0  9G12G05G25G04G27G09G02G17G10
 109612429.708 8  85412454.081 7  20858569.523
 111067333.246 8  86546035.628 7  21135383.219
 120773919.919 7  94109646.590 6  22982515.477
 118457623.240 7  92304806.57344  22541736.891                    22541745.402
 130087568.84515                  24754859.234
 130098841.418 6 101375755.06042  24756992.172                    24757003.375
 108475526.904 8  84526470.67146  20642192.148                    20642197.535
 125835838.637 6  98053971.943 6  23945759.422
 110560533.343 8  86150992.22346  21038919.813                    21038927.672
 11  7 25  2 38 30.0000000  0 10G12G05G25G29G04G27G09G02G17G10
 109587761.115 8  85393231.819 7  20853875.094
 110998769.217 8  86492609.154 7  21122335.852
 120691659.862 7  94045547.943 6  22966861.727
 131373533.25115                  24999547.961
 118539815.311 7  92368852.34344  22557377.438                    22557385.785
 130151470.837 5                  24767020.906
 130183476.429 5 101441704.34542  24773097.367                    24773109.117
 108490680.603 8  84538278.76546  20645075.898                    20645081.230
 125902769.153 6  98106125.599 6  23958496.148
 110593664.041 8  86176808.36045  21045224.594                    21045231.902
 11  7 25  2 39  0.0000000  0 10G12G05G25G29G04G27G09G02G17G10
 109563649.036 8  85374443.203 7  20849286.836
 110930660.741 8  86439537.656 7  21109375.250
 120609750.706 7  93981722.720 7  22951275.391
 131295029.01015                  24984597.617
 118622056.641 7  92432936.50344  22573027.352                    22573035.566
 130215268.458 5                  24779160.375
 130268062.769 5 101507615.65143  24789194.094                    24789205.977
 108506064.823 8  84550266.48346  20648003.516                    20648008.609
 125969876.331 6  98158416.903 6  23971266.203
 110627398.139 7  86203094.67945  21051644.000                    21051651.094
 11  7 25  2 39 30.0000000  0 10G12G05G25G29G04G27G09G02G17G10
 109540095.466 8  85356089.810 7  20844804.570
 110863010.774 8  86386823.440 7  21096501.883
 120528195.587 7  93918173.378 7  22935755.180
 131216448.676 5                  24969637.625
 118704346.284 7  92497058.32145  22588686.055                    22588694.719
 130278959.61515                  24791279.367
 130352597.737 5 101573486.94743  24805280.719                    24805292.145
 108521678.773 8  84562433.22846  20650974.477                    20650980.141
 126037160.563 6  98210846.165 6  23984069.641
 110661734.934 8  86229850.62846  21058177.703                    21058185.328
 11  7 25  2 40  0.0000000  0  9G12G05G25G04G27G09G02G17G10
 109517100.922 7  85338172.003 7  20840428.805
 110795820.994 8  86334467.788 7  21083716.305
 120446996.571 7  93854901.509 6  22920303.391
 118786682.478 7  92561216.38944  22604354.852                    22604362.992
 130342541.538 5                  24803380.328
 130437077.979 5 101639315.60042  24821357.336                    24821369.074
 108537520.803 8  84574777.69546  20653988.969                    20653994.434
 126104621.534 6  98263413.201 6  23996907.664
 110696672.636 7  86257074.81846  21064826.797                    21064834.672
 11  7 25  2 40 30.0000000  0  9G12G05G25G04G27G09G02G17G10
 109494666.995 7  85320691.010 7  20836159.984
 110729093.571 8  86282472.432 7  21071018.586
 120366156.413 7  93791909.282 6  22904920.398
 118869063.709 7  92625409.54944  22620031.547                    22620039.332
 130406011.810 5                  24815459.617
 130521500.74215 101705099.43852  24837420.883                    24837434.211
 108553589.752 8  84587298.97446  20657046.766                    20657051.992
 126172259.500 6  98316118.119 6  24009778.656
 110732209.919 7  86284766.22145  21071588.852                    21071596.875
 11  7 25  2 41  0.0000000  0  9G12G05G25G04G27G09G02G17G10
 109472794.015 8  85303647.150 7  20831997.578
 110662830.418 8  86230838.845 7  21058408.461
 120285677.477 7  93729198.495 6  22889605.922
 118951488.634 7  92689636.77044  22635716.063                    22635724.434
 130469367.617 5 101664568.16652  24827514.258                    24827527.605
 130605862.677 6 101770835.87442  24853475.867                    24853486.891
 108569884.439 8  84599996.15846  20660147.859                    20660153.051
 126240074.188 6  98368960.727 6  24022683.758
 110768345.141 7  86312923.55146  21078465.422                    21078472.316
 11  7 25  2 41 30.0000000  0 10G12G05G25G29G04G27G09G02G17G10
 109451483.561 8  85287041.642 7  20827942.164
 110597033.938 8  86179568.898 7  21045887.992
 120205562.400 7  93666771.201 6  22874360.164
 130900845.08015 102000786.08315  24909616.484
 119033955.798 7  92753896.90944  22651409.477                    22651417.234
 130532607.02714 101713845.23152  24839548.664                    24839563.348
 130690160.814 6 101836522.65743  24869516.781                    24869529.055
 108586403.692 8  84612868.32546  20663291.484                    20663296.793
 126308066.047 6  98421941.410 6  24035621.414
 110805076.982 8  86341545.78046  21085455.469                    21085462.469
 11  7 25  2 42  0.0000000  0 10G12G05G25G29G04G27G09G02G17G10
 109430736.450 8  85270875.083 7  20823993.930
 110531706.217 8  86128664.212 7  21033456.703
 120125813.721 7  93604629.441 6  22859184.109
 130821885.02215 101939258.86614  24894592.039
 119116463.915 7  92818188.94644  22667109.844                    22667118.254
 130595727.82214                  24851559.242
 130774392.305 6 101902157.54943  24885545.391                    24885557.504
 108603146.348 8  84625914.57346  20666477.680                    20666482.844
 126376235.246 7  98475060.307 6  24048593.813
 110842403.942 7  86370631.72446  21092558.156                    21092566.109
 11  7 25  2 42 30.0000000  0  9G12G05G25G04G27G09G02G17G10
 109410553.808 8  85255148.348 7  20820153.227
 110466849.431 8  86078126.501 7  21021115.047
 120046434.178 7  93542775.309 7  22844078.648
 119199011.584 7  92882511.79544  22682818.180                    22682826.352
 130658724.58515                  24863549.219
 130858554.263 6 101967738.18643  24901560.648                    24901573.949
 108620111.582 8  84639134.25146  20669705.555                    20669711.355
 126444581.894 6  98528317.403 6  24061600.047
 110880324.846 8  86400180.49145  21099774.305                    21099781.594
 11  7 25  2 43  0.0000000  0  9G12G05G25G29G04G09G02G17G10
 109390937.258 8  85239862.742 7  20816420.375
 110402466.157 8  86027957.750 8  21008862.742
 119967426.635 7  93481211.040 7  22829044.641
 130663734.52915 101815986.58615  24864496.188
 119281597.813 7  92946864.70044  22698534.219                    22698541.984
 130942644.111 6 102033262.60743  24917563.523                    24917575.645
 108637298.453 8  84652526.63346  20672976.375                    20672981.645
 126513106.183 6  98581712.973 6  24074639.195
 110918838.366 8  86430191.03246  21107103.555                    21107110.480
 11  7 25  2 43 30.0000000  0  9G12G05G25G29G04G09G02G17G10
 109371887.207 8  85225018.558 7  20812795.375
 110338558.069 8  85978159.278 7  20996701.453
 119888793.188 7  93419938.264 7  22814080.797
 130584550.88915 101754284.98915  24849428.859
 119364220.819 7  93011246.26144  22714256.742                    22714264.977
 131026658.376 5 102098728.15643  24933550.586                    24933562.871
 108654705.383 8  84666090.50346  20676288.531                    20676293.996
 126581807.955 6  98635246.867 6  24087712.914
 110957942.582 7  86460661.86546  21114544.703                    21114552.605
 11  7 25  2 44  0.0000000  0  9G12G05G25G29G04G09G02G17G10
 109353404.596 8  85210616.543 7  20809278.102
 110275127.364 8  85928732.791 7  20984631.031
 119810536.619 7  93358959.188 7  22799188.734
 130505293.58715 101692526.12515  24834345.836
 119446879.561 7  93075655.66744  22729986.461                    22729994.676
 131110594.228 6 102164132.52643  24949524.188                    24949535.648
 108672331.432 8  84679825.11046  20679643.008                    20679648.379
 126650687.384 6  98688919.123 6  24100820.164
 110997636.276 7  86491592.02846  21122097.961                    21122105.250
 11  7 25  2 44 30.0000000  0  9G12G05G25G29G04G09G02G17G10
 109335490.411 8  85196657.457 7  20805869.516
 110212176.133 8  85879679.927 7  20972652.148
 119732659.195 7  93298275.517 7  22784369.172
 130425963.12215 101630710.21315  24819246.047
 119529572.520 7  93140091.72744  22745722.156                    22745730.258
 131194448.709 5 102229473.60543  24965481.078                    24965492.320
 108690175.327 8  84693729.46446  20683038.273                    20683043.543
 126719744.464 6  98742729.834 6  24113961.016
 111037917.393 8  86522979.93045  21129763.148                    21129770.430
 11  7 25  2 45  0.0000000  0  9G12G05G25G04G27G09G02G17G10
 109318145.193 8  85183141.708 7  20802568.938
 110149706.148 8  85831002.048 7  20960764.414
 119655163.221 7  93237889.100 7  22769622.094
 119612298.114 7  93204553.25544  22761464.508                    22761472.113
 130971824.80215                  24923128.836
 131278218.609 6 102294748.70543  24981422.063                    24981433.195
 108708235.696 8  84707802.49446  20686475.227                    20686480.383
 126788978.791 6  98796678.657 5  24127136.289
 111078784.304 7  86554824.29645  21137539.578                    21137546.813
 11  7 25  2 45 30.0000000  0 10G12G05G25G29G04G27G09G02G17G10
 109301369.995 8  85170070.146 7  20799376.156
 110087719.331 8  85782700.660 7  20948968.664
 119578051.556 7  93177802.101 7  22754948.836
 130267081.20215 101506922.87015  24789016.344
 119695055.166 7  93269039.27644  22777212.391                    22777220.043
 131034045.693 5                  24934969.313
 131361901.314 6 102359955.86143  24997347.117                    24997357.957
 108726511.749 8  84722043.59446  20689952.711                    20689958.313
 126858390.790 6  98850765.936 6  24140345.055
 111120235.546 7  86587123.97246  21145427.914                    21145435.441
 11  7 25  2 46  0.0000000  0 10G12G05G25G29G04G27G09G02G17G10
 109285166.053 7  85157443.703 7  20796292.977
 110026218.185 8  85734777.733 8  20937265.242
 119501326.821 7  93118016.642 7  22740348.313
 130187532.922 5 101444937.393 5  24773878.367
 119777842.627 7  93333548.98644  22792966.281                    22792974.668
 131096128.331 5                  24946784.102
 131445493.941 6 102425092.85143  25013253.797                    25013265.477
 108745002.749 8  84736452.18146  20693471.656                    20693477.184
 126927980.880 6  98904992.005 5  24153587.547
 111162269.827 8  86619877.97646  21153426.531                    21153434.270
 11  7 25  2 46 30.0000000  0 10G12G05G25G29G04G27G09G02G17G10
 109269534.026 7  85145262.939 7  20793318.547
 109965204.295 8  85687234.487 7  20925654.609
 119424991.339 7  93058534.492 7  22725822.273
 130107912.764 4 101382895.912 5  24758723.008
 119860659.377 7  93398081.50844  22808726.016                    22808733.637
 131158070.660 4                  24958569.828
 131528993.636 6 102490157.38843  25029142.750                    25029154.375
 108763706.925 8  84751026.87346  20697030.977                    20697035.918
 126997748.955 6  98959356.704 5  24166864.172
 111204885.106 8  86653084.69246  21161536.250                    21161543.492
 11  7 25  2 47  0.0000000  0 10G12G05G25G29G04G27G09G02G17G10
 109254475.539 7  85133529.071 8  20790452.609
 109904680.169 8  85640072.857 7  20914137.273
 119349048.127 7  92999357.961 7  22711370.508
 130028221.721 5 101320799.158 5  24743562.023
 119943504.183 7  93462635.90144  22824490.992                    22824498.539
 131219870.87314                  24970329.000
 131612397.747 5 102555147.42942  25045013.445                    25045026.188
 108782623.892 8  84765767.38746  20700630.906                    20700635.570
 127067695.201 6  99013860.277 5  24180174.359
 111248080.146 7  86686743.17745  21169755.758                    21169762.980
 11  7 25  2 47 30.0000000  0 10G12G05G25G29G04G27G09G02G17G10
 109239990.582 7  85122242.114 8  20787696.141
 109844647.440 8  85593294.151 7  20902713.453
 119273499.310 7  92940488.774 7  22696993.703
 129948459.754 5 101258647.257 5  24728383.383
 120026375.576 7  93527211.00644  22840260.422                    22840268.746
 131281525.94515                  24982064.305
 131695703.459 5 102620060.77042  25060866.609                    25060879.543
 108801752.029 8  84780672.44346  20704270.695                    20704275.684
 127137819.433 5  99068502.566 5  24193518.602
 111291852.852 8  86720851.78346  21178085.508                    21178093.227
 11  7 25  2 48  0.0000000  0 10G12G05G25G29G04G27G09G02G17G10
 109226079.645 8  85111402.418 7  20785049.133
 109785107.893 8  85546899.720 7  20891383.305
 119198347.214 7  92881928.744 7  22682693.000
 129868627.035 5 101196440.203 5  24713191.297
 120109272.171 7  93591805.76244  22856035.398                    22856043.805
 131343033.37715                  24993769.180
 131778907.558 5 102684895.02742  25076699.688                    25076712.762
 108821090.264 8  84795741.22046  20707950.602                    20707955.609
 127208121.485 5  99123283.337 4  24206896.578
 111336201.378 7  86755409.10946  21186524.609                    21186531.906
 11  7 25  2 48 30.0000000  0 10G12G05G25G29G04G27G09G02G17G10
 109212743.604 8  85101010.715 7  20782511.617
 109726063.609 8  85500891.218 7  20880147.797
 119123594.369 7  92823679.831 7  22668468.070
 129788724.443 5 101134178.532 6  24697986.266
 120192192.727 7  93656419.17944  22871814.438                    22871822.949
 131404391.49015                  25005445.867
 131862007.332 5 102749647.94642  25092512.938                    25092526.141
 108840637.540 8  84810972.87146  20711670.320                    20711675.027
 127278601.585 6  99178202.831 5  24220308.008
 111381124.213 7  86790413.91545  21195072.883                    21195080.324
 11  7 25  2 49  0.0000000  0  9G12G05G25G29G04G09G02G17G10
 109199983.534 8  85091067.840 7  20780083.039
 109667516.656 8  85455270.249 7  20869006.742
 119049243.428 7  92765744.091 7  22654319.664
 129708752.260 6 101071862.629 5  24682768.734
 120275136.303 7  93721050.52644  22887597.961                    22887606.496
 131944999.886 5 102814317.31042  25108305.914                    25108319.020
 108860392.848 8  84826366.63646  20715429.734                    20715434.859
 127349259.813 5  99233261.228 5  24233752.227
 111426619.448 8  86825864.75346  21203730.727                    21203738.254
 11  7 25  2 49 30.0000000  0  9G12G05G25G29G04G09G02G17G10
 109187799.803 7  85081574.023 7  20777764.531
 109609468.386 8  85410037.884 7  20857960.422
 118975296.443 7  92708123.138 7  22640247.594
 129628710.338 6 101009492.463 5  24667537.313
 120358101.236 7  93785698.52844  22903385.656                    22903394.395
 132027882.402 6 102878900.98042  25124078.703                    25124091.176
 108880354.694 8  84841921.34646  20719228.000                    20719233.508
 127420095.762 4  99288458.129 4  24247230.063
 111472685.106 8  86861760.09746  21212496.672                    21212503.938
 11  7 25  2 50  0.0000000  0  9G12G05G25G29G04G09G02G17G10
 109176193.283 8  85072529.987 7  20775556.172
 109551920.965 8  85365195.785 7  20847008.938
 118901756.228 7  92650819.129 7  22626253.320
 129548600.110 6 100947069.061 5  24652292.492
 120441086.702 7  93850362.53644  22919177.086                    22919185.152
 132110652.379 6 102943396.91442  25139828.898                    25139841.504
 108900522.412 8  84857636.47146  20723066.266                    20723070.945
 127491109.656 5  99343793.523 4  24260747.398
 111519319.668 7  86898098.74046  21221371.094                    21221378.785
 11  7 25  2 50 30.0000000  0  9G12G05G25G29G04G09G02G17G10
 109165164.790 8  85063936.373 7  20773457.055
 109494876.776 8  85320745.800 7  20836154.383
 118828625.277 7  92593834.015 7  22612337.320
 129468421.857 6 100884592.585 5  24637035.484
 120524091.340 7  93915041.45144  22934972.422                    22934979.992
 132193306.730 6 103007802.73342  25155559.078                    25155570.813
 108920894.838 8  84873511.10246  20726942.633                    20726947.762
 127562301.44014  99399267.75615  24274293.906
 111566521.293 7  86934879.23545  21230352.875                    21230360.723
 11  7 25  2 51  0.0000000  0  9G12G05G25G29G04G09G02G17G10
 109154714.641 8  85055793.412 7  20771468.813
 109438336.978 8  85276688.839 7  20825394.641
 118755905.690 7  92537169.471 7  22598499.000
 129388175.859 6 100822063.333 5  24621764.758
 120607113.895 7  93979734.36344  22950771.656                    22950779.090
 132275842.377 6 103072116.10642  25171264.688                    25171276.719
 108941470.652 8  84889544.22046  20730858.141                    20730863.074
 127633671.31215  99454880.66315  24287874.766
 111614287.847 7  86972099.92345  21239443.531                    21239449.766
 11  7 25  2 51 30.0000000  0  9G12G05G25G29G04G09G02G17G10
 109144843.679 8  85048101.773 7  20769590.023
 109382303.789 8  85233026.658 7  20814732.023
 118683600.226 7  92480827.632 7  22584739.484
 129307862.797 6 100759481.819 6  24606481.180
 120690153.482 7  94044440.54444  22966572.516                    22966581.594
 132358257.030 6 103136335.31742  25186947.188                    25186959.914
 108962249.233 8  84905735.32946  20734811.813                    20734816.906
 127705219.160 5  99510632.261 5  24301493.508
 111662617.796 7  87009759.63845  21248639.625                    21248647.398
 11  7 25  2 52  0.0000000  0  9G12G05G25G29G04G09G02G17G10
 109135552.132 8  85040861.613 7  20767821.984
 109326778.425 8  85189760.180 7  20804165.898
 118611711.089 7  92424810.197 7  22571059.609
 129227482.971 6 100696848.272 6  24591185.008
 120773208.601 7  94109158.79344  22982378.172                    22982386.098
 132440547.822 6 103200457.81842  25202606.641                    25202619.250
 108983229.113 8  84922083.29346  20738804.750                    20738809.477
 127776944.636 5  99566522.280 5  24315141.063
 111711509.185 7  87047856.82545  21257943.258                    21257950.648
 11  7 25  2 52 30.0000000  0  8G12G05G25G29G04G09G02G10
 109126840.722 8  85034073.516 7  20766164.508
 109271762.827 8  85146890.915 7  20793697.031
 118540240.524 7  92369118.917 7  22557458.789
 129147037.000 6 100634163.188 5  24575877.648
 120856277.998 7  94173888.18944  22998185.789                    22998193.691
 132522711.812 6 103264481.41652  25218242.617                    25218255.441
 109004409.069 8  84938587.18146  20742835.102                    20742839.586
 111760959.758 7  87086389.75845  21267353.625                    21267360.762
 11  7 25  2 53  0.0000000  0  9G12G05G25G29G04G09G02G17G10
 109118709.069 8  85027737.177 7  20764617.047
 109217258.373 8  85104419.943 7  20783325.094
 118469190.323 7  92313755.173 7  22543938.938
 129066524.502 6 100571426.338 5  24560555.578
 120939360.108 7  94238627.48444  23013996.273                    23014003.500
 132604745.392 6                  25233852.445
 109025787.585 8  84955245.77146  20746902.953                    20746907.852
 127920929.98615                  24342539.219
 111810966.827 7  87125356.31546  21276869.375                    21276877.016
 11  7 25  2 53 30.0000000  0  9G12G05G25G29G04G09G02G17G10
 109111159.504 8  85021854.418 7  20763180.414
 109163267.798 8  85062349.393 7  20773050.789
 118398564.322 7  92258721.977 7  22530498.805
 128985947.699 7 100508639.366 5  24545222.547
 121022454.905 7  94303376.68544  23029807.898                    23029816.242
 132686647.578 6                  25249438.359
 109047364.739 8  84972059.16046  20751009.336                    20751013.859
 127993188.711 4                  24356288.789
 111861530.099 7  87164756.26045  21286491.141                    21286499.188
 11  7 25  2 54  0.0000000  0  8G12G05G25G29G04G09G02G10
 109104191.529 8  85016424.843 7  20761854.539
 109109792.505 8  85020680.371 7  20762874.789
 118328364.196 7  92204020.648 7  22517140.422
 128905306.430 6 100445802.143 6  24529875.914
 121105560.876 6  94368134.57544  23045622.930                    23045630.953
 132768414.927 6                  25264998.383
 109069138.892 8  84989026.04846  20755152.734                    20755157.750
 111912646.768 7  87204587.43145  21296218.289                    21296226.375
 11  7 25  2 54 30.0000000  0  8G12G05G25G29G04G09G02G10
 109097805.436 8  85011448.675 7  20760639.117
 109056833.968 8  84979414.004 7  20752797.109
 118258592.260 7  92149652.955 7  22503863.594
 128824600.893 7 100382914.861 6  24514518.375
 121188676.554 6  94432900.03044  23061438.648                    23061447.398
 132850044.307 5 103519594.49652  25280531.805                    25280544.223
 109091108.816 8  85006145.47946  20759333.172                    20759337.918
 111964314.876 7  87244848.30745  21306050.625                    21306057.434
 11  7 25  2 55  0.0000000  0  8G12G05G25G29G04G09G02G10
 109092002.402 7  85006926.835 7  20759535.055
 109004394.184 8  84938551.865 7  20742818.438
 118189251.215 7  92095621.023 7  22490667.727
 128743832.084 7 100319978.284 6  24499148.891
 121271801.409 7  94497672.63643  23077257.445                    23077265.008
 132931533.60715 103583092.54052  25296039.125                    25296051.305
 109113274.204 7  85023417.22346  20763551.195                    20763556.301
 112016532.559 7  87285537.43545  21315987.148                    21315994.703
 11  7 25  2 55 30.0000000  0  8G12G05G25G29G04G09G02G10
 109086782.309 7  85002859.251 7  20758541.570
 108952474.340 8  84898094.879 7  20732937.797
 118120343.170 7  92041926.480 7  22477555.289
 128663000.626 6 100256992.844 6  24483767.117
 121354934.093 6  94562451.34244  23093076.438                    23093084.652
 133012879.849 6 103646479.10342  25311518.648                    25311532.273
 109135633.740 8  85040840.25446  20767806.031                    20767811.254
 112069297.576 7  87326653.05845  21326028.047                    21326035.590
 11  7 25  2 56  0.0000000  0  8G12G05G25G29G04G09G02G10
 109082145.233 7  84999245.955 7  20757659.000
 108901076.061 8  84858044.302 7  20723157.672
 118051870.376 7  91988571.119 7  22464525.367
 128582106.959 6 100193958.884 6  24468373.563
 121438073.494 7  94627235.28644  23108897.727                    23108905.879
 133094080.05115 103709751.86752  25326971.234                    25326983.375
 109158185.927 8  85058413.40746  20772097.672                    20772102.281
 112122607.515 7  87368193.27145  21336172.563                    21336180.250
 11  7 25  2 56 30.0000000  0  8G12G05G25G29G04G09G02G10
 109078092.000 8  84996087.614 7  20756887.891
 108850201.261 8  84818401.630 7  20713476.242
 117983835.347 7  91935556.862 7  22451578.391
 128501151.520 7 100130876.793 6  24452967.617
 121521218.505 6  94692023.57744  23124719.977                    23124727.738
 133175131.850 5 103772908.96442  25342394.602                    25342407.770
 109180929.899 8  85076135.99046  20776425.766                    20776430.781
 112176461.064 7  87410157.07245  21346421.000                    21346428.121
 11  7 25  2 57  0.0000000  0  8G12G05G25G29G04G09G02G10
 109074622.541 8  84993384.143 7  20756227.438
 108799851.331 8  84779167.941 8  20703894.953
 117916240.052 7  91882885.233 7  22438715.547
 128420134.762 7 100067746.920 6  24437550.820
 121604367.920 6  94756815.31944  23140541.750                    23140550.613
 133256032.459 5 103835948.15342  25357789.313                    25357803.004
 109203864.420 8  85094007.05446  20780790.016                    20780794.875
 112230855.673 7  87452542.51945  21356771.578                    21356778.754
 11  7 25  2 57 30.0000000  0  8G12G05G25G29G04G09G02G10
 109071737.831 8  84991136.336 7  20755678.586
 108750028.214 8  84740344.766 7  20694413.813
 117849087.428 7  91830558.591 7  22425936.555
 128339058.123 6 100004570.371 6  24422123.398
 121687521.264 7  94821610.08844  23156366.234                    23156374.516
 133336779.862 5                  25373154.656
 109226989.157 8  85112026.37146  20785190.422                    20785195.156
 112285789.757 7  87495348.30745  21367224.859                    21367232.578
 11  7 25  2 58  0.0000000  0  8G12G05G25G29G04G09G02G10
 109069437.876 8  84989344.168 7  20755241.211
 108700733.207 8  84701933.100 8  20685033.359
 117782379.378 7  91778578.331 7  22413242.563
 128257921.762 6  99941347.197 6  24406683.391
 121770677.062 7  94886406.79744  23172190.289                    23172198.543
 133417370.922 4                  25388489.938
 109250302.608 8  85130192.72446  20789626.516                    20789632.023
 112341260.638 7  87538572.36845  21377781.133                    21377788.188
 11  7 25  2 58 30.0000000  0  8G12G05G25G29G04G09G02G10
 109067722.793 8  84988007.754 7  20754914.641
 108651967.856 8  84663934.168 7  20675753.367
 117716118.280 7  91726946.387 7  22400633.336
 128176726.198 6  99878077.953 6  24391231.766
 121853834.391 7  94951204.69544  23188014.563                    23188022.617
 133497803.042 5                  25403797.156
 109273803.837 8  85148505.40046  20794098.953                    20794103.660
 112397266.501 7  87582213.31945  21388438.438                    21388445.840
 11  7 25  2 59  0.0000000  0  8G12G05G25G29G04G09G02G10
 109066593.344 8  84987127.680 7  20754699.352
 108603733.744 8  84626349.170 8  20666574.727
 117650306.322 7  91675664.420 7  22388110.172
 128095472.173 6  99814763.144 6  24375770.008
 121936992.215 7  95016002.97644  23203839.148                    23203847.461
 133578073.699 4                  25419072.523
 109297491.721 8  85166963.51146  20798606.375                    20798611.652
 112453804.967 7  87626269.28745  21399197.359                    21399204.699
 11  7 25  2 59 30.0000000  0  7G12G05G25G29G04G02G10
 109066048.934 8  84986703.474 7  20754595.859
 108556032.337 8  84589179.277 8  20657497.148
 117584945.831 7  91624734.219 7  22375671.945
 128014160.536 6  99751403.428 6  24360296.773
 122020149.527 6  95080800.85644  23219663.477                    23219671.281
 109321365.480 8  85185566.46746  20803149.477                    20803154.512
 112510874.149 7  87670738.77645  21410057.289                    21410064.488
 11  7 25  3  0  0.0000000  0  7G12G05G25G29G04G02G10
 109066090.671 8  84986735.993 7  20754603.906
 108508865.862 8  84552426.197 7  20648522.125
 117520039.670 7  91574158.047 7  22363320.711
 127932792.427 6  99687999.722 6  24344812.789
 122103305.965 7  95145598.07844  23235487.617                    23235495.668
 109345424.485 8  85204313.76646  20807728.039                    20807732.852
 112568472.211 7  87715620.39445  21421017.609                    21421025.313
 11  7 25  3  0 30.0000000  0  7G12G05G25G29G04G02G10
 109066717.637 8  84987224.560 7  20754723.531
 108462234.565 8  84516090.153 8  20639648.344
 117455589.157 7  91523936.936 7  22351056.359
 127851367.402 6  99624551.660 6  24329317.922
 122186459.828 7  95210393.27044  23251311.391                    23251319.602
 109369666.998 8  85223204.05546  20812340.664                    20812345.770
 112626595.770 7  87760911.48445  21432078.461                    21432085.793
 11  7 25  3  1  0.0000000  0  7G12G05G25G29G04G02G10
 109067930.022 8  84988169.264 7  20754953.992
 108416139.534 8  84480171.975 8  20630876.656
 117391596.218 7  91474072.377 7  22338878.359
 127769886.238 7  99561059.905 6  24313812.508
 122269609.648 7  95275185.34044  23267133.680                    23267141.699
 109394091.585 8  85242236.20846  20816988.758                    20816994.039
 112685242.870 7  87806610.52845  21443238.445                    21443246.266
 11  7 25  3  1 30.0000000  0  7G12G05G25G29G04G02G10
 109069728.586 8  84989570.748 7  20755296.164
 108370583.037 8  84444673.434 7  20622207.266
 117328063.731 7  91424566.619 7  22326788.758
 127688350.487 6  99497525.625 6  24298297.133
 122352755.156 7  95339974.05244  23282956.148                    23282964.371
 109418698.061 8  85261410.11646  20821671.500                    20821676.465
 112744411.909 7  87852716.27345  21454498.172                    21454505.609
 11  7 25  3  2  0.0000000  0  7G12G05G25G29G04G02G10
 109072112.573 8  84991428.410 7  20755749.984
 108325565.495 7  84409594.857 8  20613641.328
 117264993.001 7  91375420.654 7  22314787.172
 127606759.508 6  99433948.379 6  24282770.094
 122435894.683 7  95404758.08744  23298776.469                    23298785.457
 109443484.403 8  85280724.17146  20826388.148                    20826393.336
 112804099.339 7  87899225.95745  21465856.477                    21465864.020
 11  7 25  3  2 30.0000000  0  7G12G05G25G29G04G02G10
 109075081.983 8  84993742.252 7  20756314.719
 108281088.600 8  84374937.551 8  20605177.359
 117202386.513 7  91326636.434 7  22302873.031
 127525114.575 6  99370329.080 6  24267233.719
 122519027.197 7  95469536.66444  23314596.531                    23314605.320
 109468450.060 8  85300177.94146  20831138.445                    20831143.563
 112864303.475 7  87946138.27945  21477312.578                    21477319.777
 11  7 25  3  3  0.0000000  0  7G12G05G25G29G04G02G10
 109078637.065 8  84996512.449 8  20756991.391
 108237154.028 8  84340702.852 8  20596816.781
 117140246.562 7  91278215.731 7  22291048.734
 127443416.312 6  99306668.203 6  24251686.727
 122602152.136 7  95534309.32244  23330414.539                    23330423.684
 109493593.982 8  85319770.60746  20835923.227                    20835928.648
 112925022.294 7  87993451.63645  21488867.188                    21488874.707
 11  7 25  3  3 30.0000000  0  7G12G05G25G29G04G02G10
 109082777.813 8  84999738.999 7  20757779.336
 108193762.453 8  84306891.261 8  20588559.719
 117078575.168 7  91230160.177 7  22279312.305
 127361665.329 6  99242966.281 6  24236130.773
 122685268.480 7  95599075.30844  23346231.242                    23346239.125
 109518915.138 8  85339501.38646  20840741.828                    20840746.535
 112986253.264 7  88041164.07845  21500519.281                    21500526.445
 11  7 25  3  4  0.0000000  0  7G12G05G25G29G04G02G10
 109087504.617 8  85003422.222 7  20758678.773
 108150915.951 8  84273504.396 8  20580406.219
 117017374.980 8  91182471.762 7  22267666.414
 127279863.151 6  99179224.475 5  24220564.297
 122768375.592 6  95663834.11143  23362045.430                    23362053.648
 109544413.112 8  85359369.94146  20845593.711                    20845598.805
 113047994.263 7  88089273.96345  21512267.938                    21512274.852
 11  7 25  3  4 30.0000000  0  7G12G05G25G29G04G02G10
 109092816.601 8  85007561.442 7  20759689.719
 108108615.035 8  84240542.667 8  20572356.633
 116956647.128 8  91135151.401 7  22256110.180
 127198009.529 6  99115442.556 5  24204987.922
 122851471.900 6  95728584.46343  23377858.156                    23377866.188
 109570085.814 8  85379374.64746  20850479.180                    20850484.191
 113110242.300 7  88137778.93745  21524113.125                    21524120.590
 11  7 25  3  5  0.0000000  0  7G12G05G25G29G04G02G10
 109098714.901 8  85012157.519 7  20760812.258
 108066861.879 8  84208007.771 8  20564411.406
 116896394.753 8  91088201.554 7  22244644.688
 127116105.780 6  99051621.515 5  24189402.266
 122934557.386 6  95793326.40143  23393668.836                    23393676.887
 109595933.581 8  85399515.76746  20855397.922                    20855402.824
 113172995.761 7  88186677.73345  21536054.859                    21536061.594
 11  7 25  3  5 30.0000000  0  7G12G05G25G29G04G02G10
 109105198.790 8  85017209.921 7  20762045.828
 108025657.226 8  84175900.275 8  20556570.344
 116836619.836 7  91041623.726 7  22233269.680
 127034152.849 7  98987762.128 5  24173806.313
 123017630.963 6  95858059.04543  23409477.570                    23409485.371
 109621955.310 8  85419792.45046  20860349.656                    20860354.559
 113236252.171 7  88235968.45445  21548092.367                    21548099.523
 11  7 25  3  6  0.0000000  0  7G12G05G25G29G04G02G10
 109112268.183 8  85022718.546 7  20763391.023
 107985002.319 8  84144221.146 8  20548833.992
 116777324.269 8  90995419.423 7  22221986.008
 126952151.401 7  98923864.961 6  24158201.906
 123100691.769 6  95922781.78643  23425283.320                    23425291.777
 109648149.928 8  85440203.85646  20865334.641                    20865339.742
 113300009.140 7  88285649.22745  21560224.594                    21560231.559
 11  7 25  3  6 30.0000000  0  7G12G05G25G29G04G02G10
 109119921.999 8  85028682.570 7  20764847.555
 107944897.392 8  84112970.588 8  20541202.281
 116718509.132 7  90949589.477 7  22210793.656
 126870101.280 7  98859929.876 5  24142588.922
 123183737.829 6  95987493.02743  23441086.414                    23441095.059
 109674515.052 8  85460748.11946  20870351.250                    20870357.004
 113364263.053 7  88335717.22745  21572452.000                    21572459.223
 11  7 25  3  7  0.0000000  0  7G12G05G25G29G04G02G10
 109128161.009 8  85035102.591 8  20766415.398
 107905344.745 8  84082150.367 7  20533675.586
 116660177.568 8  90904136.323 7  22199693.523
 126788004.288 6  98795958.307 6  24126965.977
 123266769.437 6  96052192.96343  23456886.633                    23456895.230
 109701050.946 8  85481425.45646  20875401.039                    20875406.152
 113429012.619 7  88386171.43545  21584772.781                    21584779.988
 11  7 25  3  7 30.0000000  0  7G12G05G25G29G04G02G10
 109136984.776 8  85041978.265 7  20768094.734
 107866345.123 8  84051761.085 8  20526254.117
 116602331.405 8  90859061.422 7  22188686.164
 126705861.214 6  98731950.845 6  24111334.836
 123349785.542 6  96116880.85144  23472684.914                    23472692.496
 109727756.802 8  85502235.21646  20880483.008                    20880487.961
 113494255.158 7  88437009.78045  21597188.172                    21597195.863
 11  7 25  3  8  0.0000000  0  7G12G05G25G29G04G02G10
 109146393.564 8  85049309.806 7  20769884.742
 107827899.833 8  84021803.755 8  20518938.039
 116544972.992 8  90814366.553 7  22177771.438
 126623672.898 6  98667908.171 6  24095694.289
 123432785.466 6  96181556.09643  23488479.234                    23488487.383
 109754631.849 8  85523176.82646  20885597.023                    20885602.234
 113559988.615 7  88488230.66845  21609697.117                    21609703.980
 11  7 25  3  8 30.0000000  0  7G12G05G25G29G04G02G10
 109156386.680 8  85057096.644 7  20771786.578
 107790010.037 8  83992279.260 8  20511727.789
 116488104.086 8  90770053.157 7  22166949.297
 126541439.967 5  98603830.721 6  24080044.906
 123515768.305 7  96246218.02443  23504270.320                    23504278.035
 109781674.860 8  85544249.30546  20890743.500                    20890748.504
 113626210.304 7  88539831.98945  21622298.352                    21622305.957
 11  7 25  3  9  0.0000000  0  7G12G05G25G29G04G02G10
 109166963.743 8  85065338.523 7  20773799.430
 107752676.266 8  83963188.033 8  20504623.695
 116431726.665 8  90726122.729 7  22156220.813
 126459163.508 6  98539719.432 6  24064388.211
 123598733.133 7  96310865.95844  23520057.828                    23520066.180
 109808884.834 8  85565451.89046  20895921.047                    20895926.188
 113692917.830 7  88591811.90445  21634993.031                    21635000.133
 11  7 25  3  9 30.0000000  0  7G12G05G25G29G04G02G10
 109178124.952 8  85074035.580 7  20775923.492
 107715900.131 8  83934531.334 8  20497625.109
 116375842.579 8  90682576.705 7  22145586.844
 126376843.985 6  98475574.524 6  24048723.484
 123681678.891 7  96375499.03844  23535842.242                    23535850.434
 109836260.924 8  85586783.91546  20901130.938                    20901135.938
 113760108.721 7  88644168.46545  21647778.625                    21647785.605
 11  7 25  3 10  0.0000000  0  7G12G05G25G29G04G02G10
 109189868.750 8  85083186.584 8  20778157.891
 107679681.798 8  83906309.284 8  20490733.156
 116320453.357 7  90639416.296 7  22135046.359
 126294481.966 6  98411396.511 6  24033051.430
 123764604.774 7  96440116.60344  23551622.328                    23551630.707
 109863801.499 8  85608244.12546  20906371.711                    20906376.340
 113827779.871 7  88696899.25845  21660655.961                    21660663.418
 11  7 25  3 10 30.0000000  0  7G12G05G25G29G04G02G10
 109202195.015 8  85092791.480 7  20780503.695
 107644022.418 8  83878522.784 8  20483947.297
 116265560.943 8  90596643.036 7  22124600.734
 126212078.337 7  98347186.056 6  24017370.008
 123847509.731 6  96504717.86144  23567398.539                    23567407.059
 109891505.670 8  85629831.80846  20911643.422                    20911648.523
 113895928.607 7  88750002.17745  21673624.164                    21673631.992
 11  7 25  3 11  0.0000000  0  7G12G05G25G29G04G02G10
 109215104.032 8  85102850.449 7  20782960.148
 107608923.298 8  83851172.849 8  20477268.086
 116211167.932 8  90554258.899 7  22114250.000
 126129634.479 6  98282944.275 6  24001681.188
 123930393.534 6  96569302.63844  23583170.602                    23583179.621
 109919373.340 8  85651546.88846  20916946.656                    20916951.469
 113964553.268 7  88803475.95945  21686683.227                    21686690.207
 11  7 25  3 11 30.0000000  0  7G12G05G25G29G04G02G10
 109228596.136 8  85113363.790 7  20785527.477
 107574385.449 8  83824260.267 8  20470695.656
 116157276.520 8  90512265.621 7  22103994.367
 126047151.522 7  98218671.947 6  23985985.719
 124013255.758 7  96633870.59244  23598938.258                    23598948.023
 109947404.043 8  85673389.02146  20922280.305                    20922285.438
 114033651.583 7  88857318.80745  21699832.086                    21699839.832
 11  7 25  3 12  0.0000000  0  7G12G05G25G29G04G02G10
 109242669.511 8  85124330.055 7  20788205.766
 107540409.695 8  83797785.673 8  20464230.609
 116103887.689 8  90470663.987 7  22093835.750
 125964629.567 7  98154369.262 6  23970281.859
 124096094.776 6  96698420.46544  23614702.422                    23614710.832
 109975595.750 8  85695356.58846  20927645.000                    20927649.813
 114103220.154 7  88911528.09245  21713070.398                    21713077.891
 11  7 25  3 12 30.0000000  0  7G12G05G25G29G04G02G10
 109257323.704 8  85135748.915 7  20790993.945
 107506996.945 8  83771749.793 8  20457872.188
 116051003.582 8  90429455.605 7  22083771.781
 125882069.922 6  98090037.210 5  23954570.609
 124178910.133 6  96762951.86444  23630461.922                    23630470.121
 110003948.005 8  85717449.26646  20933040.328                    20933045.414
 114173256.808 7  88966102.13245  21726397.930                    21726405.559
 11  7 25  3 13  0.0000000  0  7G12G05G25G29G04G02G10
 109272558.592 8  85147620.254 7  20793893.141
 107474147.717 8  83746153.021 8  20451620.773
 115998625.870 8  90388641.886 7  22073804.367
 125799473.314 7  98025676.304 5  23938853.727
 124261701.197 6  96827464.36243  23646215.953                    23646225.051
 110032459.736 8  85739666.20546  20938465.891                    20938470.738
 114243758.702 7  89021038.68445  21739814.070                    21739821.750
 11  7 25  3 13 30.0000000  0  7G12G05G25G29G04G02G10
 109288373.726 8  85159943.729 7  20796902.539
 107441863.135 8  83720996.223 8  20445477.383
 115946756.788 8  90348224.462 7  22063934.258
 125716840.802 6  97961287.502 6  23923128.844
 124344467.085 6  96891957.27243  23661966.117                    23661974.809
 110061130.234 8  85762006.87146  20943922.016                    20943926.641
 114314723.333 7  89076335.79045  21753318.172                    21753325.402
 11  7 25  3 14  0.0000000  0  7G12G05G25G29G04G02G10
 109304768.711 8  85172719.058 7  20800022.531
 107410143.822 8  83696279.912 8  20439441.648
 115895397.959 8  90308204.630 7  22054160.961
 125634173.499 6  97896871.506 6  23907396.828
 124427207.316 6  96956430.19943  23677710.422                    23677718.875
 110089958.731 8  85784470.64446  20949407.680                    20949412.297
 114386148.239 7  89131991.57245  21766909.758                    21766917.180
 11  7 25  3 14 30.0000000  0  7G12G05G25G29G04G02G10
 109321742.540 8  85185945.425 7  20803252.844
 107378990.652 8  83672004.730 8  20433513.250
 115844551.179 8  90268583.822 7  22044485.000
 125551471.838 6  97832428.768 6  23891660.125
 124509921.133 6  97020882.49943  23693450.836                    23693459.543
 110118944.214 8  85807056.74946  20954923.422                    20954928.430
 114458030.791 7  89188003.94745  21780588.875                    21780596.121
 11  7 25  3 15  0.0000000  0  7G12G05G25G29G04G02G10
 109339294.836 8  85199622.535 7  20806592.594
 107348404.841 8  83648171.672 8  20427692.875
 115794218.323 8  90229363.450 7  22034906.742
 125468737.073 6  97767960.216 6  23875915.719
 124592607.602 6  97085313.49243  23709186.000                    23709194.434
 110148085.842 8  85829764.52046  20960469.109                    20960473.605
 114530368.143 7  89244370.73045  21794353.789                    21794361.176
 11  7 25  3 15 30.0000000  0  7G12G05G25G29G04G02G10
 109357425.344 8  85213750.213 7  20810043.234
 107318386.579 8  83624780.843 8  20421980.641
 115744400.922 8  90190544.765 7  22025426.797
 125385970.326 6  97703466.721 6  23860166.195
 124675266.023 6  97149722.67043  23724914.727                    23724923.414
 110177382.854 8  85852593.37446  20966044.148                    20966048.621
 114603157.822 7  89301089.98045  21808206.008                    21808212.805
 11  7 25  3 16  0.0000000  0  7G12G05G25G29G04G02G10
 109376132.229 8  85228327.018 7  20813602.625
 107288936.343 8  83601832.631 8  20416376.336
 115695100.464 8  90152128.818 7  22016045.367
 125303172.127 7  97638948.732 6  23844410.414
 124757895.373 6  97214109.18443  23740638.750                    23740647.297
 110206833.723 8  85875542.11346  20971647.938                    20971653.125
 114676396.814 7  89358159.33945  21822142.781                    21822149.906
 11  7 25  3 16 30.0000000  0  7G12G05G25G29G04G02G10
 109395415.422 8  85243352.890 7  20817272.195
 107260054.779 8  83579327.547 8  20410880.258
 115646319.007 8  90114117.332 7  22006762.648
 125220343.938 7  97574407.360 6  23828647.414
 124840495.388 6  97278472.82243  23756357.266                    23756364.832
 110236438.048 8  85898610.42446  20977281.508                    20977286.563
 114750083.007 7  89415577.15345  21836164.219                    21836171.500
 11  7 25  3 17  0.0000000  0  7G12G05G25G29G04G02G10
 109415274.310 8  85258827.354 7  20821051.516
 107231743.009 8  83557266.452 8  20405492.711
 115598058.285 8  90076511.595 7  21997578.680
 125137486.293 6  97509843.078 6  23812880.766
 124923065.496 6  97342813.21143  23772069.438                    23772077.676
 110266195.152 8  85921797.78946  20982944.359                    20982949.363
 114824213.833 7  89473341.41945  21850270.727                    21850278.500
 11  7 25  3 17 30.0000000  0  7G12G05G25G29G04G02G10
 109435708.887 8  85274750.409 7  20824940.047
 107204001.804 8  83535649.962 8  20400213.711
 115550320.210 8  90039313.103 7  21988494.641
 125054600.583 7  97445256.873 6  23797107.906
 125005605.140 6  97407129.79243  23787776.781                    23787785.258
 110296104.461 8  85945103.74346  20988635.742                    20988640.355
 114898786.307 7  89531449.84645  21864461.781                    21864468.867
 11  7 25  3 18  0.0000000  0  7G12G05G25G29G04G02G10
 109456717.328 8  85291120.631 7  20828937.383
 107176831.156 8  83514478.056 8  20395043.289
 115503105.625 8  90002522.538 7  21979509.852
 124971687.558 6  97380649.380 6  23781330.188
 125088112.769 7  97471421.47543  23803477.766                    23803486.059
 110326164.189 8  85968526.91746  20994355.781                    20994360.527
 114973797.211 7  89589899.90245  21878735.617                    21878743.465
 11  7 25  3 18 30.0000000  0  7G12G05G25G29G04G02G10
 109478298.579 8  85307937.205 7  20833044.203
 107150231.349 8  83493750.950 8  20389981.789
 115456416.257 8  89966141.251 7  21970625.016
 124888747.858 7  97316021.117 6  23765547.023
 125170588.216 7  97535688.03744  23819171.961                    23819179.953
 110356373.673 8  85992066.77046  21000104.805                    21000109.922
 115049243.700 7  89648689.37545  21893092.563                    21893100.293
 11  7 25  3 19  0.0000000  0  7G12G05G25G29G04G02G10
 109500452.739 8  85325200.190 7  20837259.969
 107124204.208 8  83473470.086 8  20385028.664
 115410254.685 8  89930171.198 7  21961840.703
 124805783.308 6  97251373.518 6  23749759.211
 125253031.174 7  97599929.29643  23834860.813                    23834868.246
 110386732.840 8  86015723.26946  21005881.953                    21005887.074
 115125124.147 7  89707817.00145  21907532.117                    21907539.543
 11  7 25  3 19 30.0000000  0  7G12G05G25G29G04G02G10
 109523178.670 8  85342908.730 7  20841584.719
 107098749.688 8  83453635.426 8  20380184.891
 115364622.067 8  89894613.310 7  21953157.313
 124722794.468 7  97186706.999 6  23733967.477
 125335440.856 7  97664144.65443  23850542.742                    23850550.863
 110417240.606 8  86039495.56346  21011687.102                    21011692.352
 115201435.641 7  89767280.48445  21922053.695                    21922060.898
 11  7 25  3 20  0.0000000  0  7G12G05G25G29G04G02G10
 109546475.521 8  85361062.123 7  20846017.766
 107073867.845 8  83434247.009 8  20375450.063
 115319519.706 8  89859468.604 7  21944574.742
 124639782.453 7  97122022.371 6  23718170.859
 125417816.519 6  97728333.49044  23866218.109                    23866226.098
 110447895.868 8  86063382.77546  21017520.781                    21017525.754
 115278175.194 7  89827077.53445  21936657.008                    21936664.230
 11  7 25  3 20 30.0000000  0  7G12G05G25G29G04G02G10
 109570341.795 8  85379659.227 7  20850559.703
 107049559.040 8  83415305.094 8  20370824.234
 115274948.992 8  89824738.217 7  21936093.055
 124556748.030 7  97057320.314 6  23702369.898
 125500157.222 6  97792495.10843  23881886.359                    23881894.797
 110478697.503 8  86087384.04946  21023382.141                    21023387.223
 115355339.549 7  89887205.60045  21951340.750                    21951348.000
 11  7 25  3 21  0.0000000  0  7G12G05G25G29G04G02G10
 109594777.730 8  85398700.201 7  20855209.484
 107025825.075 8  83396811.116 8  20366307.820
 115230912.491 8  89790424.065 7  21927713.203
 124473693.204 7  96992602.376 6  23686564.984
 125582463.253 6  97856629.65543  23897549.672                    23897558.313
 110509646.098 8  86111499.83846  21029271.602                    21029276.480
 115432927.218 7  89947663.50145  21966105.531                    21966112.832
 11  7 25  3 21 30.0000000  0  7G12G05G25G29G04G02G10
 109619782.038 8  85418184.084 7  20859967.820
 107002665.400 8  83378764.637 8  20361900.523
 115187411.118 8  89756526.914 7  21919435.281
 124390618.334 7  96927868.863 6  23670755.758
 125664733.663 6  97920736.45843  23913204.766                    23913213.707
 110540740.088 8  86135728.92446  21035188.461                    21035193.582
 115510934.985 7  90008448.78245  21980949.836                    21980956.918
 11  7 25  3 22  0.0000000  0  7G12G05G25G29G04G02G10
 109645353.199 8  85438109.682 7  20864833.789
 106980080.185 8  83361165.796 8  20357602.711
 115144446.111 8  89723047.693 7  21911258.977
 124307524.389 7  96863120.444 6  23654943.719
 125746967.491 6  97984814.75643  23928853.195                    23928861.211
 110571978.202 8  86160070.29946  21041132.938                    21041137.883
 115589359.654 7  90069558.90945  21995873.695                    21995880.914
 11  7 25  3 22 30.0000000  0  7G12G05G25G29G04G02G10
 109671490.499 8  85458476.402 7  20869807.320
 106958070.476 8  83344015.403 8  20353414.703
 115102019.383 8  89689987.930 7  21903185.289
 124224412.873 7  96798358.316 6  23639128.016
 125829164.623 6  98048864.52143  23944494.961                    23944503.563
 110603360.245 8  86184523.85046  21047104.563                    21047109.395
 115668198.961 7  90130992.12445  22010875.969                    22010883.043
 11  7 25  3 23  0.0000000  0  7G12G05G25G29G04G02G10
 109698192.757 8  85479283.355 7  20874888.727
 106936636.193 8  83327313.379 8  20349335.516
 115060131.978 8  89657348.443 7  21895214.930
 124141284.745 6  96733583.229 6  23623309.078
 125911323.929 6  98112884.72343  23960129.047                    23960137.730
 110634884.949 8  86209088.55846  21053103.883                    21053108.508
 115747449.819 7  90192746.03545  22025956.766                    22025964.125
 11  7 25  3 23 30.0000000  0  7G12G05G25G29G04G02G10
 109725459.291 8  85500530.004 7  20880077.711
 106915777.592 8  83311059.948 8  20345366.539
 115018785.528 8  89625130.473 7  21887347.141
 124058141.105 7  96668796.105 6  23607487.516
 125993445.242 6  98176875.38943  23975756.313                    23975764.934
 110666551.926 8  86233764.13246  21059129.656                    21059134.637
 115827109.237 7  90254818.30545  22041115.430                    22041122.660
 11  7 25  3 24  0.0000000  0  7G12G05G25G29G04G02G10
 109753288.868 8  85522215.396 7  20885373.281
 106895494.977 8  83295255.339 8  20341506.625
 114977981.234 8  89593334.962 7  21879581.727
 123974982.757 7  96603997.483 6  23591662.750
 126075527.651 6  98240835.69543  23991375.461                    23991384.938
 110698360.059 8  86258549.70146  21065182.625                    21065187.109
 115907174.717 7  90317207.01745  22056351.648                    22056359.008
 11  7 25  3 24 30.0000000  0  7G12G05G25G29G04G02G10
 109781680.717 7  85544338.912 7  20890775.961
 106875789.254 8  83279900.247 8  20337756.867
 114937721.204 8  89561963.559 7  21871920.789
 123891811.547 7  96539188.891 6  23575835.570
 126157571.514 6  98304765.95543  24006988.367                    24006997.582
 110730309.552 7  86283445.41046  21071262.391                    21071266.816
 115987644.068 7  90379910.38645  22071664.539                    22071671.648
 11  7 25  3 25  0.0000000  0  7G12G05G25G29G04G02G10
 109810633.170 7  85566899.271 7  20896285.016
 106856660.137 8  83264994.472 8  20334116.813
 114898006.161 8  89531016.804 7  21864363.133
 123808628.151 7  96474370.765 6  23560006.477
 126239575.406 6  98368665.10643  24022592.711                    24022602.121
 110762398.629 7  86308449.89346  21077368.523                    21077373.207
 116068513.741 7  90442925.72445  22087053.234                    22087060.504
 11  7 25  3 25 30.0000000  0  7G12G05G25G29G04G02G10
 109840145.398 7  85589895.816 7  20901901.484
 106838107.696 8  83250538.048 8  20330586.031
 114858837.558 8  89500495.835 7  21856909.617
 123725433.472 7  96409543.832 6  23544174.336
 126321539.079 6  98432532.93943  24038190.117                    24038199.449
 110794626.757 7  86333562.72046  21083501.539                    21083506.211
 116149781.010 7  90506250.86945  22102517.813                    22102525.141
 11  7 25  3 26  0.0000000  0  7G12G05G25G29G04G02G10
 109870216.111 8  85613327.537 7  20907623.961
 106820132.312 8  83236531.276 8  20327165.516
 114820216.732 8  89470401.748 7  21849559.914
 123642229.040 7  96344709.364 6  23528341.539
 126403461.876 7  98496368.90443  24053780.133                    24053788.281
 110826993.247 8  86358783.37546  21089660.578                    21089665.402
 116231443.174 7  90569883.71844  22118057.336                    22118064.559
 11  7 25  3 26 30.0000000  0  7G12G05G25G29G04G02G10
 109900844.165 8  85637193.570 7  20913452.313
 106802734.589 8  83222974.635 8  20323855.125
 114782145.334 8  89440735.760 7  21842315.539
 123559016.384 7  96279868.475 6  23512506.844
 126485343.656 6  98560172.89344  24069362.500                    24069369.855
 110859497.700 8  86384111.52446  21095845.906                    21095850.887
 116313497.726 7  90633822.34144  22133671.930                    22133678.988
 11  7 25  3 27  0.0000000  0  7G12G05G25G29G04G02G10
 109932028.813 8  85661493.281 7  20919386.453
 106785914.569 8  83209868.139 8  20320654.453
 114744624.582 8  89411498.848 7  21835175.398
 123475796.522 7  96215021.940 6  23496670.320
 126567183.830 7  98623944.47643  24084934.469                    24084943.992
 110892139.616 8  86409546.79246  21102057.391                    21102062.176
 116395941.802 7  90698064.48845  22149361.438                    22149368.457
 11  7 25  3 27 30.0000000  0  8G12G05G25G29G04G26G02G10
 109963768.354 7  85686225.402 7  20925425.906
 106769672.054 8  83197211.665 8  20317563.063
 114707655.524 8  89382691.825 7  21828140.117
 123392570.298 7  96150170.478 6  23480833.094
 126648981.887 7  98687683.24143  24100500.820                    24100509.258
 131857235.91215                  25091608.930
 110924917.640 7  86435088.11846  21108295.156                    21108299.633
 116478772.678 7  90762608.04845  22165122.977                    22165130.402
 11  7 25  3 28  0.0000000  0  8G12G05G25G29G04G26G02G10
 109996061.836 8  85711389.169 7  20931571.227
 106754007.300 8  83185005.381 8  20314582.258
 114671239.612 8  89354315.816 7  21821210.891
 123309339.374 7  96085315.350 6  23464994.266
 126730737.347 6  98751388.86043  24116058.375                    24116066.145
 131764277.135 5                  25073919.992
 110957831.570 8  86460735.35246  21114558.336                    21114563.465
 116561987.306 7  90827450.62345  22180958.172                    22180965.988
 11  7 25  3 28 30.0000000  0  8G12G05G25G29G04G26G02G10
 110028907.679 8  85736983.340 7  20937821.797
 106738920.313 8  83173249.316 8  20311711.328
 114635377.789 8  89326371.564 7  21814386.242
 123226104.368 7  96020456.990 6  23449155.141
 126812449.389 6  98815060.60843  24131607.469                    24131616.258
 131671155.187 5                  25056199.328
 110990880.227 8  86486487.56646  21120846.336                    21120851.859
 116645582.335 7  90892589.60145  22196866.242                    22196873.281
 11  7 25  3 29  0.0000000  0  8G12G05G25G29G04G26G02G10
 110062304.558 8  85763006.879 7  20944176.719
 106724410.814 8  83161943.225 8  20308950.234
 114600071.037 8  89298859.852 7  21807667.688
 123142866.603 7  95955596.492 6  23433315.484
 126894117.635 6  98878698.17343  24147149.109                    24147156.715
 131577872.586 5                  25038447.750
 111024062.575 8  86512343.94346  21127161.594                    21127166.023
 116729555.142 7  90958022.96445  22212845.352                    22212852.676
 11  7 25  3 29 30.0000000  0  8G12G05G25G29G04G26G02G10
 110096251.082 8  85789458.725 7  20950637.039
 106710479.427 8  83151087.629 8  20306299.063
 114565321.047 8  89271781.934 7  21801054.797
 123059627.570 7  95890735.010 6  23417475.688
 126975741.747 6  98942301.37043  24162680.313                    24162689.406
 131484432.721 5                  25020666.211
 111057378.701 8  86538304.57146  21133501.656                    21133506.473
 116813903.242 7  91023748.77345  22228896.141                    22228903.613
 11  7 25  3 30  0.0000000  0  8G12G05G25G29G04G26G02G10
 110130745.586 8  85816337.579 7  20957200.695
 106697125.652 8  83140682.102 8  20303758.023
 114531128.507 8  89245138.438 7  21794548.156
 122976388.178 7  95825873.250 6  23401635.023
 127057321.280 6  99005869.89543  24178205.000                    24178212.477
 131390837.705 5 102382548.95652  25002856.531                    25002865.508
 111090827.139 8  86564368.30346  21139866.305                    21139871.707
 116898623.567 7  91089764.60544  22245018.109                    22245025.105
 11  7 25  3 30 30.0000000  0  8G12G05G25G29G04G26G02G10
 110165787.143 8  85843642.691 7  20963869.172
 106684349.620 8  83130726.780 8  20301326.984
 114497494.729 8  89218930.323 7  21788148.203
 122893149.902 6  95761012.340 6  23385795.570
 127138855.728 6  99069403.22643  24193720.102                    24193728.324
 131297090.719 6 102309499.44542  24985016.688                    24985025.789
 111124407.700 8  86590534.98346  21146256.563                    21146261.414
 116983713.102 7  91156068.15945  22261210.250                    22261217.582
 11  7 25  3 31  0.0000000  0  8G12G05G25G29G04G26G02G10
 110201374.583 8  85871373.167 7  20970641.180
 106672151.241 8  83121221.565 8  20299005.102
 114464420.991 8  89193158.602 7  21781854.234
 122809913.922 7  95696153.243 6  23369956.313
 127220344.830 6  99132901.27543  24209227.844                    24209235.133
 131203194.388 5 102236333.54042  24967148.727                    24967158.508
 111158119.960 8  86616804.28146  21152671.867                    21152676.828
 117069169.263 7  91222657.37045  22277472.000                    22277479.422
 11  7 25  3 31 30.0000000  0  8G12G05G25G29G04G26G02G10
 110237506.132 7  85899527.638 7  20977516.609
 106660530.574 8  83112166.527 8  20296794.078
 114431908.194 8  89167824.010 7  21775667.039
 122726681.691 6  95631297.005 6  23354117.930
 127301787.892 6  99196363.37643  24224725.477                    24224733.641
 131109151.586 5 102163053.47142  24949252.922                    24949262.414
 111191963.014 7  86643175.50346  21159111.703                    21159116.434
 117154989.411 7  91289530.21744  22293802.914                    22293810.684
 11  7 25  3 32  0.0000000  0  8G12G05G25G29G04G26G02G10
 110274180.320 7  85928104.924 7  20984495.547
 106649487.369 8  83103561.460 8  20294692.766
 114399957.557 8  89142927.409 7  21769587.242
 122643454.197 7  95566444.457 6  23338280.031
 127383184.592 5  99259789.42843  24240214.578                    24240222.676
 131014964.930 5 102089661.49042  24931328.555                    24931339.328
 111225936.111 7  86669648.06146  21165577.031                    21165581.418
 117241170.279 7  91356684.14645  22310202.578                    22310209.680
 11  7 25  3 32 30.0000000  0  8G12G05G25G29G04G26G02G10
 110311395.865 7  85957104.050 7  20991577.563
 106639021.493 8  83095406.249 8  20292701.180
 114368570.041 8  89118469.616 7  21763614.039
 122560233.091 7  95501596.893 6  23322443.102
 127464534.437 5  99323178.87243  24255693.953                    24255703.637
 130920637.376 5 102016159.44342  24913379.914                    24913388.813
 111260038.548 7  86696221.39946  21172066.078                    21172071.145
 117327709.039 7  91424116.95544  22326670.172                    22326677.359
 11  7 25  3 33  0.0000000  0  8G12G05G25G29G04G26G02G10
 110349151.315 8  85986523.883 7  20998761.938
 106629133.179 8  83087701.087 8  20290819.352
 114337746.675 8  89094451.439 7  21757748.969
 122477019.534 6  95436755.249 6  23306608.227
 127545837.372 6  99386531.78243  24271166.500                    24271175.148
 130826171.999 6 101942550.20242  24895402.617                    24895412.914
 111294269.791 8  86722895.09446  21178580.313                    21178585.188
 117414603.064 7  91491826.59445  22343205.766                    22343212.617
 11  7 25  3 33 30.0000000  0  8G12G05G25G29G04G26G02G10
 110387444.816 8  86016362.980 7  21006049.188
 106619821.955 8  83080445.608 8  20289047.508
 114307488.285 8  89070873.506 7  21751990.719
 122393814.905 7  95371920.519 6  23290775.195
 127627092.719 6  99449847.64243  24286628.984                    24286637.082
 130731571.049 6 101868835.29342  24877401.141                    24877410.762
 111328629.100 8  86749668.59846  21185118.406                    21185123.293
 117501849.308 7  91559810.67345  22359808.000                    22359815.512
 11  7 25  3 34  0.0000000  0  8G12G05G25G29G04G26G02G10
 110426275.511 8  86046620.668 7  21013438.320
 106611087.828 8  83073639.814 8  20287385.320
 114277796.230 8  89047736.877 7  21746340.383
 122310620.747 6  95307093.939 6  23274943.633
 127708300.184 6  99513126.15643  24302082.063                    24302090.176
 130636837.841 6 101795017.28142  24859373.445                    24859383.652
 111363116.360 8  86776541.79146  21191681.555                    21191686.418
 117589445.208 7  91628067.21744  22376477.102                    22376484.703
 11  7 25  3 34 30.0000000  0  8G12G05G25G29G04G26G02G10
 110465641.140 8  86077295.182 7  21020929.172
 106602930.327 8  83067283.338 8  20285833.023
 114248671.117 8  89025041.994 7  21740798.500
 122227437.989 7  95242276.232 6  23259115.180
 127789459.531 6  99576367.17743  24317526.359                    24317534.766
 130541975.109 6 101721098.36243  24841322.227                    24841331.336
 111397730.260 8  86803513.66846  21198268.313                    21198273.012
 117677387.397 7  91696593.60944  22393211.680                    22393219.117
 11  7 25  3 35  0.0000000  0  8G12G05G25G29G04G26G02G10
 110505539.968 8  86108385.164 7  21028521.813
 106595348.874 8  83061375.730 8  20284390.125
 114220113.671 8  89002789.453 7  21735363.938
 122144267.995 7  95177468.519 6  23243287.648
 127870569.754 6  99639569.96643  24332961.383                    24332969.273
 130446985.391 6 101647080.45743  24823246.609                    24823255.355
 111432470.264 8  86830583.80646  21204878.625                    21204884.090
 117765673.159 7  91765387.70044  22410011.820                    22410019.570
 11  7 25  3 35 30.0000000  0  8G12G05G25G29G04G26G02G10
 110545970.876 8  86139889.764 7  21036215.430
 106588343.434 8  83055916.959 8  20283057.539
 114192125.038 8  88980980.127 7  21730037.695
 122061111.923 7  95112671.622 6  23227463.305
 127951631.104 6  99702734.66143  24348386.797                    24348395.484
 130351871.651 6 101572965.94143  24805146.680                    24805155.926
 111467335.892 8  86857751.82846  21211513.578                    21211518.785
 117854299.681 7  91834447.31644  22426877.297                    22426884.707
 11  7 25  3 36  0.0000000  0  8G12G05G25G29G04G26G02G10
 110586932.050 8  86171807.551 7  21044010.039
 106581914.024 8  83050907.044 8  20281833.891
 114164706.122 8  88959614.762 7  21724820.023
 121977971.582 7  95047886.954 6  23211642.938
 128032642.956 6  99765860.75944  24363802.461                    24363810.824
 130256637.127 6 101498757.28443  24787023.945                    24787032.891
 111502326.628 8  86885017.34546  21218172.219                    21218176.871
 117943264.209 7  91903770.29844  22443806.750                    22443813.227
 11  7 25  3 36 30.0000000  0  8G12G05G25G29G04G26G02G10
 110628421.979 8  86204137.365 7  21051905.383
 106576060.056 8  83046345.530 8  20280719.773
 114137857.860 8  88938694.052 7  21719711.422
 121894848.238 7  94983115.561 6  23195824.586
 128113605.095 6  99828948.11243  24379209.305                    24379217.961
 130161284.574 6 101424456.68143  24768879.469                    24768887.762
 111537441.930 8  86912379.93046  21224853.953                    21224859.176
 118032563.767 7  91973354.37544  22460799.180                    22460806.809
 11  7 25  3 37  0.0000000  0  8G12G05G25G29G04G26G02G10
 110670438.962 8  86236877.874 7  21059901.016
 106570781.510 8  83042232.395 8  20279715.148
 114111580.985 8  88918218.589 7  21714711.086
 121811743.232 7  94918358.482 6  23180010.492
 128194517.411 6  99891996.66043  24394606.336                    24394615.090
 130065816.849 6 101350066.31643  24750711.789                    24750721.578
 111572681.293 8  86939839.18146  21231560.211                    21231565.254
 118122195.583 7  92043197.36345  22477855.930                    22477863.078
 11  7 25  3 37 30.0000000  0  8G12G05G25G29G04G26G02G10
 110712981.312 8  86270027.749 7  21067996.398
 106566077.669 8  83038567.072 8  20278820.086
 114085876.284 8  88898188.951 7  21709819.195
 121728658.171 7  94853616.917 6  23164199.531
 128275379.086 6  99955005.76743  24409994.367                    24410002.355
 129970236.774 6 101275588.41343  24732523.758                    24732532.918
 111608043.909 8  86967394.46746  21238289.508                    21238294.316
 118212156.566 7  92113296.81444  22494975.172                    22494982.496
 11  7 25  3 38  0.0000000  0  8G12G05G25G29G04G26G02G10
 110756047.183 8  86303585.574 7  21076191.680
 106561948.172 8  83035349.299 8  20278034.578
 114060744.400 8  88878605.693 7  21705036.875
 121645594.064 7  94788891.681 6  23148392.805
 128356189.952 6 100017975.30243  24425372.133                    24425379.688
 129874547.434 6 101201025.34643  24714314.414                    24714323.535
 111643529.026 8  86995045.21146  21245042.102                    21245047.074
 118302443.786 7  92183650.49644  22512155.977                    22512163.426
 11  7 25  3 38 30.0000000  0  8G12G05G25G29G04G26G02G10
 110799635.041 8  86337550.129 7  21084486.258
 106558392.657 8  83032578.772 8  20277358.047
 114036186.214 8  88859469.471 7  21700363.633
 121562552.483 7  94724184.049 7  23132590.523
 128436949.824 6 100080905.08143  24440740.078                    24440748.297
 129778751.608 6 101126379.32543  24696085.047                    24696094.340
 111679136.280 8  87022791.13746  21251817.938                    21251822.801
 118393054.468 7  92254256.20444  22529398.156                    22529406.289
 11  7 25  3 39  0.0000000  0  8G12G05G25G29G04G26G02G10
 110843743.073 8  86371920.020 7  21092880.086
 106555410.381 8  83030254.941 8  20276790.258
 114012202.392 8  88840780.793 7  21695799.789
 121479534.883 7  94659495.099 7  23116793.445
 128517658.286 6 100143794.74843  24456098.398                    24456106.086
 129682852.436 6 101051652.74543  24677836.289                    24677844.691
 111714865.036 8  87050631.72846  21258616.727                    21258621.641
 118483985.405 7  92325111.44444  22546702.344                    22546709.242
 11  7 25  3 39 30.0000000  0  8G12G05G25G29G04G26G02G10
 110888369.223 8  86406693.632 7  21101371.859
 106553001.336 8  83028377.784 8  20276331.836
 113988793.743 8  88822540.294 7  21691345.086
 121396542.801 7  94594825.982 6  23100999.844
 128598315.119 6 100206644.24142  24471446.883                    24471454.789
 129586852.877 6 100976847.93243  24659568.234                    24659576.930
 111750714.882 8  87078566.68246  21265438.664                    21265444.020
 118575234.011 7  92396214.23144  22564066.383                    22564073.598
 11  7 25  3 40  0.0000000  0  8G12G05G25G29G04G26G02G10
 110933512.147 8  86441869.926 7  21109962.422
 106551164.788 8  83026946.728 8  20275982.836
 113965960.859 8  88804748.440 7  21687000.414
 121313577.550 7  94530177.772 6  23085211.930
 128678920.009 6 100269453.26642  24486785.328                    24486794.047
 129490755.857 6 100901967.21143  24641281.328                    24641289.770
 111786685.121 8  87106595.44146  21272283.445                    21272288.422
 118666797.393 7  92467562.31144  22581490.758                    22581497.156
 11  7 25  3 40 30.0000000  0  8G12G05G25G29G04G26G02G10
 110979169.658 8  86477447.205 7  21118650.727
 106549900.353 8  83025961.478 8  20275741.781
 113943704.505 8  88787405.839 7  21682765.102
 121230640.602 7  94465551.655 6  23069429.805
 128759472.781 5 100332221.61742  24502112.688                    24502123.273
 129394564.443 6 100827012.91743  24622976.656                    24622985.516
 111822775.488 8  87134717.81346  21279151.297                    21279156.207
 118758672.693 7  92539153.44844  22598973.477                    22598980.926
 11  7 25  3 41  0.0000000  0  8G12G05G25G29G04G26G02G10
 111025340.241 8  86513424.292 7  21127436.617
 106549207.783 8  83025421.816 8  20275610.328
 113922025.447 8  88770513.090 7  21678639.750
 121147733.706 7  94400948.949 6  23053652.641
 128839973.460 6 100394949.43942  24517431.836                    24517442.105
 129298281.836 6 100751987.54143  24604654.359                    24604663.840
 111858985.641 8  87162933.51946  21286041.930                    21286047.023
 118850857.198 7  92610985.50644  22616516.141                    22616522.801
 11  7 25  3 41 30.0000000  0  8G12G05G25G29G04G26G02G10
 111072022.201 8  86549799.841 7  21136319.852
 106549086.314 8  83025327.183 8  20275586.953
 113900924.077 8  88754070.489 7  21674623.859
 121064858.230 7  94336370.730 6  23037882.117
 128920421.374 6 100457636.11142  24532742.148                    24532750.855
 129201910.698 6 100676893.17842  24586315.500                    24586324.852
 111895314.856 8  87191242.00646  21292955.492                    21292960.273
 118943348.003 7  92683056.27744  22634115.922                    22634122.895
 11  7 25  3 42  0.0000000  0  8G12G05G25G29G04G26G02G10
 111119213.295 8  86586572.117 7  21145299.563
 106549534.583 8  83025676.509 8  20275672.195
 113880400.683 8  88738078.212 7  21670718.531
 120982015.407 7  94271817.919 6  23022117.766
 129000815.817 6 100520281.15843  24548040.836                    24548048.215
 129105453.959 6 100601732.07142  24567960.836                    24567969.914
 111931762.322 8  87219642.64146  21299891.008                    21299895.617
 119036141.806 7  92755363.12044  22651774.398                    22651781.094
 11  7 25  3 42 30.0000000  0  8G12G05G25G29G04G26G02G10
 111166911.081 8  86623739.210 7  21154376.727
 106550552.169 8  83026469.453 8  20275865.703
 113860455.987 8  88722536.910 7  21666923.500
 120899206.610 7  94207291.664 6  23006360.133
 129081156.934 6 100582884.63342  24563328.664                    24563336.344
 129008914.811 6 100526506.81442  24549589.867                    24549599.367
 111968327.377 8  87248134.89146  21306849.109                    21306853.645
 119129235.930 7  92827903.97344  22669489.648                    22669496.602
 11  7 25  3 43  0.0000000  0  8G12G05G25G29G04G26G02G10
 111215114.324 8  86661300.167 7  21163549.297
 106552139.357 8  83027706.231 8  20276167.914
 113841090.662 8  88707447.072 7  21663238.047
 120816433.722 7  94142793.335 6  22990608.664
 129161444.583 6 100645446.42643  24578606.305                    24578614.813
 128912296.354 6 100451219.73543  24531203.852                    24531213.043
 112005009.676 8  87276718.51346  21313829.359                    21313834.418
 119222627.292 7  92900676.45244  22687261.359                    22687268.445
 11  7 25  3 43 30.0000000  0  8G12G05G25G29G04G26G02G10
 111263821.181 8  86699253.558 7  21172818.180
 106554295.227 8  83029386.150 8  20276578.164
 113822305.256 8  88692809.115 7  21659663.203
 120733698.063 7  94078324.055 6  22974864.742
 129241678.578 6 100707966.43043  24593874.367                    24593882.863
 128815601.724 6 100375873.31642  24512803.789                    24512812.922
 112041808.978 8  87305393.30346  21320832.227                    21320836.883
 119316313.272 7  92973678.52544  22705089.172                    22705096.426
 11  7 25  3 44  0.0000000  0  8G12G05G25G29G04G26G02G10
 111313029.647 8  86737597.813 7  21182182.273
 106557019.175 8  83031508.719 8  20277096.508
 113804100.206 8  88678623.374 7  21656199.141
 120651001.381 7  94013885.155 6  22959128.328
 129321858.616 6 100770444.33643  24609132.063                    24609140.375
 128718834.097 6 100300470.00143  24494389.352                    24494398.008
 112078724.860 8  87334158.91046  21327857.172                    21327861.863
 119410291.126 7  93046908.00844  22722972.563                    22722979.320
 11  7 25  3 44 30.0000000  0  8G12G05G25G29G04G26G02G10
 111362737.462 8  86776331.188 7  21191641.234
 106560309.541 8  83034072.656 8  20277722.641
 113786475.663 8  88664889.984 7  21652845.242
 120568344.791 7  93949477.473 6  22943398.805
 129401984.180 6 100832879.90743  24624379.586                    24624387.684
 128621996.129 6 100225011.82842  24475961.555                    24475969.414
 112115756.380 8  87363014.65246  21334903.781                    21334908.375
 119504557.568 7  93120362.35744  22740910.953                    22740918.363
 11  7 25  3 45  0.0000000  0  8G12G05G25G29G04G26G02G10
 111412942.720 8  86815452.143 7  21201194.844
 106564166.036 8  83037077.721 8  20278456.461
 113769432.195 8  88651609.375 7  21649601.461
 120485730.131 7  93885102.480 6  22927677.727
 129482055.179 7 100895272.90943  24639616.594                    24639624.418
 128525090.888 6 100149501.23843  24457522.195                    24457529.859
 112152903.081 8  87391960.14446  21341972.820                    21341977.340
 119599109.650 7  93194039.32244  22758903.414                    22758910.305
 11  7 25  3 45 30.0000000  0  8G12G05G25G29G04G26G02G10
 111463643.277 8  86854959.063 7  21210842.742
 106568588.394 8  83040523.738 8  20279297.820
 113752970.402 8  88638782.026 7  21646469.469
 120403158.778 7  93820761.211 6  22911964.742
 129562071.679 6 100957623.39943  24654843.891                    24654851.512
 128428121.899 6 100073940.97743  24439068.828                    24439077.160
 112190164.633 8  87420995.11546  21349063.102                    21349068.012
 119693944.793 7  93267936.83244  22776949.977                    22776957.051
 11  7 25  3 46  0.0000000  0  8G12G05G25G29G04G26G02G10
 111514837.651 7  86894850.781 7  21220584.602
 106573575.404 8  83044409.736 8  20280246.914
 113737090.419 8  88626408.034 7  21643447.313
 120320632.488 7  93756455.084 6  22896260.375
 129642033.163 6 101019931.10143  24670060.344                    24670068.148
 128331091.984 6  99998333.30443  24420604.344                    24420613.840
 112227540.837 8  87450119.42246  21356175.766                    21356180.500
 119789060.086 7  93342052.63144  22795049.766                    22795057.246
 11  7 25  3 46 30.0000000  0  8G12G05G25G29G04G26G02G10
 111566522.927 8  86935125.031 7  21230419.703
 106579126.109 8  83048734.990 8  20281303.031
 113721792.637 8  88614487.705 7  21640536.609
 120238152.822 7  93692185.270 7  22880565.234
 129721939.530 6 101082195.83643  24685265.125                    24685273.453
 128234004.321 6  99922680.65543  24402129.031                    24402137.926
 112265030.944 7  87479332.49446  21363309.828                    21363314.641
 119884452.573 7  93416384.43744  22813202.992                    22813209.961
 11  7 25  3 47  0.0000000  0  8G12G05G25G29G04G26G02G10
 111618697.420 8  86975780.480 7  21240348.813
 106585240.044 8  83053499.104 8  20282466.680
 113707077.445 8  88603021.328 7  21637735.859
 120155721.380 7  93627953.069 6  22864878.641
 129801790.607 6 101144417.45743  24700460.070                    24700468.637
 128136862.116 6  99846985.49344  24383644.063                    24383652.500
 112302634.819 8  87508634.20446  21370465.773                    21370470.641
 119980119.349 7  93490929.98644  22831407.031                    22831414.328
 11  7 25  3 47 30.0000000  0  8G12G05G25G29G04G26G02G10
 111671359.014 8  87016815.487 7  21250369.953
 106591916.406 8  83058701.480 8  20283737.320
 113692945.108 8  88592009.137 7  21635047.023
 120073339.598 7  93563759.516 6  22849202.148
 129881586.341 6 101206595.97043  24715644.508                    24715653.141
 128039668.540 6  99771250.32943  24365148.195                    24365156.992
 112340351.574 8  87538023.89446  21377642.844                    21377647.453
 120076057.619 6  93565687.05444  22849663.305                    22849670.699
 11  7 25  3 48  0.0000000  0  8G12G05G25G29G04G26G02G10
 111724506.122 8  87058228.795 7  21260483.461
 106599154.238 8  83064341.356 8  20285114.406
 113679395.915 8  88581451.340 7  21632468.453
 119991009.051 7  93499605.904 6  22833535.281
 129961326.359 6 101268731.05143  24730819.102                    24730827.270
 127942426.774 6  99695477.57144  24346644.305                    24346653.020
 112378181.155 8  87567501.49746  21384841.344                    21384846.324
 120172264.502 6  93640653.41644  22867971.266                    22867979.145
 11  7 25  3 48 30.0000000  0  8G12G05G25G29G04G26G02G10
 111778136.022 8  87100018.323 7  21270688.914
 106606952.347 8  83070417.814 8  20286598.305
 113666429.910 8  88571347.975 7  21630001.125
 119908731.549 7  93435493.641 7  22817878.219
 130041010.466 6 101330822.58343  24745982.367                    24745990.883
 127845139.862 6  99619669.66743  24328129.758                    24328139.273
 112416122.645 8  87597066.27746  21392061.672                    21392066.871
 120268736.983 7  93715826.74644  22886329.242                    22886336.824
 11  7 25  3 49  0.0000000  0  8G12G05G25G29G04G26G02G10
 111832246.639 8  87142182.429 7  21280985.734
 106615309.856 8  83076930.173 8  20288188.508
 113654047.592 8  88561699.428 7  21627644.469
 119826508.670 7  93371423.925 7  22802231.727
 130120638.484 6 101392870.35443  24761134.484                    24761143.684
 127747810.955 5  99543829.05443  24309610.094                    24309618.629
 112454176.158 8  87626718.37746  21399303.133                    21399307.816
 120365472.301 7  93791204.89944  22904737.883                    22904745.137
 11  7 25  3 49 30.0000000  0  8G12G05G25G29G04G26G02G10
 111886836.110 8  87184719.680 7  21291374.055
 106624226.372 8  83083878.121 8  20289885.133
 113642248.959 8  88552505.694 7  21625399.445
 119744341.963 7  93307398.002 7  22786595.852
 130200210.528 6 101454874.55843  24776276.914                    24776285.902
 127650443.298 5  99467958.26643  24291080.844                    24291089.922
 112492341.099 8  87656457.27546  21406565.578                    21406570.457
 120462467.573 7  93866785.61544  22923195.875                    22923203.051
 11  7 25  3 50  0.0000000  0  8G12G05G25G29G04G26G02G10
 111941902.068 8  87227628.229 7  21301852.438
 106633700.718 8  83091260.740 8  20291688.281
 113631034.355 8  88543767.069 7  21623265.586
 119662233.421 7  93243417.342 6  22770970.797
 130279726.384 6 101516834.96043  24791407.680                    24791416.191
 127553040.235 5  99392059.88142  24272545.523                    24272554.598
 112530617.276 8  87686282.87246  21413849.195                    21413853.617
 120559720.245 7  93942566.92344  22941701.852                    22941708.770
 11  7 25  3 50 30.0000000  0  8G12G05G25G29G04G26G02G10
 111997442.623 8  87270906.568 7  21312421.453
 106643732.128 8  83099077.435 8  20293596.945
 113620404.157 8  88535483.813 7  21621242.570
 119580184.341 7  93179483.039 6  22755357.750
 130359186.05516 101578751.53252  24806528.344                    24806537.418
 127455605.104 6  99316136.45542  24254004.375                    24254013.270
 112569004.332 8  87716194.86446  21421153.945                    21421159.082
 120657227.143 7  94018546.34244  22960257.000                    22960263.836
 11  7 25  3 51  0.0000000  0  8G12G05G25G29G04G26G02G10
 112053454.925 8  87314552.505 7  21323080.203
 106654319.095 8  83107327.033 8  20295611.859
 113610357.955 8  88527655.603 7  21619331.234
 119498196.534 7  93115596.468 6  22739755.523
 130438589.124 6 101640624.08042  24821639.008                    24821646.980
 127358140.760 6  99240190.29343  24235457.836                    24235466.637
 112607501.444 8  87746192.60646  21428479.789                    21428484.637
 120754985.353 7  94094721.55444  22978859.570                    22978866.566
 11  7 25  3 51 30.0000000  0  8G12G05G25G29G04G26G02G10
 112109937.066 8  87358564.570 7  21333828.500
 106665460.432 8  83116008.599 8  20297731.906
 113600895.864 8  88520282.554 7  21617530.297
 119416271.402 7  93051758.760 6  22724165.914
 130517935.347 6 101702452.21142  24836738.828                    24836746.820
 127260650.276 6  99164223.68843  24216905.602                    24216913.543
 112646108.310 7  87776275.87946  21435826.258                    21435831.570
 120852992.105 7  94171090.43144  22997509.313                    22997517.527
 11  7 25  3 52  0.0000000  0  8G12G05G25G29G04G26G02G10
 112166886.687 8  87402940.885 7  21344665.453
 106677155.524 8  83125121.673 8  20299957.109
 113592018.040 8  88513364.780 7  21615841.000
 119334410.985 7  92987971.485 6  22708588.188
 130597224.802 5 101764236.30342  24851827.281                    24851834.859
 127163137.293 7  99088239.61543  24198349.594                    24198357.242
 112684824.598 8  87806444.39546  21443193.969                    21443198.914
 120951244.358 7  94247650.63244  23016206.320                    23016213.691
 11  7 25  3 52 30.0000000  0  8G12G05G25G29G04G26G02G10
 112224301.732 7  87447679.872 7  21355591.563
 106689403.348 8  83134665.442 8  20302287.984
 113583724.657 8  88506902.401 7  21614262.680
 119252616.887 7  92924235.882 6  22693023.422
 130676457.409 5 101825975.89742  24866904.070                    24866912.516
 127065604.851 7  99012240.34443  24179790.047                    24179797.285
 112723650.134 8  87836698.07046  21450582.078                    21450587.488
 121049739.155 7  94324399.81844  23034949.070                    23034956.695
 11  7 25  3 53  0.0000000  0  8G12G05G25G29G04G26G02G10
 112282179.761 7  87492779.632 7  21366605.266
 106702202.209 8  83144638.587 8  20304723.383
 113576015.291 8  88500895.113 7  21612795.531
 119170890.407 7  92860552.971 6  22677471.969
 130755632.591 5 101887670.83842  24881970.609                    24881979.238
 126968056.036 7  98936228.21943  24161226.797                    24161234.641
 112762584.081 8  87867036.20046  21457991.164                    21457995.938
 121148473.449 7  94401335.58344  23053737.219                    23053744.988
 11  7 25  3 53 30.0000000  0  8G12G05G25G29G04G26G02G10
 112340518.508 8  87538238.393 7  21377706.703
 106715551.838 8  83155040.902 8  20307263.820
 113568890.443 8  88495343.302 7  21611440.125
 119089233.556 7  92796924.307 6  22661932.180
 130834750.884 6 101949321.50142  24897026.141                    24897034.781
 126870494.447 6  98860206.29843  24142661.273                    24142670.180
 112801626.521 8  87897458.87946  21465420.609                    21465425.309
 121247445.199 7  94478456.44543  23072571.516                    23072578.922
 11  7 25  3 54  0.0000000  0  8G12G05G25G29G04G26G02G10
 112399315.358 8  87584054.111 7  21388895.031
 106729450.311 8  83165870.884 8  20309908.727
 113562349.608 8  88490246.539 7  21610195.195
 119007647.786 7  92733351.042 6  22646407.320
 130913811.735 6 102010927.39042  24912071.031                    24912078.961
 126772923.209 6  98784176.85543  24124094.078                    24124103.145
 112840776.863 8  87927965.63446  21472870.391                    21472875.371
 121346651.300 6  94555759.87144  23091450.320                    23091457.543
 11  7 25  3 54 30.0000000  0  8G12G05G25G29G04G26G02G10
 112458568.499 8  87630225.360 7  21400170.797
 106743897.067 8  83177128.106 8  20312658.008
 113556393.122 8  88485605.126 7  21609061.992
 118926135.443 7  92669834.968 7  22630896.016
 130992815.340 7 102072488.62042  24927104.727                    24927113.793
 126675345.578 6  98708142.42743  24105525.555                    24105534.816
 112880034.803 8  87958556.23346  21480341.281                    21480345.957
 121446088.814 7  94633243.67144  23110372.219                    23110379.621
 11  7 25  3 55  0.0000000  0  8G12G05G25G29G04G26G02G10
 112518275.238 8  87676750.098 7  21411532.617
 106758890.854 8  83188811.596 8  20315510.961
 113551020.696 8  88481418.831 7  21608039.523
 118844697.821 7  92606377.156 7  22615398.836
 131071761.560 6 102134005.10942  24942128.766                    24942137.891
 126577764.820 5  98632105.58843  24086956.234                    24086965.207
 112919399.884 8  87989230.31346  21487832.094                    21487837.223
 121545755.122 7  94710905.73644  23129338.203                    23129345.859
 11  7 25  3 55 30.0000000  0  8G12G05G25G29G04G26G02G10
 112578433.411 8  87723626.590 7  21422980.250
 106774430.310 8  83200920.265 8  20318468.125
 113546232.287 8  88477687.620 7  21607128.164
 118763336.796 7  92542979.015 6  22599916.188
 131150650.322 6 102195476.91242  24957140.367                    24957149.172
 126480184.376 6  98556068.99743  24068387.047                    24068396.203
 112958872.315 8  88019988.05946  21495343.273                    21495347.875
 121645646.965 7  94788743.50344  23148346.805                    23148354.430
 11  7 25  3 56  0.0000000  0  8G12G05G25G29G04G26G02G10
 112639040.747 8  87770853.061 7  21434513.492
 106790514.415 8  83213453.353 8  20321528.547
 113542027.838 8  88474411.421 7  21606328.328
 118682054.135 7  92479641.947 7  22584448.672
 131229481.728 6 102256903.94342  24972141.984                    24972149.758
 126382607.672 6  98480035.29443  24049818.797                    24049827.816
 112998451.660 8  88050829.10046  21502875.313                    21502880.254
 121745761.844 7  94866755.10744  23167398.727                    23167405.484
 11  7 25  3 56 30.0000000  0  8G12G05G25G29G04G26G02G10
 112700094.583 8  87818427.466 7  21446131.891
 106807141.885 8  83226409.818 8  20324692.789
 113538406.948 8  88471589.950 7  21605639.016
 118600851.513 7  92416367.217 7  22568995.984
 131308255.519 6 102318286.11342  24987131.789                    24987140.320
 126285038.038 6  98404007.11843  24031251.875                    24031260.410
 113038137.258 8  88081752.95246  21510427.094                    21510431.906
 121846096.760 7  94944938.14744  23186490.430                    23186498.785
 11  7 25  3 57  0.0000000  0  8G12G05G25G29G04G26G02G10
 112761592.526 8  87866347.944 7  21457834.523
 106824311.206 8  83239788.533 8  20327959.977
 113535369.404 8  88469223.029 7  21605061.000
 118519730.767 7  92353156.305 7  22553559.500
 131386971.452 6 102379623.10242  25002110.211                    25002118.766
 126187478.404 6  98327986.72944  24012687.602                    24012695.809
 113077929.291 8  88112759.73346  21517999.711                    21518004.262
 121946648.985 7  95023290.51844  23205625.117                    23205633.242
 11  7 25  3 57 30.0000000  0  8G12G05G25G29G04G26G02G10
 112823532.232 8  87914612.644 7  21469621.633
 106842021.039 8  83253588.402 8  20331329.953
 113532914.900 8  88467310.441 7  21604593.875
 118438693.540 7  92290010.471 6  22538138.898
 131465629.301 5 102440914.99042  25017078.492                    25017086.609
 126089932.153 7  98251976.76343  23994124.602                    23994133.336
 113117826.535 8  88143848.51046  21525591.555                    21525596.043
 122047415.678 6  95101809.98844  23224800.719                    23224809.051
 11  7 25  3 58  0.0000000  0  9G12G05G25G29G15G04G26G02G10
 112885911.237 8  87963219.648 7  21481491.859
 106860270.590 8  83267808.844 8  20334802.953
 113531043.350 8  88465852.102 7  21604237.961
 118357741.803 7  92226931.228 7  22522733.852
 131113301.56114 102166308.52715  24950048.250
 131544229.756 6 102502162.03742  25032035.586                    25032044.285
 125992402.977 7  98175980.02644  23975565.086                    23975573.664
 113157829.168 8  88175019.39146  21533203.867                    21533208.535
 122148394.142 6  95180494.47844  23244015.961                    23244023.914
